[[{"header":{"parameterUnit":"m.s-1","parameterCategory":1,"la1":31.0,"la2":29.5877,"lo1":-88.7671,"lo2":-86.6584,"dy":0.0162,"dx":0.0185,"nx":115,"ny":88,"refTime":"2023-06-30T18:00:00:Z","depth":0,"parameterNumber":2,"parameterNumberName":"U-component_of_WINDS"},"data":[0.0,0.0,0.0,0.0,0.0,0.0,0.0,0.0,0.0,0.0,0.0,0.0,0.0,0.0,0.0,0.0,0.0,0.0,0.0,0.0,0.0,0.0,0.0,0.0,0.0,0.0,0.0,0.0,0.0,0.0,0.0,0.0,0.0,0.0,0.0,0.0,0.0,0.0,0.0,0.0,0.0,0.0,0.0,0.0,0.0,0.0,0.0,0.0,0.0,0.0,0.0,0.0,0.0,0.0,0.0,0.0,0.0,0.0,0.0,0.0,0.0,0.0,0.0,0.0,0.0,0.0,0.0,0.0,0.0,0.0,0.0,0.0,0.0,0.0,0.0,0.0,0.0,0.0,0.0,0.0,0.0,0.0,0.0,0.0,0.0,0.0,0.0,0.0,0.0,0.0,0.0,0.0,0.0,0.0,0.0,0.0,0.0,0.0,0.0,0.0,0.0,0.0,0.0,0.0,0.0,0.0,0.0,0.0,0.0,0.0,0.0,0.0,0.0,0.0,0.0,0.0,0.0,0.0,0.0,0.0,0.0,0.0,0.0,0.0,0.0,0.0,0.0,0.0,0.0,0.0,0.0,0.0,0.0,0.0,0.0,0.0,0.0,0.0,0.0,0.0,0.0,0.0,0.0,0.0,0.0,0.0,0.0,0.0,0.0,0.0,0.0,0.0,0.0,0.0,0.0,0.0,0.0,0.0,0.0,0.0,0.0,0.0,0.0,0.0,0.0,0.0,0.0,0.0,0.0,0.0,0.0,0.0,0.0,0.0,0.0,0.0,0.0,0.0,0.0,0.0,0.0,0.0,0.0,0.0,0.0,0.0,0.0,0.0,0.0,0.0,0.0,0.0,0.0,0.0,0.0,0.0,0.0,0.0,0.0,0.0,0.0,0.0,0.0,0.0,0.0,0.0,0.0,0.0,0.0,0.0,0.0,0.0,0.0,0.0,0.0,0.0,0.0,0.0,0.0,0.0,0.0,0.0,0.0,0.0,0.0,0.0,0.0,0.0,0.0,0.0,0.0,0.0,0.0,0.0,0.0,0.0,0.0,0.0,0.0,0.0,0.0,0.0,0.0,0.0,0.0,0.0,0.0,0.0,0.0,0.0,0.0,0.0,0.0,0.0,0.0,0.0,0.0,0.0,0.0,0.0,0.0,0.0,0.0,0.0,0.0,0.0,0.0,0.0,0.0,0.0,0.0,0.0,0.0,0.0,0.0,0.0,0.0,0.0,0.0,0.0,0.0,0.0,0.0,0.0,0.0,0.0,0.0,0.0,0.0,0.0,0.0,0.0,0.0,0.0,0.0,0.0,0.0,0.0,0.0,0.0,0.0,0.0,0.0,0.0,0.0,0.0,0.0,0.0,0.0,0.0,0.0,0.0,0.0,0.0,0.0,0.0,0.0,0.0,0.0,0.0,0.0,0.0,0.0,0.0,0.0,0.0,0.0,0.0,0.0,0.0,0.0,0.0,0.0,0.0,0.0,0.0,0.0,0.0,0.0,0.0,0.0,0.0,0.0,0.0,0.0,0.0,0.0,0.0,0.0,0.0,0.0,0.0,0.0,0.0,0.0,0.0,0.0,0.0,0.0,0.0,0.0,0.0,0.0,0.0,0.0,0.0,0.0,0.0,0.0,0.0,0.0,0.0,0.0,0.0,0.0,0.0,0.0,0.0,0.0,0.0,0.0,0.0,0.0,0.0,0.0,0.0,0.0,0.0,0.0,0.0,0.0,0.0,0.0,0.0,0.0,0.0,0.0,0.0,0.0,0.0,0.0,0.0,0.0,0.0,0.0,0.0,0.0,0.0,0.0,0.0,0.0,0.0,0.0,0.0,0.0,0.0,0.0,0.0,0.0,0.0,0.0,0.0,0.0,0.0,0.0,0.0,0.0,0.0,0.0,0.0,0.0,0.0,0.0,0.0,0.0,0.0,0.0,0.0,0.0,0.0,0.0,0.0,0.0,0.0,0.0,0.0,0.0,0.0,0.0,0.0,0.0,0.0,0.0,0.0,0.0,0.0,0.0,0.0,0.0,0.0,0.0,0.0,0.0,0.0,0.0,0.0,0.0,0.0,0.0,0.0,0.0,0.0,0.0,0.0,0.0,0.0,0.0,0.0,0.0,0.0,0.0,0.0,0.0,0.0,0.0,0.0,0.0,0.0,0.0,0.0,0.0,0.0,0.0,0.0,0.0,0.0,0.0,0.0,0.0,0.0,0.0,0.0,0.0,0.0,0.0,0.0,0.0,0.0,0.0,0.0,0.0,0.0,0.0,0.0,0.0,0.0,0.0,0.0,0.0,0.0,0.0,0.0,0.0,0.0,0.0,0.0,0.0,0.0,0.0,0.0,0.0,0.0,0.0,0.0,0.0,0.0,0.0,0.0,0.0,0.0,0.0,0.0,0.0,0.0,0.0,0.0,0.0,0.0,0.0,0.0,0.0,0.0,0.0,0.0,0.0,0.0,0.0,0.0,0.0,0.0,0.0,0.0,0.0,0.0,0.0,0.0,0.0,0.0,0.0,0.0,0.0,0.0,0.0,0.0,0.0,0.0,0.0,0.0,0.0,0.0,0.0,0.0,0.0,0.0,0.0,0.0,0.0,0.0,0.0,0.0,0.0,0.0,0.0,0.0,0.0,0.0,0.0,0.0,0.0,0.0,0.0,0.0,0.0,0.0,0.0,0.0,0.0,0.0,0.0,0.0,0.0,0.0,0.0,0.0,0.0,0.0,0.0,0.0,0.0,0.0,0.0,0.0,0.0,0.0,0.0,0.0,0.0,0.0,0.0,0.0,0.0,0.0,0.0,0.0,0.0,0.0,0.0,0.0,0.0,0.0,0.0,0.0,0.0,0.0,0.0,0.0,0.0,0.0,0.0,0.0,0.0,0.0,0.0,0.0,0.0,0.0,0.0,0.0,0.0,0.0,0.0,0.0,0.0,0.0,0.0,0.0,0.0,0.0,0.0,0.0,0.0,0.0,0.0,0.0,0.0,0.0,0.0,0.0,0.0,0.0,0.0,0.0,0.0,0.0,0.0,0.0,0.0,0.0,0.0,0.0,0.0,0.0,0.0,0.0,0.0,0.0,0.0,0.0,0.0,0.0,0.0,0.0,0.0,0.0,0.0,0.0,0.0,0.0,0.0,0.0,0.0,0.0,0.0,0.0,0.0,0.0,0.0,0.0,0.0,0.0,0.0,0.0,0.0,0.0,0.0,0.0,0.0,0.0,0.0,0.0,0.0,0.0,0.0,0.0,0.0,0.0,0.0,0.0,0.0,0.0,0.0,0.0,0.0,0.0,0.0,0.0,0.0,0.0,0.0,0.0,0.0,0.0,0.0,0.0,0.0,0.0,0.0,0.0,0.0,0.0,0.0,0.0,0.0,0.0,0.0,0.0,0.0,0.0,0.0,0.0,0.0,0.0,0.0,0.0,0.0,0.0,0.0,0.0,0.0,0.0,0.0,0.0,0.0,0.0,0.0,0.0,0.0,0.0,0.0,0.0,0.0,0.0,0.0,0.0,0.0,0.0,0.0,0.0,0.0,0.0,0.0,0.0,0.0,0.0,0.0,0.0,0.0,0.0,0.0,0.0,0.0,0.0,0.0,0.0,0.0,0.0,0.0,0.0,0.0,0.0,0.0,0.0,0.0,0.0,0.0,0.0,0.0,0.0,0.0,0.0,0.0,0.0,0.0,0.0,0.0,0.0,0.0,0.0,0.0,0.0,0.0,0.0,0.0,0.0,0.0,0.0,0.0,0.0,0.0,0.0,0.0,0.0,0.0,0.0,0.0,0.0,0.0,0.0,0.0,0.0,0.0,0.0,0.0,0.0,0.0,0.0,0.0,0.0,0.0,0.0,0.0,0.0,0.0,0.0,0.0,0.0,0.0,0.0,0.0,0.0,0.0,0.0,0.0,0.0,0.0,0.0,0.0,0.0,0.0,0.0,0.0,0.0,0.0,0.0,0.0,0.0,0.0,0.0,0.0,0.0,0.0,0.0,0.0,0.0,0.0,0.0,0.0,0.0,0.0,0.0,0.0,0.0,0.0,0.0,0.0,0.0,0.0,0.0,0.0,0.0,0.0,0.0,0.0,0.0,0.0,0.0,0.0,0.0,0.0,0.0,0.0,0.0,0.0,0.0,0.0,0.0,0.0,0.0,0.0,0.0,0.0,0.0,0.0,0.0,0.0,0.0,0.0,0.0,0.0,0.0,0.0,0.0,0.0,0.0,0.0,0.0,0.0,0.0,0.0,0.0,0.0,0.0,0.0,0.0,0.0,0.0,0.5093,0.0,0.0,0.0,0.0,0.0,0.0,0.0,0.0,0.0,0.0,0.0,0.0,0.0,0.0,0.0,0.0,0.0,0.0,0.0,0.0,0.0,0.0,0.0,0.0,0.0,0.0,0.0,0.0,0.0,0.0,0.0,0.0,0.0,0.0,0.0,0.0,0.0,0.0,0.0,0.0,0.0,0.0,0.0,0.0,0.0,0.0,0.0,0.0,0.0,0.0,0.0,0.0,0.0,0.0,0.0,0.0,0.0,0.0,0.0,0.0,0.0,0.0,0.0,0.0,0.0,0.0,0.0,0.0,0.0,0.0,0.0,0.0,0.0,0.0,0.0,0.0,0.0,0.0,0.0,0.0,0.0,0.0,0.0,0.0,0.0,0.0,0.0,0.0,0.0,0.0,0.0,0.0,0.0,0.0,0.0,0.0,0.0,0.0,0.0,0.0,0.0,0.0,0.0,0.0,0.0,0.0,0.0,0.0,0.0,0.0,0.092,0.1167,0.1169,0.1737,0.2956,0.0,0.0,0.0,0.0,0.0,0.0,0.0,0.0,0.0,0.0,0.0,0.0,0.0,0.0,0.0,0.0,0.0,0.0,0.0,0.0,0.0,0.0,0.0,0.0,0.0,0.0,0.0,0.0,0.0,0.0,0.0,0.0,0.0,0.0,0.0,0.0,0.0,0.0,0.0,0.0,0.0,0.0,0.0,0.0,0.0,0.0,0.0,0.0,0.0,0.0,0.0,0.0,0.0,0.0,0.0,0.0,0.0,0.0,0.0,0.0,0.0,0.0,0.0,0.0,0.0,0.0,0.0,0.0,0.0,0.0,0.0,0.0,0.0,0.0,0.0,0.0,0.0,0.0,0.0,0.0,0.0,0.0,0.0,0.0,0.0,0.0,0.0,0.0,0.0,0.0,0.0,0.0,0.0,0.0,0.0,0.0,0.0,0.0,0.0,0.0,0.0,0.0,0.0,0.0,0.0,0.0,0.0,0.0,0.0,0.0,0.0,0.0,-0.2243,-0.0956,0.0812,0.0,0.0,0.0,0.0,0.0,0.0,0.0,0.0,0.0,0.0,0.0,0.0,0.0,0.0,0.0,0.0,0.0,0.0,0.0,0.0,0.0,0.0,0.0,0.0,0.0,0.0,0.0,0.0,0.0,0.0,0.0,0.0,0.0,0.0,0.0,0.0,0.0,0.0,0.0,0.0,0.0,0.0,0.0,0.0,0.0,0.0,0.0,0.0,0.0,0.0,0.0,0.0,0.0,0.0,0.0,0.0,0.0,0.0,0.0,0.0,0.0,0.0,0.0,0.0,0.0,0.0,0.0,0.0,0.0,0.0,0.0,0.0,0.0,0.0,0.0,0.0,0.0,0.0,0.0,0.0,0.0,0.0,0.0,0.0,0.0,0.0,0.0,0.0,0.0,0.0,0.0,0.0,0.0,0.0,0.0,0.0,0.0,0.0,0.0,0.0,0.0,0.0,0.0,0.0,0.0,0.0,0.0,0.0,0.0,0.0,-0.6768,-0.8616,-0.6493,0.0,-0.1213,0.0,0.0,0.0,0.0,0.0,0.0,0.0,0.0,0.0,0.0,0.0,0.0,0.0,0.0,0.0,0.0,0.0,0.0,0.0,0.0,0.0,0.0,0.0,0.0,0.0,0.0,0.0,0.0,0.0,0.0,0.0,0.0,0.0,0.0,0.0,0.0,0.0,0.0,0.0,0.0,0.0,0.0,0.0,0.0,0.0,0.0,0.0,0.0,0.0,0.0,0.0,0.0,0.0,0.0,0.0,0.0,0.0,0.0,0.0,0.0,0.0,0.0,0.0,0.0,0.0,0.0,0.0,0.0,0.0,0.0,0.0,0.0,0.0,0.0,0.0,0.0,0.0,0.0,0.0,0.0,0.0,0.0,0.0,0.0,0.0,0.0,0.0,0.0,0.0,0.0,0.0,0.0,0.0,0.0,0.0,0.0,0.0,0.0,0.0,0.0,0.0,0.0,0.0,0.0,0.0,0.0,0.0,0.0,0.0,0.0,-1.166,-1.1678,-0.916,-0.6606,0.0,0.0,0.0,0.0,0.0,0.0,0.0,0.0,0.0,0.0,0.0,0.0,0.0,0.0,0.0,0.0,0.0,0.0,0.0,0.0,0.0,0.0,0.0,0.0,0.0,0.0,0.0,0.0,0.0,0.0,0.0,0.0,0.0,0.0,0.0,0.0,0.0,0.0,0.0,0.0,0.0,0.0,0.0,0.0,0.0,0.0,0.0,0.0,0.0,0.0,0.0,0.0,0.0,0.0,0.0,0.0,0.0,0.0,0.0,0.0,0.0,0.0,0.0,0.0,0.0,0.0,0.0,0.0,0.0,0.0,0.0,0.0,0.0,0.0,0.0,0.0,0.0,0.0,0.0,0.0,0.0,0.0,0.0,0.0,0.0,0.0,0.0,0.0,0.0,0.0,0.0,0.0,0.0,0.0,0.0,0.0,0.0,0.0,0.0,0.0,0.0,0.0,0.0,0.0,0.0,0.0,0.0,0.0,0.0,0.0,-1.5635,-1.6176,-1.4846,-1.2456,-1.0014,-0.7528,0.0,0.0,0.0,0.0,0.0,0.0,0.0,0.0,0.0,0.0,0.0,0.0,0.0,0.0,0.0,0.0,0.0,0.0,0.0,0.0,0.0,0.0,0.0,0.0,0.0,0.0,0.0,0.0,0.0,0.0,0.0,0.0,0.0,0.0,0.0,0.0,0.0,0.0,0.0,0.0,0.0,0.0,0.0,0.0,0.0,0.0,0.0,0.0,0.0,0.0,0.0,0.0,0.0,0.0,0.0,0.0,0.0,0.0,0.0,0.0,0.0,0.0,0.0,0.0,0.0,0.0,0.0,0.0,0.0,0.0,0.0,0.0,0.0,0.0,0.0,0.0,0.0,0.0,0.0,0.0,0.0,0.0,0.0,0.0,0.0,0.0,0.0,0.0,0.0,0.0,0.0,0.0,0.0,0.0,0.0,0.0,0.0,0.0,0.0,0.0,0.0,0.0,0.0,0.0,0.0,0.0,0.0,0.0,-1.5418,-1.8646,-1.994,-1.9052,-1.7058,-1.4402,0.0,0.0,0.0,0.0,0.0,0.0,0.0,0.0,0.0,0.0,0.0,0.0,0.0,0.0,0.0,0.0,0.0,0.0,0.0,0.0,0.0,0.0,0.0,0.0,0.0,0.0,0.0,0.0,0.0,0.0,0.0,0.0,0.0,0.0,0.0,0.0,0.0,0.0,0.0,0.0,0.0,0.0,0.0,0.0,0.0,0.0,0.0,0.0,0.0,0.0,0.0,0.0,0.0,0.0,0.0,0.0,0.0,0.0,0.0,0.0,0.0,0.0,0.0,0.0,0.0,0.0,0.0,0.0,0.0,0.0,0.0,0.0,0.0,0.0,0.0,0.0,0.0,0.0,0.0,0.0,0.0,0.0,0.0,0.0,0.0,0.0,0.0,0.0,0.0,0.0,0.0,0.0,0.0,0.0,0.0,0.0,0.0,0.0,0.0,0.0,0.0,0.0,0.0,0.0,0.0,0.0,0.0,0.0,0.0,-1.981,-2.3147,-2.4064,-2.2377,-2.0333,-1.7484,0.0,0.0,0.0,0.0,0.0,0.0,0.0,0.0,0.0,0.0,0.0,0.0,0.0,0.0,0.0,0.0,0.0,0.0,0.0,0.0,0.0,0.0,0.0,0.0,0.0,0.0,0.0,0.0,0.0,0.0,0.0,0.0,0.0,0.0,0.0,0.0,0.0,0.0,0.0,0.0,0.0,0.0,0.0,0.0,0.0,0.0,0.0,0.0,0.0,0.0,0.0,0.0,0.0,0.0,0.0,0.0,0.0,0.0,0.0,0.0,0.0,0.0,0.0,0.0,0.0,0.0,0.0,0.0,0.0,0.0,0.0,0.0,0.0,0.0,0.0,0.0,0.0,0.0,0.0,0.0,0.0,0.0,0.0,0.0,0.0,0.0,0.0,0.0,0.0,0.0,0.0,0.0,0.0,0.0,0.0,0.0,0.0,0.0,0.0,0.0,0.0,0.0,0.0,0.0,0.0,0.0,0.0,0.0,0.0,-2.5266,0.0,-2.7822,-2.5959,-2.3627,-2.0475,0.0,0.0,0.0,0.0,0.0,0.0,0.0,0.0,0.0,0.0,0.0,0.0,0.0,0.0,0.0,0.0,0.0,0.0,0.0,0.0,0.0,0.0,0.0,0.0,0.0,0.0,0.0,0.0,0.0,0.0,0.0,0.0,0.0,0.0,0.0,0.0,0.0,0.0,0.0,0.0,0.0,0.0,0.0,0.0,0.0,0.0,0.0,0.0,0.0,0.0,0.0,0.0,0.0,0.0,0.0,0.0,0.0,0.0,0.0,0.0,0.0,0.0,0.0,0.0,0.0,0.0,0.0,0.0,0.0,0.0,0.0,0.0,0.0,0.0,0.0,0.0,0.0,0.0,0.0,0.0,0.0,0.0,0.0,0.0,0.0,0.0,0.0,0.0,0.0,0.0,0.0,0.0,0.0,0.0,0.0,0.0,0.0,0.0,0.0,0.0,0.0,0.0,0.0,0.0,0.0,0.0,0.0,0.0,-2.2324,-3.1615,-3.1893,-3.1163,-2.9886,-2.7034,-2.3496,0.0,0.0,0.0,0.0,0.0,0.0,0.0,0.0,0.0,0.0,0.0,0.0,0.0,0.0,0.0,0.0,0.0,0.0,0.0,0.0,0.0,0.0,0.0,0.0,0.0,0.0,0.0,0.0,0.0,0.0,0.0,0.0,0.0,0.0,0.0,0.0,0.0,0.0,0.0,0.0,0.0,0.0,0.0,0.0,0.0,0.0,0.0,0.0,0.0,0.0,0.0,0.0,0.0,0.0,0.0,0.0,0.0,0.0,0.0,0.0,0.0,0.0,0.0,0.0,0.0,0.0,0.0,0.0,0.0,0.0,0.0,0.0,0.0,0.0,0.0,0.0,0.0,0.0,0.0,0.0,0.0,0.0,0.0,0.0,0.0,0.0,0.0,0.0,0.0,0.0,0.0,0.0,0.0,0.0,0.0,0.0,0.0,0.0,0.0,0.0,0.0,0.0,0.0,0.0,0.0,0.0,0.0,0.0,0.0,-3.3302,-3.4217,-3.3777,-3.1975,-2.9149,-2.5534,0.0,0.0,0.0,0.0,0.0,0.0,0.0,0.0,0.0,0.0,0.0,0.0,0.0,0.0,0.0,0.0,0.0,0.0,0.0,0.0,0.0,0.0,0.0,0.0,0.0,0.0,0.0,0.0,0.0,0.0,0.0,0.0,0.0,0.0,0.0,0.0,0.0,0.0,0.0,0.0,0.0,0.0,0.0,0.0,0.0,0.0,0.0,0.0,0.0,0.0,0.0,0.0,0.0,0.0,0.0,0.0,0.0,0.0,0.0,0.0,0.0,0.0,0.0,0.0,0.0,0.0,0.0,0.0,0.0,0.0,0.0,0.0,0.0,0.0,0.0,0.0,0.0,0.0,0.0,0.0,0.0,0.0,0.0,0.0,0.0,0.0,0.0,0.0,0.0,0.0,0.0,0.0,0.0,0.0,0.0,0.0,0.0,0.0,0.0,0.0,0.0,0.0,0.0,0.0,0.0,0.0,0.0,0.0,0.0,-3.565,-3.6317,-3.5827,-3.416,-3.1091,-2.7356,-2.2944,0.0,0.0,0.0,0.0,0.0,0.0,0.0,0.0,0.0,0.0,0.0,0.0,0.0,0.0,0.0,0.0,0.0,0.0,0.0,0.0,0.0,0.0,0.0,0.0,0.0,0.0,0.0,0.0,0.0,0.0,0.0,0.0,0.0,0.0,0.0,0.0,0.0,0.0,0.0,0.0,0.0,0.0,0.0,0.0,0.0,0.0,0.0,0.0,0.0,0.0,0.0,0.0,0.0,0.0,0.0,0.0,0.0,0.0,0.0,0.0,0.0,0.0,0.0,0.0,0.0,0.0,0.0,0.0,0.0,0.0,0.0,0.0,0.0,0.0,0.0,0.0,0.0,0.0,0.0,0.0,0.0,0.0,0.0,0.0,0.0,0.0,0.0,0.0,0.0,0.0,0.0,0.0,0.0,0.0,0.0,0.0,0.0,0.0,0.0,0.0,0.0,0.0,0.0,0.0,0.0,0.0,0.0,0.0,-3.8439,-3.8209,-3.7501,-3.6279,-3.2921,-2.9115,0.0,0.0,0.0,0.0,0.0,0.0,0.0,0.0,0.0,0.0,0.0,0.0,0.0,0.0,0.0,0.0,0.0,0.0,0.0,0.0,0.0,0.0,0.0,0.0,0.0,0.0,0.0,0.0,0.0,0.0,0.0,0.0,0.0,0.0,0.0,0.0,0.0,0.0,0.0,0.0,0.0,0.0,0.0,0.0,0.0,0.0,0.0,0.0,0.0,0.0,0.0,0.0,0.0,0.0,0.0,0.0,0.0,0.0,0.0,0.0,0.0,0.0,0.0,0.0,0.0,0.0,0.0,0.0,0.0,0.0,0.0,0.0,0.0,0.0,0.0,0.0,0.0,0.0,0.0,0.0,0.0,0.0,0.0,0.0,0.0,0.0,0.0,0.0,0.0,0.0,0.0,0.0,0.0,0.0,0.0,0.0,0.0,0.0,0.0,0.0,0.0,0.0,0.0,0.0,0.0,0.0,0.0,0.0,0.0,-3.8365,-3.9429,-3.949,-3.842,-3.5027,-3.095,0.0,0.0,0.0,0.0,0.0,0.0,0.0,0.0,0.0,0.0,0.0,0.0,0.0,0.0,0.0,0.0,0.0,0.0,0.0,0.0,0.0,0.0,0.0,0.0,0.0,0.0,0.0,0.0,0.0,0.0,0.0,0.0,0.0,0.0,0.0,0.0,0.0,0.0,0.0,0.0,0.0,0.0,0.0,0.0,0.0,0.0,0.0,0.0,0.0,0.0,0.0,0.0,0.0,0.0,0.0,0.0,0.0,0.0,0.0,0.0,0.0,0.0,0.0,0.0,0.0,0.0,0.0,0.0,0.0,0.0,0.0,0.0,0.0,0.0,0.0,0.0,0.0,0.0,0.0,0.0,0.0,0.0,0.0,0.0,0.0,0.0,0.0,0.0,0.0,0.0,0.0,0.0,0.0,0.0,0.0,0.0,0.0,0.0,0.0,0.0,0.0,0.0,0.0,0.0,0.0,0.0,0.0,0.0,-3.6518,-3.8895,-4.0137,-4.0544,-4.0109,-3.6306,-3.2121,0.0,0.0,0.0,0.0,0.0,0.0,0.0,0.0,0.0,0.0,0.0,0.0,0.0,0.0,0.0,0.0,0.0,0.0,0.0,0.0,0.0,0.0,0.0,0.0,0.0,0.0,0.0,0.0,0.0,0.0,0.0,0.0,0.0,0.0,0.0,0.0,0.0,0.0,0.0,0.0,0.0,0.0,0.0,0.0,0.0,0.0,0.0,0.0,0.0,0.0,0.0,0.0,0.0,0.0,0.0,0.0,0.0,0.0,0.0,0.0,0.0,0.0,0.0,0.0,0.0,0.0,0.0,0.0,0.0,0.0,0.0,0.0,0.0,0.0,0.0,0.0,0.0,0.0,0.0,0.0,0.0,0.0,0.0,0.0,0.0,0.0,0.0,0.0,0.0,0.0,0.0,0.0,0.0,0.0,0.0,0.0,0.0,0.0,0.0,0.0,0.0,0.0,0.0,0.0,0.0,0.0,0.0,0.0,-3.6164,-3.9351,-4.0233,-4.076,-4.0824,-3.6945,-3.2915,0.0,0.0,0.0,0.0,0.0,0.0,0.0,0.0,0.0,0.0,0.0,0.0,0.0,0.0,0.0,0.0,0.0,0.0,0.0,0.0,0.0,0.0,0.0,0.0,0.0,0.0,0.0,0.0,0.0,0.0,0.0,0.0,0.0,0.0,0.0,0.0,0.0,0.0,0.0,0.0,0.0,0.0,0.0,0.0,0.0,0.0,0.0,0.0,0.0,0.0,0.0,0.0,0.0,0.0,0.0,0.0,0.0,0.0,0.0,0.0,0.0,0.0,0.0,0.0,0.0,0.0,0.0,0.0,0.0,0.0,0.0,0.0,0.0,0.0,0.0,0.0,0.0,0.0,0.0,0.0,0.0,0.0,0.0,0.0,0.0,0.0,0.0,0.0,0.0,0.0,0.0,0.0,0.0,0.0,0.0,0.0,0.0,0.0,0.0,0.0,0.0,0.0,0.0,0.0,0.0,0.0,0.0,0.0,-3.56,-3.7605,-3.9097,-3.9672,-3.9303,-3.7173,-3.4106,0.0,0.0,0.0,0.0,0.0,0.0,0.0,0.0,0.0,0.0,0.0,0.0,0.0,0.0,0.0,0.0,0.0,0.0,0.0,0.0,0.0,0.0,0.0,0.0,0.0,0.0,0.0,0.0,0.0,0.0,0.0,0.0,0.0,0.0,0.0,0.0,0.0,0.0,0.0,0.0,0.0,0.0,0.0,0.0,0.0,0.0,0.0,0.0,-0.9789,0.0,0.0,0.0,0.0,0.0,0.0,0.0,0.0,0.0,0.0,0.0,0.0,0.0,0.0,0.0,0.0,0.0,0.0,0.0,0.0,0.0,0.0,0.0,0.0,0.0,0.0,0.0,0.0,0.0,0.0,0.0,0.0,0.0,0.0,0.0,0.0,0.0,0.0,0.0,0.0,0.0,0.0,0.0,0.0,0.0,0.0,0.0,0.0,0.0,0.0,0.0,0.0,0.0,0.0,0.0,0.0,0.0,0.0,0.0,-3.4996,-3.7052,-3.8376,-3.8965,-3.8807,-3.7427,-3.4792,0.0,0.0,0.0,0.0,0.0,0.0,0.0,0.0,0.0,0.0,0.0,0.0,0.0,0.0,0.0,0.0,0.0,0.0,0.0,0.0,0.0,0.0,0.0,0.0,0.0,0.0,0.0,0.0,0.0,0.0,0.0,0.0,0.0,0.0,0.0,0.0,0.0,0.0,0.0,0.0,0.0,0.0,0.0,0.0,0.0,0.0,0.0,0.0,0.0,0.0,0.0,0.0,0.0,0.0,0.0,0.0,0.0,0.0,0.0,0.0,0.0,0.0,0.0,0.0,0.0,0.0,0.0,0.0,0.0,0.0,0.0,0.0,0.0,0.0,0.0,0.0,0.0,0.0,0.0,0.0,0.0,0.0,0.0,0.0,0.0,0.0,0.0,0.0,0.0,0.0,0.0,0.0,0.0,0.0,0.0,0.0,0.0,0.0,0.0,0.0,0.0,0.0,0.0,0.0,0.0,0.0,0.0,-3.3405,-3.4619,-3.6815,-3.7753,-3.8363,-3.867,-3.7367,-3.4956,-3.1318,0.0,0.0,0.0,0.0,0.0,0.0,0.0,0.0,0.0,0.0,0.0,0.0,0.0,0.0,0.0,0.0,0.0,0.0,0.0,0.0,0.0,0.0,0.0,0.0,0.0,0.0,0.0,0.0,0.0,0.0,0.0,0.0,0.0,0.0,0.0,0.0,0.0,0.0,-1.272,-1.7867,0.0,0.0,0.0,0.0,0.0,0.0,0.0,0.0,-2.2798,0.0,0.0,0.0,0.0,0.0,0.0,0.0,0.0,0.0,0.0,0.0,0.0,0.0,0.0,0.0,0.0,0.0,0.0,0.0,0.0,0.0,0.0,0.0,0.0,0.0,0.0,0.0,0.0,0.0,0.0,0.0,0.0,0.0,0.0,0.0,0.0,0.0,0.0,0.0,0.0,0.0,0.0,0.0,0.0,0.0,0.0,0.0,0.0,0.0,0.0,0.0,0.0,0.0,0.0,0.0,0.0,-3.3266,-3.4014,-3.4934,-3.6072,-3.6875,-3.7494,-3.7839,-3.6069,-3.4166,-3.211,0.0,0.0,0.0,0.0,0.0,0.0,0.0,0.0,0.0,0.0,0.0,0.0,0.0,0.0,0.0,0.0,0.0,0.0,0.0,0.0,0.0,0.0,0.0,0.0,0.0,0.0,0.0,0.0,0.0,0.0,0.0,0.0,0.0,0.0,0.0,0.0,0.0,0.0,0.0,-2.3652,-2.6157,0.0,0.0,0.0,0.0,0.0,0.0,0.0,0.0,-2.741,0.0,0.0,0.0,0.0,0.0,0.0,0.0,0.0,0.0,0.0,0.0,0.0,0.0,0.0,0.0,0.0,0.0,0.0,0.0,0.0,0.0,0.0,0.0,0.0,0.0,0.0,0.0,0.0,0.0,0.0,0.0,0.0,0.0,0.0,0.0,0.0,0.0,0.0,0.0,0.0,0.0,0.0,0.0,0.0,0.0,0.0,0.0,0.0,0.0,0.0,0.0,0.0,0.0,0.0,0.0,-3.3236,-3.4195,-3.5069,-3.5879,-3.6651,-3.7211,-3.749,-3.6025,-3.4357,0.0,0.0,0.0,0.0,0.0,0.0,0.0,0.0,0.0,0.0,0.0,0.0,0.0,0.0,0.0,0.0,0.0,0.0,0.0,0.0,0.0,0.0,0.0,0.0,0.0,0.0,0.0,0.0,0.0,0.0,0.0,0.0,0.0,0.0,0.0,0.0,0.0,0.0,0.0,0.0,-2.8367,-3.1083,-3.2154,0.0,0.0,0.0,0.0,0.0,0.0,-3.1582,-3.1046,0.0,0.0,0.0,0.0,0.0,0.0,0.0,0.0,0.0,0.0,0.0,0.0,0.0,0.0,0.0,0.0,0.0,0.0,0.0,0.0,0.0,0.0,0.0,0.0,0.0,0.0,0.0,0.0,0.0,0.0,0.0,0.0,0.0,0.0,0.0,0.0,0.0,0.0,0.0,0.0,0.0,0.0,0.0,0.0,0.0,0.0,0.0,0.0,0.0,0.0,0.0,0.0,0.0,0.0,0.0,-3.3261,-3.4378,-3.5254,-3.5875,-3.6426,-3.6842,-3.7097,-3.5875,-3.4293,0.0,0.0,0.0,0.0,0.0,0.0,0.0,0.0,0.0,0.0,0.0,0.0,0.0,0.0,0.0,0.0,0.0,0.0,0.0,0.0,0.0,0.0,0.0,0.0,0.0,0.0,0.0,0.0,0.0,0.0,0.0,0.0,0.0,0.0,0.0,0.0,0.0,0.0,0.0,0.0,0.0,-3.5229,-3.6734,-3.6158,0.0,0.0,0.0,0.0,-3.5192,-3.4774,0.0,0.0,0.0,0.0,0.0,0.0,0.0,0.0,0.0,0.0,0.0,0.0,0.0,0.0,0.0,0.0,0.0,0.0,0.0,0.0,0.0,0.0,0.0,0.0,0.0,0.0,0.0,0.0,0.0,0.0,0.0,0.0,0.0,0.0,0.0,0.0,0.0,0.0,0.0,0.0,0.0,0.0,0.0,0.0,0.0,0.0,0.0,0.0,0.0,0.0,0.0,0.0,0.0,0.0,0.0,0.0,-3.3237,-3.4941,-3.5839,-3.5798,-3.5772,-3.5886,-3.6119,-3.4413,-3.2858,0.0,0.0,0.0,0.0,0.0,0.0,0.0,0.0,0.0,0.0,0.0,0.0,0.0,0.0,0.0,0.0,0.0,0.0,0.0,0.0,0.0,0.0,0.0,0.0,0.0,0.0,0.0,0.0,0.0,0.0,0.0,0.0,0.0,0.0,0.0,0.0,0.0,0.0,0.0,0.0,0.0,-3.7309,-3.8667,-3.8928,-3.8474,0.0,0.0,-3.7241,-3.7051,-3.6679,0.0,0.0,0.0,0.0,0.0,0.0,0.0,0.0,0.0,0.0,0.0,0.0,0.0,0.0,0.0,0.0,0.0,0.0,0.0,0.0,0.0,0.0,0.0,0.0,0.0,0.0,0.0,0.0,0.0,0.0,0.0,0.0,0.0,0.0,0.0,0.0,0.0,0.0,0.0,0.0,0.0,0.0,0.0,0.0,0.0,0.0,0.0,0.0,0.0,0.0,0.0,0.0,0.0,0.0,0.0,-3.2543,-3.3814,-3.523,-3.5879,-3.5759,-3.5519,-3.5565,-3.5816,-3.3991,-3.2479,0.0,0.0,0.0,0.0,0.0,0.0,0.0,0.0,0.0,0.0,0.0,0.0,0.0,0.0,0.0,0.0,0.0,0.0,0.0,0.0,0.0,0.0,0.0,0.0,0.0,0.0,0.0,0.0,0.0,0.0,0.0,0.0,0.0,0.0,0.0,0.0,0.0,0.0,0.0,0.0,0.0,0.0,-4.0992,-4.1184,0.0,0.0,0.0,-3.9295,-3.8797,0.0,0.0,0.0,0.0,0.0,0.0,0.0,0.0,0.0,0.0,0.0,0.0,0.0,0.0,0.0,0.0,0.0,0.0,0.0,0.0,0.0,0.0,0.0,0.0,0.0,0.0,0.0,0.0,0.0,0.0,0.0,0.0,0.0,0.0,0.0,0.0,0.0,0.0,0.0,0.0,0.0,0.0,0.0,0.0,0.0,0.0,0.0,0.0,0.0,0.0,0.0,0.0,0.0,0.0,0.0,0.0,0.0,-3.4147,-3.523,-3.5723,-3.5604,-3.5326,-3.5179,-3.5202,-3.3578,0.0,0.0,0.0,0.0,0.0,0.0,0.0,0.0,0.0,0.0,0.0,0.0,0.0,0.0,0.0,0.0,0.0,0.0,0.0,0.0,0.0,0.0,0.0,0.0,0.0,0.0,0.0,-0.3899,0.0,0.0,0.0,0.0,0.0,0.0,0.0,0.0,0.0,0.0,0.0,0.0,0.0,0.0,-4.039,-4.263,-4.2754,-4.2329,0.0,0.0,-4.0514,-3.9986,-3.9102,-3.793,0.0,0.0,0.0,0.0,0.0,0.0,0.0,0.0,0.0,0.0,0.0,0.0,0.0,0.0,0.0,0.0,0.0,0.0,0.0,0.0,0.0,0.0,0.0,0.0,0.0,0.0,0.0,0.0,0.0,0.0,0.0,0.0,0.0,0.0,0.0,0.0,0.0,0.0,0.0,0.0,0.0,0.0,0.0,0.0,0.0,0.0,0.0,0.0,0.0,0.0,0.0,0.0,0.0,0.0,-3.2089,-3.3794,-3.4944,-3.5452,-3.5326,-3.4993,-3.4543,-3.3926,-3.2889,-3.1254,0.0,0.0,0.0,0.0,0.0,0.0,0.0,0.0,0.0,0.0,0.0,0.0,0.0,0.0,0.0,0.0,0.0,0.0,0.0,0.0,0.0,0.0,0.0,0.0,0.0,0.0,0.0,0.0,0.0,0.0,0.0,0.0,0.0,0.0,0.0,0.0,0.0,0.0,0.0,0.0,0.0,-4.0762,-4.3067,-4.3142,-4.2734,0.0,-4.149,-4.0913,-4.0171,-3.9315,-3.8213,-3.6961,0.0,0.0,0.0,0.0,0.0,0.0,0.0,0.0,0.0,0.0,0.0,0.0,0.0,0.0,0.0,0.0,0.0,0.0,0.0,0.0,0.0,0.0,0.0,0.0,0.0,0.0,0.0,0.0,0.0,0.0,0.0,0.0,0.0,0.0,0.0,0.0,0.0,0.0,0.0,0.0,0.0,0.0,0.0,0.0,0.0,0.0,0.0,0.0,0.0,0.0,0.0,0.0,0.0,-3.2317,-3.4074,-3.4702,-3.4958,-3.4819,-3.3938,-3.3152,-3.2593,-3.1087,-2.953,0.0,0.0,0.0,0.0,0.0,0.0,0.0,0.0,0.0,0.0,0.0,0.0,0.0,0.0,0.0,0.0,0.0,0.0,0.0,0.0,0.0,0.0,0.0,0.0,0.0,0.0,0.0,0.0,-0.8304,-0.8986,-1.0053,0.0,0.0,0.0,0.0,0.0,0.0,0.0,0.0,0.0,0.0,-4.0981,-4.3155,-4.3268,0.0,0.0,-4.1666,-4.11,-4.0419,-3.9662,-3.8761,-3.7684,-3.5656,0.0,0.0,0.0,0.0,0.0,0.0,0.0,0.0,0.0,0.0,0.0,0.0,0.0,0.0,0.0,0.0,0.0,0.0,0.0,0.0,0.0,0.0,0.0,0.0,0.0,0.0,0.0,0.0,0.0,0.0,0.0,0.0,0.0,0.0,0.0,0.0,0.0,0.0,0.0,0.0,0.0,0.0,0.0,0.0,0.0,0.0,0.0,0.0,0.0,0.0,0.0,0.0,-3.2219,-3.3966,-3.4255,-3.4229,-3.3902,-3.2865,-3.192,-3.1069,-2.9592,-2.8089,0.0,0.0,0.0,0.0,0.0,0.0,0.0,0.0,0.0,0.0,0.0,0.0,0.0,0.0,0.0,0.0,0.0,0.0,0.0,0.0,0.0,0.0,0.0,0.0,0.0,0.0,0.0,0.0,-1.0664,-1.1443,-1.2648,0.0,0.0,0.0,0.0,0.0,0.0,0.0,0.0,0.0,0.0,-4.1325,-4.3103,-4.3196,-4.2844,-4.2216,-4.1622,-4.1053,-4.0517,-3.9867,-3.9152,-3.8318,0.0,0.0,0.0,0.0,0.0,0.0,0.0,0.0,0.0,0.0,0.0,0.0,0.0,0.0,0.0,0.0,0.0,0.0,0.0,0.0,0.0,0.0,0.0,0.0,0.0,0.0,0.0,0.0,0.0,0.0,-2.5585,0.0,0.0,0.0,0.0,0.0,0.0,0.0,0.0,0.0,0.0,0.0,0.0,0.0,0.0,0.0,0.0,0.0,0.0,0.0,0.0,0.0,0.0,-3.1608,-3.3187,-3.3515,-3.3275,-3.2373,-3.1924,-3.096,-2.9486,-2.8575,-2.7098,-2.4976,0.0,0.0,0.0,0.0,0.0,0.0,0.0,0.0,0.0,0.0,0.0,0.0,0.0,0.0,0.0,0.0,0.0,0.0,0.0,0.0,0.0,0.0,0.0,0.0,0.0,0.0,-1.2695,-1.3501,-1.4438,0.0,0.0,0.0,0.0,0.0,0.0,0.0,0.0,0.0,-3.8122,-4.0299,-4.1958,-4.294,-4.29,-4.2516,-4.1984,-4.1418,-4.0853,-4.0387,-3.9849,-3.9272,0.0,0.0,0.0,0.0,0.0,0.0,0.0,0.0,0.0,0.0,0.0,0.0,0.0,0.0,0.0,0.0,0.0,0.0,0.0,0.0,0.0,0.0,0.0,0.0,0.0,0.0,0.0,-3.0307,-3.0022,0.0,0.0,0.0,0.0,0.0,0.0,0.0,0.0,0.0,0.0,0.0,-3.3192,-3.2641,0.0,0.0,0.0,0.0,0.0,0.0,0.0,0.0,0.0,0.0,0.0,0.0,-3.1319,-3.226,-3.1945,-3.1618,-3.1271,-2.9869,-2.8664,-2.7743,-2.6422,-2.4583,-2.2189,0.0,0.0,0.0,0.0,0.0,0.0,0.0,0.0,0.0,0.0,0.0,0.0,0.0,0.0,0.0,0.0,0.0,0.0,0.0,0.0,0.0,0.0,0.0,0.0,0.0,-1.5127,0.0,0.0,0.0,0.0,0.0,0.0,0.0,0.0,0.0,0.0,0.0,-3.6375,-3.9511,-4.078,-4.1749,-4.2619,-4.2512,-4.2127,0.0,0.0,0.0,0.0,0.0,0.0,0.0,0.0,0.0,0.0,0.0,0.0,0.0,0.0,-3.2334,-3.1074,-3.0457,-2.9934,-2.9315,0.0,0.0,0.0,0.0,0.0,0.0,0.0,0.0,0.0,0.0,0.0,0.0,0.0,0.0,-3.1697,0.0,-3.0142,0.0,0.0,0.0,0.0,0.0,0.0,0.0,0.0,-3.467,-3.4118,-3.4048,-3.3584,-3.273,0.0,-3.0925,-2.9871,0.0,0.0,0.0,0.0,0.0,0.0,0.0,0.0,-3.0807,-3.137,-3.0779,-3.0246,-2.9883,-2.8245,-2.6949,-2.6008,-2.4234,-2.24,-2.0406,-1.8984,-1.7731,0.0,0.0,0.0,0.0,0.0,0.0,0.0,0.0,0.0,0.0,0.0,0.0,0.0,0.0,0.0,0.0,0.0,0.0,0.0,0.0,0.0,0.0,0.0,-1.8655,0.0,0.0,0.0,0.0,0.0,0.0,0.0,0.0,0.0,-3.2741,-3.5299,-3.7916,-4.0131,-4.1002,-4.164,-4.2198,0.0,0.0,0.0,0.0,0.0,0.0,0.0,-3.9202,-3.8805,-3.823,-3.7594,-3.6937,-3.6189,-3.5659,-3.5751,0.0,0.0,-3.3068,-3.2362,-3.183,-3.1101,-3.0996,-3.1071,-3.1455,-3.1717,-3.2136,0.0,0.0,0.0,0.0,0.0,0.0,0.0,0.0,-3.2254,-3.2421,0.0,-3.1812,0.0,0.0,0.0,0.0,0.0,-3.0418,0.0,0.0,-3.5658,-3.5705,-3.4747,-3.4235,-3.3366,-3.2212,-3.1681,-3.06,-2.9095,-2.8814,0.0,0.0,0.0,0.0,0.0,0.0,-3.0091,-3.051,-2.9905,-2.917,-2.8274,-2.712,-2.579,-2.423,-2.2158,-2.0627,-1.9673,-1.8174,-1.6968,-1.6104,-1.4864,0.0,0.0,0.0,0.0,0.0,0.0,0.0,0.0,0.0,0.0,0.0,0.0,0.0,0.0,0.0,0.0,0.0,0.0,0.0,0.0,-2.0312,0.0,0.0,0.0,0.0,0.0,0.0,0.0,0.0,0.0,0.0,-3.4355,-3.6969,-3.9208,-4.0023,0.0,0.0,0.0,0.0,-4.1237,-4.0849,-4.0517,-4.0205,-3.9901,-3.9345,-3.8805,-3.8327,0.0,0.0,-3.6399,-3.628,-3.6253,-3.5937,-3.6186,-3.6086,-3.4729,-3.3737,-3.2907,-3.225,-3.1909,-3.2055,-3.2561,-3.2818,-3.3157,-3.6528,0.0,0.0,0.0,0.0,-3.2732,-3.2599,-3.3106,-3.3017,-3.277,-3.2407,-3.1558,0.0,0.0,0.0,0.0,0.0,0.0,-3.1883,-3.2859,-3.3888,-3.4222,-3.4059,-3.3547,-3.2653,-3.1449,-3.0982,-3.0066,-2.8719,-2.8432,-2.8379,-2.8349,0.0,0.0,0.0,0.0,-2.9225,-2.9432,-2.8276,-2.747,-2.7185,-2.5623,-2.3956,-2.2193,-2.063,-1.9369,-1.8452,-1.7551,-1.6595,-1.5526,-1.4569,0.0,0.0,0.0,0.0,0.0,0.0,0.0,0.0,0.0,0.0,0.0,0.0,0.0,0.0,0.0,0.0,0.0,0.0,0.0,-2.1849,-2.4118,-2.5253,0.0,0.0,0.0,0.0,0.0,0.0,0.0,0.0,0.0,-3.6063,-3.7645,-3.9171,0.0,0.0,-4.0908,-4.0879,-4.0741,-4.0517,-4.032,-4.0087,0.0,-3.9309,-3.8843,-3.8343,-3.787,-3.7314,-3.6662,-3.6163,-3.5982,-3.5944,-3.6075,-3.6109,-3.5868,-3.5365,-3.4683,-3.3814,-3.2999,-3.2561,-3.2561,-3.2846,-3.3143,-3.3521,-3.6921,-3.569,-3.451,-3.4151,-3.4272,-3.3371,-3.3313,-3.3691,-3.3368,-3.2986,-3.2547,-3.1693,-3.1054,-3.0554,-2.961,0.0,0.0,0.0,-3.119,-3.1249,-3.1485,-3.2065,-3.2763,-3.222,-3.1185,-2.9896,-2.9505,-2.873,-2.7574,-2.735,-2.7487,-2.7778,0.0,0.0,-2.8435,-2.8308,-2.8213,-2.8218,-2.7053,-2.6238,-2.5843,-2.3849,-2.2192,-2.0809,-1.9357,-1.8339,-1.7725,-1.6808,-1.5889,-1.5089,-1.4085,-1.3169,0.0,0.0,0.0,0.0,0.0,0.0,0.0,0.0,0.0,0.0,0.0,-0.8841,-0.997,0.0,0.0,0.0,-1.7482,-2.123,-2.4562,-2.6024,0.0,0.0,0.0,0.0,0.0,0.0,0.0,-3.3284,-3.4896,-3.6117,-3.6753,-3.763,-3.8659,-3.9868,-4.0086,-4.0136,-4.0103,0.0,-3.9497,-3.9379,-3.8872,-3.8377,-3.799,-3.7501,-3.6981,-3.6346,-3.5766,-3.5385,-3.5137,-3.4934,-3.4816,-3.5011,-3.503,-3.4926,-3.4709,-3.428,-3.3875,-3.3368,-3.2988,-3.2846,-3.2988,-3.3213,-3.3452,-3.646,-3.5792,-3.4337,-3.3584,-3.3261,-3.2866,-3.3306,-3.4243,-3.3378,-3.2998,-3.3026,-3.2143,-3.1424,-3.0851,-2.996,0.0,-3.0012,-3.0211,-3.0154,-2.9856,-2.8933,-2.9425,-3.105,-3.0276,-2.9205,-2.7845,-2.7583,-2.6925,-2.6047,-2.5883,-2.5994,-2.6445,-2.6775,-2.7032,-2.7107,-2.7297,-2.7205,-2.6877,-2.6042,-2.5227,-2.4296,-2.2062,-2.0552,-1.9906,-1.8407,-1.7553,-1.7335,-1.5944,-1.5084,-1.4827,-1.3537,-1.2466,-1.1817,0.0,0.0,0.0,0.0,0.0,0.0,0.0,0.0,0.0,0.0,0.0,0.0,0.0,0.0,-1.7232,-2.1026,0.0,-2.5895,-2.6592,0.0,0.0,0.0,-3.0079,-3.1453,-3.2582,-3.347,-3.4169,0.0,0.0,-3.663,-3.7008,-3.7642,-3.8701,-3.9056,-3.9179,-3.9146,-3.86,-3.8166,-3.8027,-3.7258,-3.6555,-3.6367,-3.5792,-3.5117,-3.4434,-3.3925,-3.3834,-3.3788,-3.3528,-3.3312,-3.3339,-3.3441,-3.3434,-3.3105,-3.3093,-3.3143,-3.3185,-3.3059,-3.2917,-3.2917,-3.2917,-3.303,-3.4968,-3.3201,-3.3005,-3.3342,-3.3918,-3.2945,-3.2811,-3.3126,-3.2766,-3.236,-3.1895,-3.1556,-3.0911,-3.0054,-2.9463,-2.9121,-2.8925,-2.8408,-2.8085,-2.7889,-2.7235,-2.7468,-2.8426,-2.7792,-2.7121,-2.6569,-2.6245,-2.579,-2.5345,-2.4996,-2.4839,-2.4935,-2.4957,-2.5658,-2.694,-2.637,-2.6025,-2.5929,-2.4805,-2.3696,-2.2583,-2.1129,-1.988,-1.8955,-1.8301,-1.7455,-1.6298,-1.5904,-1.5293,-1.4373,-1.3199,-1.2297,-1.1685,-1.0995,0.0,0.0,0.0,0.0,0.0,0.0,0.0,0.0,0.0,-1.152,-1.291,0.0,-1.6426,0.0,-2.2384,-2.5216,-2.5887,-2.7047,0.0,0.0,-3.0095,-3.117,-3.2075,-3.3036,-3.3883,-3.4501,-3.508,-3.5364,-3.523,-3.5416,-3.5566,-3.5671,-3.6718,-3.7323,-3.6966,-3.6755,-3.6625,-3.6539,-3.6201,-3.5883,-3.5403,-3.4836,-3.4132,-3.3728,-3.3484,-3.3391,-3.3223,-3.3051,-3.2864,-3.2737,-3.2507,-3.227,-3.1957,-3.1699,-3.1391,-3.1103,-3.1689,-3.2345,-3.2273,-3.2403,-3.2494,-3.321,-3.1792,-3.1585,-3.1827,-3.2194,-3.209,-3.2092,-3.2191,-3.1777,-3.1066,-3.0238,-3.0,-2.9521,-2.8745,-2.8147,-2.7931,-2.8026,-2.7225,-2.6414,-2.5659,-2.5422,-2.5746,-2.6526,-2.5807,-2.5329,-2.4979,-2.4735,-2.4489,-2.4229,-2.3986,-2.3908,-2.3968,-2.3748,-2.4169,-2.523,-2.5129,-2.4841,-2.4354,-2.3196,-2.2173,-2.1396,-2.0399,-1.9426,-1.8639,-1.7945,-1.7143,-1.6173,-1.5698,-1.508,-1.4195,-1.3139,-1.2236,-1.1685,-1.1052,-1.0759,0.0,0.0,0.0,0.0,0.0,0.0,0.0,0.0,0.0,0.0,0.0,-1.8007,-2.0413,-2.3292,-2.535,-2.6283,-2.7209,-2.813,-2.8988,-3.0115,-3.1211,-3.2054,-3.2918,-3.3518,-3.3806,-3.4016,-3.4002,-3.3564,-3.3728,-3.3739,-3.3261,-3.4143,-3.507,-3.5514,-3.537,-3.5036,-3.4733,-3.4238,-3.3637,-3.2912,-3.2292,-3.1792,-3.15,-3.1324,-3.119,-3.1116,-3.0937,-3.0797,-3.0888,-3.0785,-3.067,-3.053,-3.0459,-3.0213,-2.9864,-3.009,-3.0572,-3.0828,-3.1114,-3.1258,-3.1454,-3.0809,-3.0315,-2.9848,-2.9614,-3.0627,-3.1144,-3.1157,-3.0563,-2.9703,-2.858,-2.8254,-2.785,-2.7367,-2.6587,-2.6556,-2.705,-2.6268,-2.5019,-2.3552,-2.3808,-2.4262,-2.4794,-2.4131,-2.3619,-2.3352,-2.3234,-2.3056,-2.2924,-2.2924,-2.2997,-2.3162,-2.2796,-2.2742,-2.2946,-2.3608,-2.3494,-2.2537,-2.1596,-2.0921,-2.056,-1.9832,-1.9169,-1.8559,-1.7609,-1.6866,-1.6363,-1.5471,-1.4725,-1.4186,-1.3078,-1.2297,-1.1872,-1.1178,-1.1022,0.0,-1.1492,0.0,0.0,0.0,0.0,0.0,0.0,0.0,0.0,-1.7279,-1.9515,-2.2763,-2.3817,-2.5011,-2.6516,-2.7059,-2.7835,-2.8973,-2.9659,-3.0432,-3.1502,-3.2235,-3.2556,-3.2422,-3.2553,-3.2378,-3.1832,-3.1976,-3.1922,-3.1337,-3.1571,-3.2377,-3.369,-3.3681,-3.3224,-3.2687,-3.1889,-3.1121,-3.0165,-2.952,-2.9189,-2.8893,-2.8882,-2.8623,-2.8654,-2.8484,-2.8324,-2.8598,-2.8691,-2.8721,-2.8731,-2.8904,-2.8891,-2.8555,-2.8486,-2.8666,-2.9229,-2.9666,-2.9758,-3.0334,-2.9185,-2.9335,-2.8855,-2.806,-2.8696,-2.9134,-2.9387,-2.9575,-2.9186,-2.8467,-2.8054,-2.7426,-2.6782,-2.6158,-2.5608,-2.514,-2.4745,-2.3984,-2.2883,-2.2961,-2.2954,-2.2747,-2.2352,-2.212,-2.2076,-2.1908,-2.1864,-2.1794,-2.1794,-2.1794,-2.1864,-2.1906,-2.1708,-2.1342,0.0,0.0,0.0,-2.0762,-2.0472,-2.0271,-1.9915,-1.9244,-1.8331,-1.8037,0.0,-1.6149,-1.5598,-1.4974,-1.424,-1.3094,0.0,0.0,0.0,0.0,0.0,0.0,0.0,0.0,0.0,0.0,0.0,-1.5559,-1.6035,-1.6645,-1.8536,-2.0366,-2.2032,-2.3372,-2.4514,-2.5384,-2.653,-2.7546,-2.8294,-2.8203,-2.8562,-2.9824,-3.0427,-3.0774,-3.0856,-3.0979,-3.096,-3.0466,-3.0434,-3.0143,-2.9379,-2.9348,-2.9475,-2.9767,-3.0773,-3.1298,-3.1116,-3.0307,-2.956,-2.9123,-2.8761,-2.8367,-2.8254,-2.814,-2.8039,-2.7766,-2.7605,-2.728,-2.7113,-2.6979,-2.6778,-2.6422,-2.6309,-2.6531,-2.6483,-2.6794,-2.7449,-2.8556,-2.8898,-2.8821,-2.9051,0.0,-2.8082,-2.7709,0.0,-2.7339,-2.7327,-2.7151,-2.7543,-2.7176,-2.6286,-2.5798,-2.5244,-2.4607,-2.4157,-2.3793,-2.3484,-2.3039,-2.246,-2.1831,-2.2034,-2.2038,-2.1869,-2.1703,-2.1605,-2.1592,-2.1437,-2.1381,-2.1381,-2.1338,-2.1281,-2.1281,-2.1051,-2.0832,-2.0557,-2.0112,-1.9889,-1.9995,-1.9528,-1.9381,-1.9409,-1.9207,-1.8836,-1.8265,-1.8086,0.0,0.0,0.0,0.0,0.0,0.0,0.0,0.0,0.0,0.0,-1.1983,-1.2371,-1.2883,-1.3633,-1.4188,-1.4784,-1.5426,-1.6263,-1.7028,-1.7765,-1.9166,-2.0531,-2.1824,-2.2781,-2.3765,-2.4909,-2.5737,-2.6468,-2.7125,-2.7037,-2.7405,-2.8433,-2.9052,-2.9302,-2.9302,-2.9331,-2.916,-2.8473,-2.8417,-2.818,-2.7551,-2.763,-2.7774,-2.7818,-2.8799,-2.9551,-2.9197,-2.8334,-2.7599,-2.7406,-2.7087,-2.6821,-2.6651,-2.6537,-2.6365,-2.6249,-2.6004,-2.5778,-2.5761,-2.5673,-2.552,-2.5662,-2.5485,-2.5307,-2.5124,-2.5451,-2.5908,-2.6714,-2.7399,-2.7888,-2.7886,-2.7272,-2.6947,-2.6678,-2.6359,-2.6213,-2.5697,-2.4926,0.0,0.0,0.0,-2.3437,-2.2897,-2.2456,-2.2102,-2.2082,-2.2197,-2.1724,-2.1244,-2.0866,-2.1237,-2.128,-2.1137,-2.1179,-2.1137,-2.1137,-2.0983,-2.0927,-2.0927,-2.0772,-2.0673,-2.0636,-2.0208,-1.986,-1.9768,-1.8765,-1.8425,-1.8694,-1.8307,-1.82,-1.8362,-1.82,-1.81,-1.7894,-1.7583,-1.7093,-1.6273,-1.5666,-1.4896,-1.3963,-1.3287,-1.272,-1.212,-1.1755,-1.1636,-1.1891,-1.2351,-1.2856,-1.34,-1.4073,-1.472,-1.5426,-1.6394,-1.751,-1.8607,-1.932,-2.0205,-2.1547,-2.2043,-2.2911,-2.4273,-2.4713,-2.5124,-2.5704,-2.5787,-2.6054,-2.6791,-2.7417,-2.757,-2.7434,-2.7361,-2.7159,-2.6479,-2.6453,-2.6319,-2.6008,-2.6182,-2.6424,-2.6494,-2.7311,-2.7924,-2.7267,-2.6536,-2.5921,-2.5535,-2.526,-2.4871,-2.4762,-2.4525,-2.4356,-2.43,-2.4116,-2.4058,-2.4223,-2.4227,-2.4365,-2.4921,-2.4645,-2.4457,-2.4188,-2.4313,-2.4591,-2.4791,-2.582,-2.6546,-2.7162,-2.6621,-2.6291,-2.5922,-2.553,-2.5291,-2.4491,-2.3371,-2.4035,-2.4007,-2.3385,-2.2897,-2.2469,-2.2047,-2.1882,-2.1716,-2.1643,-2.1562,-2.1217,-2.0752,-2.0778,-2.0461,-1.9905,-1.9895,-1.9803,-1.9695,-1.9536,-1.9523,-1.947,-1.9239,-1.9132,-1.9132,-1.8929,-1.8655,-1.8247,-1.7412,-1.694,-1.6906,-1.7471,-1.7702,-1.7471,-1.7262,-1.6877,-1.6401,-1.5918,-1.5437,-1.4907,-1.4511,-1.407,-1.3496,-1.304,-1.2613,-1.212,-1.1608,-1.1383,-1.1551,-1.1818,-1.2182,-1.2683,-1.3362,-1.4237,-1.5384,-1.5912,-1.6802,-1.8192,-1.8865,-1.9428,-2.0085,-2.0974,-2.1752,-2.241,-2.3356,-2.4013,-2.3989,-2.3621,-2.3676,-2.4378,-2.4621,-2.4829,-2.4809,-2.4806,-2.4975,-2.4971,-2.4895,-2.4874,-2.4779,-2.4745,-2.4653,-2.4452,-2.5529,-2.63,-2.5814,-2.5383,-2.4886,-2.434,-2.3943,-2.3561,-2.288,-2.2839,-2.2795,-2.2698,-2.2643,-2.2502,-2.2265,-2.2293,-2.2426,-2.2791,-2.2639,-2.2882,-2.3319,-2.3553,-2.3688,-2.4057,-2.4513,-2.4843,-2.6383,-2.5823,-2.5484,-2.5122,-2.4707,-2.3511,-2.2508,-2.169,-2.1527,-2.164,-2.1907,-2.1472,-2.1172,-2.0909,-2.0724,-2.0618,-2.0577,-2.0482,-2.0332,-2.012,-1.9936,-1.9682,-1.942,-1.9319,-1.9174,-1.9052,-1.8946,-1.8762,-1.859,-1.8387,-1.829,-1.8213,-1.7917,-1.7376,-1.6665,-1.6228,-1.5822,-1.5429,-1.6056,-1.6409,-1.6416,-1.609,-1.5808,-1.565,-1.5226,-1.4714,-1.4174,-1.3708,-1.32,-1.2637,-1.2183,-1.1685,-1.1331,-1.0862,-1.0625,-1.0711,-1.0961,-1.1325,-1.1639,-1.2505,-1.3408,-1.4259,-1.4602,-1.53,-1.6532,-1.7707,-1.8586,-1.9198,-1.9796,-2.0488,-2.1263,-2.1856,-2.2386,-2.2977,-2.2229,-2.216,-2.2975,-2.3246,-2.338,-2.3459,-2.3592,-2.3616,-2.347,-2.3551,-2.3484,-2.3306,-2.324,-2.2984,-2.2424,-2.3033,-2.3758,-2.385,-2.3755,-2.3442,-2.2957,-2.2698,-2.2415,-2.1979,-2.1788,-2.169,-2.1592,-2.1524,-2.1412,-2.1313,-2.1313,-2.1331,-2.1371,-2.1375,-2.1562,-2.1402,-2.1849,-2.2116,-2.2566,-2.2931,-2.3484,-2.5096,-2.4556,-2.4172,-2.3837,-2.3256,-2.1648,-2.0702,-2.0192,-1.9409,-1.9514,-2.009,-1.9935,-1.9711,-1.956,-1.9447,-1.9459,-1.9546,-1.9294,-1.9216,-1.9263,-1.8934,-1.8718,-1.8678,-1.8517,-1.8424,-1.8272,-1.8131,-1.7908,-1.7588,-1.745,-1.7299,-1.707,-1.6649,-1.603,-1.53,-1.5178,-1.484,-1.4337,-1.4617,-1.4946,-1.5255,-1.486,-1.469,-1.4645,-1.4244,-1.3766,-1.324,-1.2744,-1.2252,-1.1773,-1.1287,-1.0872,-1.0473,-1.0084,-0.9853,-0.9843,-1.0046,-1.0352,-1.0681,-1.1537,-1.235,-1.29,-1.3235,-1.3814,-1.4774,-1.6088,-1.7328,-1.823,-1.8674,-1.9277,-2.002,-2.0374,-2.0795,-2.1575,-2.1048,-2.095,-2.1823,-2.2026,-2.2093,-2.2306,-2.2306,-2.2255,-2.2097,-2.2174,-2.2155,-2.2003,-2.1691,-2.1313,-2.0964,-2.0791,-2.1037,-2.1537,-2.1908,-2.1941,-2.1631,-2.1415,-2.123,-2.0964,-2.0668,-2.0496,-2.0465,-2.0402,-2.037,-2.0297,-2.0402,-2.0382,-2.0237,-2.0322,-2.0361,-2.018,-2.0392,-2.0628,-2.1021,-2.1367,-2.2111,-2.2914,-2.2291,-2.2034,-2.1374,-2.0783,-2.0136,-1.9638,-1.9277,-1.8845,-1.8546,-1.8434,-1.8519,-1.8497,-1.8355,-1.8271,-1.8485,-1.8809,-1.8179,-1.808,-1.8321,-1.7772,-1.7322,-1.7132,-1.6979,-1.6831,-1.6734,-1.6514,-1.6356,-1.6144,-1.5897,-1.5615,-1.5321,-1.494,-1.4736,-1.4528,-1.4179,-1.3852,-1.3668,-1.3351,-1.3457,-1.3926,-1.3614,-1.3153,-1.2654,-1.2236,-1.1826,-1.1575,-1.1267,-1.1056,-1.0934,-1.0755,-1.053,-1.007,-0.9724,-0.9369,-0.9072,-0.9023,-0.9259,-0.9901,-1.0283,-1.0783,-1.1607,-1.2116,-1.2684,-1.3372,-1.407,-1.5239,-1.6656,-1.7658,-1.8124,-1.8299,-1.9044,-1.9509,-1.9628,-1.973,-1.9876,-1.9974,-2.0063,-2.0194,-2.0183,-2.0391,-2.0401,-2.0618,-2.0778,-2.0882,-2.0956,-2.0334,-1.982,-1.9662,-1.9297,-1.9017,-1.9318,-2.0055,-2.0643,-2.0373,-2.0074,-1.9806,-1.927,-1.9084,-1.9048,-1.8986,-1.8951,-1.8844,-1.905,-1.8939,-1.9093,-1.9309,-1.9418,-1.9434,-1.9529,-1.9634,-1.976,-1.9877,-2.0004,-2.0661,-2.2452,-2.1955,-2.1585,-2.092,-2.0043,-1.9209,-1.8667,-1.8299,-1.7651,-1.7244,-1.7032,-1.6885,-1.7242,-1.7894,-1.7858,-1.7885,-1.7995,-1.7545,-1.7361,-1.744,-1.6953,-1.6562,-1.6311,-1.6187,-1.6034,-1.5815,-1.5658,-1.5504,-1.5226,-1.4976,-1.4686,-1.4276,-1.4023,-1.3771,-1.3461,-1.3242,-1.2997,-1.2706,-1.255,-1.2452,-1.2335,-1.2491,-1.2363,-1.1968,-1.146,-1.1006,-1.0667,-1.0322,-1.0076,-0.9879,-0.9688,-0.9432,-0.9048,-0.8656,-0.8312,-0.804,-0.7966,-0.8142,-0.872,-0.9013,-0.9442,-1.0053,-1.0536,-1.1152,-1.1867,-1.2469,-1.3349,-1.4443,-1.5816,-1.6862,-1.7267,-1.7901,-1.8329,-1.8395,-1.8489,-1.8593,-1.9065,-1.8968,-1.9026,-1.9323,-1.9209,-1.9221,-1.9532,-1.9727,-1.9747,-1.9686,-1.9171,-1.8748,-1.8428,-1.8132,-1.7931,-1.7888,-1.8339,-1.8788,-1.8979,-1.892,-1.8651,-1.836,-1.8127,-1.8018,-1.7952,-1.7952,-1.7975,-1.7952,-1.8007,-1.8052,-1.8214,-1.8215,-1.8261,-1.8487,-1.8666,-1.872,-1.8661,-1.8977,-1.9501,-2.1642,-2.1188,-2.064,-1.9935,-1.9173,-1.8256,-1.7683,-1.7383,-1.6641,-1.6262,-1.6013,-1.578,-1.6109,-1.6824,-1.6991,-1.7051,-1.7015,-1.6607,-1.6414,-1.6299,-1.5874,-1.5499,-1.5289,-1.515,-1.4959,-1.4818,-1.4685,-1.4542,-1.4255,-1.3945,-1.3665,-1.334,-1.3169,-1.2874,-1.2508,-1.2382,-1.2175,-1.1868,-1.1719,-1.141,-1.1091,-1.1206,-1.1306,-1.125,-1.0702,-1.0285,-0.9984,-0.9562,-0.9256,-0.9106,-0.8738,-0.8474,-0.8209,-0.7729,-0.73,-0.6977,-0.6965,-0.71,-0.7438,-0.7789,-0.816,-0.8665,-0.908,-0.9605,-1.0425,-1.1067,-1.1645,-1.2432,-1.3844,-1.5074,-1.5996,-1.6788,-1.7147,-1.7159,-1.6949,-1.7216,-1.7787,-1.7735,-1.7815,-1.8283,-1.8104,-1.8107,-1.8482,-1.8702,-1.8794,-1.8512,-1.8123,-1.7796,-1.7344,-1.72,-1.7078,-1.6909,-1.6909,-1.7211,-1.7865,-1.7943,-1.7788,-1.7567,-1.7357,-1.7245,-1.7179,-1.719,-1.719,-1.7179,-1.7279,-1.7301,-1.7266,-1.7188,-1.7166,-1.7097,-1.7256,-1.7561,-1.747,-1.7873,-1.8013,-1.9858,-1.9249,-1.8349,-1.7882,-1.7483,-1.7012,-1.6688,-1.6566,-1.6188,-1.5856,-1.5591,-1.54,-1.5119,-1.4958,-1.5292,-1.5603,-1.5844,-1.5219,-1.4982,-1.5039,-1.4462,-1.4,-1.372,-1.3577,-1.3501,-1.3593,-1.3506,-1.3292,-1.2998,-1.2615,-1.237,-1.237,-1.214,-1.2004,-1.1877,-1.1569,-1.1368,-1.1267,-1.0804,-1.0379,-1.0171,-0.9657,-0.9665,-1.0054,-0.9718,-0.9436,-0.9347,-0.8942,-0.8685,-0.8811,-0.8256,-0.7871,-0.767,-0.7192,-0.6657,-0.6168,-0.6064,-0.6161,-0.6449,-0.674,-0.707,-0.7472,-0.7844,-0.8297,-0.9069,-0.9737,-1.0418,-1.1093,-1.1875,-1.2826,-1.3973,-1.5305,-1.5803,-1.5173,-1.5207,-1.5476,-1.5919,-1.6305,-1.644,-1.6709,-1.6836,-1.71,-1.7385,-1.7727,-1.7669,-1.7336,-1.6821,-1.6452,-1.6545,-1.6332,-1.6161,-1.6104,-1.6114,-1.6306,-1.7231,-1.7166,-1.6899,-1.6729,-1.6673,-1.656,-1.6457,-1.6353,-1.6343,-1.6343,-1.64,-1.6389,-1.6343,-1.6353,-1.641,-1.6374,-1.6374,-1.642,-1.6413,-1.6378,-1.6502,-1.9391,-1.8563,-1.7908,-1.7406,-1.7044,-1.6637,-1.6293,-1.6044,-1.5724,-1.54,-1.513,-1.4766,-1.4455,-1.4244,-1.4233,-1.4414,-1.4733,-1.4356,-1.4131,-1.4079,-1.3778,-1.3488,-1.3306,-1.32,-1.3104,-1.2958,-1.291,-1.2715,-1.2372,-1.2085,-1.1819,-1.1678,-1.1477,-1.1326,-1.1124,-1.0863,-1.0608,-1.0336,-1.0028,-0.9621,-0.9062,-0.8634,-0.841,-0.8371,-0.8561,-0.8555,-0.851,-0.826,-0.815,-0.8221,-0.7777,-0.7402,-0.7144,-0.649,-0.5896,-0.5454,-0.5454,-0.5483,-0.5609,-0.5888,-0.6213,-0.6581,-0.6939,-0.7379,-0.7935,-0.8628,-0.9256,-0.9762,-1.0303,-1.0972,-1.1725,-1.3223,-1.4181,-1.4098,-1.3581,-1.3794,-1.4806,-1.515,-1.5269,-1.5743,-1.6019,-1.6275,-1.6331,-1.6377,-1.6274,-1.6166,-1.5753,-1.5517,-1.5468,-1.541,-1.5303,-1.5294,-1.5294,-1.5362,-1.5624,-1.6019,-1.6046,-1.5989,-1.5874,-1.5816,-1.57,-1.57,-1.57,-1.5642,-1.5642,-1.571,-1.571,-1.5768,-1.5768,-1.571,-1.5642,-1.5584,-1.5517,-1.5526,-1.5468,-1.8869,-1.8068,-1.7516,-1.7073,-1.668,-1.6281,-1.5888,-1.5603,-1.522,-1.4903,-1.4628,-1.4222,-1.3952,-1.3763,-1.3525,-1.3573,-1.381,-1.3726,-1.3573,-1.344,-1.3334,-1.32,-1.2978,-1.2978,-1.2832,-1.2578,-1.2372,-1.2126,-1.1828,-1.1528,-1.1276,-1.1015,-1.082,-1.0659,-1.0403,-1.0138,-0.988,-0.9614,-0.9354,-0.8844,-0.8169,-0.7741,-0.7322,-0.6937,-0.7134,-0.7425,-0.7617,-0.7568,-0.7547,-0.7506,-0.7197,-0.6815,-0.6391,-0.5782,-0.5234,-0.5014,-0.4963,-0.4963,-0.4971,-0.529,-0.5523,-0.5758,-0.6028,-0.642,-0.6969,-0.7524,-0.7996,-0.8482,-0.8992,-0.9397,-0.9863,-1.1043,-1.2204,-1.2641,-1.2217,-1.2382,-1.371,-1.3861,-1.4096,-1.4612,-1.4845,-1.507,-1.5195,-1.4958,-1.4943,-1.5074,-1.4763,-1.4616,-1.4597,-1.4597,-1.4538,-1.4538,-1.4469,-1.441,-1.4538,-1.4746,-1.5002,-1.5002,-1.5051,-1.5012,-1.4934,-1.4944,-1.4934,-1.4963,-1.4982,-1.5059,-1.5118,-1.5118,-1.505,-1.4972,-1.4942,-1.4883,-1.4765,-1.4647,-1.4678,-1.8068,-1.7625,-1.7128,-1.6693,-1.6281,-1.58,-1.549,-1.522,-1.4731,-1.4362,-1.4129,-1.3752,-1.3515,-1.3382,-1.322,-1.3133,-1.321,-1.3296,-1.3286,-1.3123,-1.3075,-1.2978,-1.2686,-1.2676,-1.2529,-1.2215,-1.1728,-1.1418,-1.1267,-1.0922,-1.0608,-1.0403,-1.0146,-0.9991,-0.9814,-0.9465,-0.9211,-0.9106,-0.8685,-0.8163,-0.7595,-0.6947,-0.6367,-0.5774,-0.5662,-0.5992,-0.6786,-0.6801,-0.6781,-0.6746,-0.6516,-0.605,-0.5454,-0.5069,-0.4849,-0.4743,-0.4691,-0.4688,-0.4743,-0.486,-0.4986,-0.5156,-0.5148,-0.5462,-0.6046,-0.6395,-0.6774,-0.7429,-0.7878,-0.8269,-0.8483,-0.9178,-1.0072,-1.0891,-1.1115,-1.15,-1.2181,-1.246,-1.2744,-1.3283,-1.3492,-1.358,-1.3709,-1.3744,-1.3735,-1.3942,-1.3976,-1.3941,-1.3881,-1.3821,-1.3769,-1.3726,-1.3596,-1.3476,-1.3477,-1.3537,-1.3793,-1.3996,-1.4114,-1.4173,-1.4024,-1.3947,-1.3879,-1.3821,-1.3861,-1.3938,-1.4045,-1.4054,-1.4114,-1.4083,-1.4055,-1.4058,-1.3983,-1.3846,-1.3784,-1.7625,-1.716,-1.6697,-1.6238,-1.58,-1.5412,-1.5051,-1.4651,-1.4176,-1.3894,-1.361,-1.3344,-1.321,-1.3162,-1.3027,-1.2988,-1.2978,-1.292,-1.2871,-1.2822,-1.2832,-1.2686,-1.248,-1.2332,-1.2026,-1.1569,-1.1015,-1.0651,-1.0506,-1.0249,-0.9976,-0.9725,-0.9629,-0.9472,-0.9263,-0.9008,-0.8804,-0.848,-0.8096,-0.7524,-0.6729,-0.6319,-0.5761,-0.5018,-0.4848,-0.4929,-0.5129,-0.5692,-0.6027,-0.6037,-0.5784,-0.5428,-0.4992,-0.4798,-0.4684,-0.4574,-0.4574,-0.4574,-0.4574,-0.4625,-0.4684,-0.4798,-0.4853,-0.4982,-0.5382,-0.5714,-0.6143,-0.6648,-0.6997,-0.7244,-0.7502,-0.7841,-0.864,-1.0053,-1.0281,-1.0647,-1.1365,-1.1802,-1.2112,-1.2351,-1.2597,-1.272,-1.2781,-1.2749,-1.2785,-1.2907,-1.2923,-1.2923,-1.294,-1.289,-1.2849,-1.2685,-1.2576,-1.2478,-1.2354,-1.2321,-1.2422,-1.2697,-1.2948,-1.3117,-1.3024,-1.2906,-1.2804,-1.2753,-1.2802,-1.2843,-1.2949,-1.3041,-1.3029,-1.299,-1.2898,-1.2915,-1.3055,-1.2953,-1.2847,-1.7393,-1.6909,-1.6228,-1.5684,-1.5183,-1.4681,-1.4272,-1.3952,-1.3605,-1.3371,-1.3266,-1.3113,-1.3027,-1.2978,-1.2881,-1.2832,-1.2832,-1.2637,-1.248,-1.2431,-1.248,-1.2323,-1.2126,-1.1728,-1.1368,-1.0863,-1.0352,-1.0035,-0.988,-0.9621,-0.9413,-0.9211,-0.9106,-0.8896,-0.8692,-0.848,-0.8215,-0.7949,-0.7616,-0.701,-0.6235,-0.5849,-0.5353,-0.4599,-0.4408,-0.428,-0.4204,-0.4726,-0.5069,-0.5171,-0.5086,-0.4861,-0.4649,-0.4597,-0.4574,-0.4519,-0.4463,-0.4519,-0.4463,-0.4519,-0.4519,-0.4632,-0.4632,-0.4743,-0.4927,-0.5241,-0.551,-0.588,-0.6084,-0.6311,-0.6556,-0.6868,-0.7562,-0.8488,-0.9176,-0.9794,-1.0571,-1.1052,-1.1365,-1.1545,-1.1732,-1.175,-1.1714,-1.1745,-1.1738,-1.1722,-1.1676,-1.1668,-1.1676,-1.1653,-1.1583,-1.1549,-1.1503,-1.1387,-1.1241,-1.121,-1.1138,-1.1402,-1.1676,-1.1847,-1.192,-1.1799,-1.1662,-1.1727,-1.1784,-1.1784,-1.1825,-1.1922,-1.1979,-1.1864,-1.1747,-1.1834,-1.187,-1.178,-1.1662,-1.7162,-1.6722,-1.5732,-1.5066,-1.4556,-1.3731,-1.3378,-1.3242,-1.2979,-1.2913,-1.3054,-1.2978,-1.2881,-1.2881,-1.2735,-1.2676,-1.2627,-1.2382,-1.2076,-1.1918,-1.1918,-1.1819,-1.1569,-1.1023,-1.0557,-1.0146,-0.9777,-0.9517,-0.9361,-0.9106,-0.891,-0.8692,-0.8527,-0.8321,-0.8109,-0.7836,-0.7676,-0.7467,-0.7192,-0.665,-0.5908,-0.5609,-0.5087,-0.4365,-0.416,-0.4016,-0.3932,-0.401,-0.4123,-0.4373,-0.4468,-0.448,-0.4478,-0.449,-0.4519,-0.4463,-0.4463,-0.4463,-0.4463,-0.4463,-0.4519,-0.4519,-0.4519,-0.4519,-0.4695,-0.4761,-0.4886,-0.5163,-0.5341,-0.5477,-0.574,-0.6061,-0.6465,-0.6828,-0.7978,-0.9001,-0.975,-1.014,-1.0325,-1.0546,-1.0781,-1.0829,-1.0537,-1.0576,-1.0502,-1.0406,-1.04,-1.0422,-1.0414,-1.0457,-1.0271,-1.0286,-1.0336,-1.0271,-1.0183,-1.0077,-1.0063,-1.0258,-1.0479,-1.0673,-1.0838,-1.0737,-1.0599,-1.0677,-1.0793,-1.076,-1.0722,-1.0814,-1.0796,-1.0654,-1.0642,-1.0679,-1.0781,-1.0818,-1.0751,-1.6231,-1.545,-1.4903,-1.4401,-1.393,-1.335,-1.3119,-1.2986,-1.2756,-1.2692,-1.2899,-1.2939,-1.2774,-1.2725,-1.2598,-1.2431,-1.2197,-1.1959,-1.1728,-1.1418,-1.1015,-1.0804,-1.06,-1.0241,-0.988,-0.9621,-0.9316,-0.9061,-0.8962,-0.8685,-0.8415,-0.8143,-0.799,-0.7777,-0.7563,-0.745,-0.73,-0.7036,-0.6766,-0.6313,-0.5789,-0.5313,-0.4803,-0.4272,-0.3947,-0.3799,-0.3707,-0.3667,-0.3826,-0.4073,-0.4115,-0.4185,-0.4288,-0.4426,-0.4453,-0.4463,-0.4463,-0.4463,-0.4463,-0.4463,-0.4463,-0.4463,-0.4463,-0.4519,-0.4574,-0.4574,-0.4574,-0.4688,-0.4786,-0.4919,-0.5042,-0.5301,-0.5657,-0.6191,-0.7244,-0.8198,-0.8589,-0.8884,-0.9118,-0.9178,-0.9449,-0.9537,-0.9531,-0.9545,-0.9558,-0.953,-0.9491,-0.9484,-0.9374,-0.9438,-0.9321,-0.9203,-0.9207,-0.9192,-0.9085,-0.8971,-0.8991,-0.9132,-0.9308,-0.9507,-0.9712,-0.9821,-0.9721,-0.9642,-0.9832,-0.9883,-0.9728,-0.9688,-0.9594,-0.9681,-0.982,-1.0036,-1.0179,-1.0243,-1.0079,-1.5621,-1.4955,-1.4307,-1.3823,-1.3423,-1.2766,-1.2429,-1.2359,-1.2138,-1.2158,-1.2302,-1.2278,-1.2231,-1.21,-1.1846,-1.1711,-1.1549,-1.1274,-1.1014,-1.0753,-1.019,-0.9932,-0.9829,-0.9614,-0.9406,-0.9159,-0.8949,-0.8738,-0.854,-0.8262,-0.799,-0.7723,-0.7456,-0.7235,-0.7133,-0.6972,-0.6864,-0.6657,-0.6436,-0.6065,-0.5596,-0.5148,-0.4674,-0.4225,-0.3878,-0.3656,-0.3622,-0.3578,-0.367,-0.3809,-0.389,-0.3992,-0.4093,-0.4294,-0.4395,-0.445,-0.4463,-0.4463,-0.4463,-0.4463,-0.4463,-0.4411,-0.4463,-0.4463,-0.4411,-0.4408,-0.4463,-0.4519,-0.4574,-0.4632,-0.4688,-0.4853,-0.5119,-0.5542,-0.6274,-0.6987,-0.7516,-0.7865,-0.808,-0.8198,-0.8375,-0.8504,-0.8427,-0.8507,-0.8447,-0.8363,-0.8291,-0.8297,-0.8297,-0.8395,-0.8395,-0.8275,-0.8196,-0.8166,-0.8238,-0.8195,-0.835,-0.8419,-0.8692,-0.8784,-0.8958,-0.9131,-0.915,-0.9102,-0.9022,-0.9008,-0.9008,-0.9015,-0.9104,-0.9241,-0.9322,-0.937,-0.9487,-0.9653,-0.9446,-1.5182,-1.4765,-1.3902,-1.3371,-1.2988,-1.2087,-1.1795,-1.1682,-1.1429,-1.1462,-1.1626,-1.1494,-1.1423,-1.1221,-1.0976,-1.0711,-1.0729,-1.046,-1.0253,-0.9941,-0.954,-0.9204,-0.9145,-0.9152,-0.8949,-0.8745,-0.858,-0.833,-0.8029,-0.7764,-0.7482,-0.7214,-0.6797,-0.6673,-0.6632,-0.6464,-0.6342,-0.6338,-0.6213,-0.5986,-0.554,-0.5081,-0.4646,-0.4277,-0.384,-0.3667,-0.3578,-0.3578,-0.3541,-0.3537,-0.3717,-0.3877,-0.4026,-0.4117,-0.4314,-0.4488,-0.4463,-0.4463,-0.4463,-0.4463,-0.4463,-0.4356,-0.4408,-0.4408,-0.4356,-0.4408,-0.4463,-0.4463,-0.4463,-0.4519,-0.4519,-0.4632,-0.4805,-0.5049,-0.5152,-0.5684,-0.6487,-0.6949,-0.7185,-0.7421,-0.7469,-0.7428,-0.7369,-0.7325,-0.7327,-0.74,-0.729,-0.7301,-0.7301,-0.7312,-0.7296,-0.7231,-0.7182,-0.7209,-0.7306,-0.7461,-0.7681,-0.7895,-0.8215,-0.84,-0.8566,-0.8679,-0.8771,-0.8752,-0.8745,-0.8745,-0.8745,-0.8758,-0.8771,-0.8785,-0.8858,-0.8825,-0.8811,-0.8971,-0.8925,-1.444,-1.3804,-1.3401,-1.3009,-1.2615,-1.2184,-1.1903,-1.1722,-1.146,-1.1384,-1.1508,-1.1368,-1.1095,-1.0775,-1.0383,-1.0143,-0.9851,-0.9792,-0.9707,-0.9307,-0.8919,-0.8501,-0.8389,-0.8423,-0.8468,-0.8315,-0.8143,-0.7822,-0.7477,-0.7218,-0.6861,-0.6363,-0.6248,-0.5992,-0.5935,-0.6076,-0.6025,-0.6001,-0.5909,-0.5846,-0.5571,-0.4997,-0.4522,-0.4349,-0.3887,-0.3585,-0.3486,-0.3442,-0.3394,-0.3382,-0.3573,-0.3812,-0.3963,-0.4113,-0.4314,-0.4426,-0.4463,-0.4463,-0.4463,-0.4463,-0.4463,-0.4408,-0.4463,-0.4463,-0.4463,-0.4463,-0.4463,-0.4463,-0.4463,-0.4463,-0.4463,-0.4519,-0.4574,-0.4684,-0.4743,-0.4934,-0.5222,-0.5642,-0.6001,-0.616,-0.6272,-0.6396,-0.6354,-0.6464,-0.6425,-0.6372,-0.6372,-0.6372,-0.6372,-0.6372,-0.6372,-0.6372,-0.6426,-0.6475,-0.6588,-0.6804,-0.7133,-0.7402,-0.7723,-0.7937,-0.8096,-0.8262,-0.8321,-0.8374,-0.848,-0.848,-0.8474,-0.8474,-0.8487,-0.848,-0.8474,-0.848,-0.854,-0.854,-0.854,-1.3899,-1.3438,-1.3198,-1.292,-1.2615,-1.2222,-1.1894,-1.1531,-1.1182,-1.0954,-1.0794,-1.0582,-1.0255,-0.9872,-0.9529,-0.9204,-0.9019,-0.892,-0.8904,-0.8595,-0.8224,-0.7753,-0.75,-0.7497,-0.7505,-0.77,-0.7588,-0.7246,-0.6939,-0.6656,-0.6355,-0.6,-0.5785,-0.578,-0.5702,-0.5808,-0.5805,-0.5824,-0.5766,-0.5679,-0.5414,-0.484,-0.4296,-0.4102,-0.3708,-0.3486,-0.3442,-0.3258,-0.317,-0.3158,-0.3297,-0.3573,-0.386,-0.4058,-0.4257,-0.4433,-0.4463,-0.4463,-0.4463,-0.4463,-0.4467,-0.4353,-0.4408,-0.4408,-0.4356,-0.4356,-0.4356,-0.4356,-0.4301,-0.4301,-0.4356,-0.4463,-0.4463,-0.4519,-0.4574,-0.4577,-0.4684,-0.5014,-0.5289,-0.5344,-0.5534,-0.5635,-0.5668,-0.5773,-0.5769,-0.5823,-0.5828,-0.5823,-0.5769,-0.5769,-0.5769,-0.5769,-0.5773,-0.5828,-0.5937,-0.6213,-0.6598,-0.6923,-0.7192,-0.7402,-0.7509,-0.767,-0.783,-0.7937,-0.8103,-0.815,-0.815,-0.815,-0.815,-0.815,-0.8203,-0.8268,-0.8321,-0.8321,-0.8321,-1.3547,-1.3391,-1.3198,-1.2955,-1.2733,-1.2294,-1.1811,-1.1292,-1.0802,-1.043,-0.995,-0.9607,-0.9371,-0.8888,-0.8544,-0.8319,-0.8224,-0.8056,-0.799,-0.7708,-0.749,-0.7133,-0.6878,-0.6673,-0.664,-0.7023,-0.6921,-0.6654,-0.6336,-0.6129,-0.5985,-0.5836,-0.5682,-0.5629,-0.5763,-0.578,-0.5746,-0.5712,-0.5632,-0.5471,-0.5183,-0.467,-0.4125,-0.3726,-0.3509,-0.3394,-0.3262,-0.3084,-0.2909,-0.2889,-0.2905,-0.3166,-0.3486,-0.3855,-0.4094,-0.4336,-0.4353,-0.4408,-0.4408,-0.4408,-0.4356,-0.4249,-0.4408,-0.4408,-0.4245,-0.4249,-0.4193,-0.4135,-0.4076,-0.4076,-0.4193,-0.4301,-0.4463,-0.4519,-0.4519,-0.4463,-0.4519,-0.468,-0.4849,-0.4959,-0.5073,-0.5179,-0.523,-0.5285,-0.5281,-0.5226,-0.5226,-0.5226,-0.5222,-0.5222,-0.5281,-0.5336,-0.5336,-0.5395,-0.5504,-0.5668,-0.605,-0.6327,-0.6652,-0.6756,-0.6864,-0.6972,-0.7133,-0.7509,-0.767,-0.7717,-0.7723,-0.767,-0.767,-0.7771,-0.783,-0.7783,-0.7889,-0.8103,-0.8055,-1.3641,-1.3446,-1.3198,-1.2955,-1.2674,-1.233,-1.1836,-1.1282,-1.0764,-1.0312,-0.9774,-0.9288,-0.8854,-0.8496,-0.8118,-0.7847,-0.7652,-0.7473,-0.7115,-0.6814,-0.6778,-0.6794,-0.6389,-0.6192,-0.6054,-0.5967,-0.6075,-0.6031,-0.5738,-0.5671,-0.5687,-0.5495,-0.5514,-0.5559,-0.5625,-0.5692,-0.5671,-0.5555,-0.5414,-0.5291,-0.5013,-0.4514,-0.4042,-0.3636,-0.3442,-0.3262,-0.3081,-0.2865,-0.2635,-0.2396,-0.2441,-0.2585,-0.2817,-0.3284,-0.363,-0.3932,-0.4021,-0.4135,-0.4187,-0.4245,-0.4301,-0.4408,-0.446,-0.4408,-0.4245,-0.4193,-0.4024,-0.391,-0.3852,-0.391,-0.4193,-0.4245,-0.4356,-0.4408,-0.4463,-0.4411,-0.4301,-0.4301,-0.4411,-0.4574,-0.4684,-0.4743,-0.4794,-0.4846,-0.4846,-0.4842,-0.4846,-0.4842,-0.4842,-0.4897,-0.4897,-0.4956,-0.5011,-0.5069,-0.5179,-0.5285,-0.5504,-0.5727,-0.5946,-0.605,-0.6159,-0.6164,-0.6381,-0.6696,-0.6972,-0.7085,-0.7085,-0.7085,-0.7139,-0.7139,-0.7192,-0.7295,-0.7354,-0.7461,-0.7408,-1.3607,-1.3335,-1.3176,-1.2885,-1.2591,-1.2258,-1.1763,-1.1121,-1.0572,-1.0,-0.9448,-0.8935,-0.8488,-0.8126,-0.7795,-0.7461,-0.7257,-0.7118,-0.6743,-0.6378,-0.6535,-0.6475,-0.6121,-0.5984,-0.5784,-0.5692,-0.5728,-0.5723,-0.5457,-0.5535,-0.5572,-0.5587,-0.562,-0.5663,-0.568,-0.5699,-0.5579,-0.5395,-0.519,-0.4963,-0.473,-0.4214,-0.3819,-0.3602,-0.335,-0.3126,-0.2907,-0.2506,-0.2331,-0.2233,-0.2173,-0.2104,-0.2167,-0.2437,-0.2966,-0.3456,-0.3633,-0.3799,-0.391,-0.3965,-0.4076,-0.4187,-0.4242,-0.4187,-0.4079,-0.3968,-0.3749,-0.3577,-0.3633,-0.3747,-0.386,-0.3971,-0.4135,-0.4242,-0.4242,-0.419,-0.4135,-0.4021,-0.4021,-0.4073,-0.4187,-0.4242,-0.4353,-0.4353,-0.4405,-0.446,-0.4463,-0.446,-0.446,-0.446,-0.4515,-0.4519,-0.4519,-0.4574,-0.4632,-0.4739,-0.4901,-0.5069,-0.5234,-0.534,-0.5449,-0.5449,-0.5504,-0.5664,-0.5941,-0.6218,-0.6381,-0.6322,-0.6436,-0.6495,-0.6593,-0.6642,-0.6756,-0.6761,-0.6761,-1.3542,-1.3057,-1.292,-1.2584,-1.2141,-1.1838,-1.1375,-1.0777,-1.0066,-0.9477,-0.8959,-0.8421,-0.7959,-0.7643,-0.7361,-0.712,-0.6972,-0.6963,-0.6757,-0.6593,-0.649,-0.6306,-0.6067,-0.5927,-0.5799,-0.5717,-0.5739,-0.5689,-0.551,-0.5562,-0.5647,-0.5669,-0.575,-0.5793,-0.5761,-0.5663,-0.5415,-0.5149,-0.4845,-0.4583,-0.4188,-0.3877,-0.366,-0.3534,-0.3214,-0.2948,-0.2773,-0.2286,-0.2018,-0.1951,-0.183,-0.1642,-0.1436,-0.1594,-0.2068,-0.2798,-0.3077,-0.3355,-0.3519,-0.363,-0.3685,-0.3858,-0.3913,-0.3913,-0.3799,-0.358,-0.3304,-0.3135,-0.319,-0.3416,-0.3524,-0.3691,-0.3858,-0.3913,-0.3913,-0.3858,-0.3802,-0.3688,-0.3522,-0.3577,-0.3688,-0.3799,-0.3855,-0.3968,-0.4021,-0.4021,-0.4079,-0.4024,-0.4024,-0.4024,-0.4024,-0.3968,-0.3971,-0.4027,-0.4082,-0.4138,-0.4245,-0.4408,-0.4519,-0.4625,-0.468,-0.4736,-0.4787,-0.4842,-0.4952,-0.5226,-0.5391,-0.5614,-0.5782,-0.5891,-0.5937,-0.6046,-0.6159,-0.6273,-0.6273,-1.348,-1.2634,-1.2218,-1.1643,-1.102,-1.0586,-1.0343,-1.0201,-0.9268,-0.8566,-0.8224,-0.7638,-0.7204,-0.6883,-0.6788,-0.6814,-0.6941,-0.691,-0.6881,-0.6781,-0.6617,-0.6398,-0.6233,-0.6159,-0.611,-0.5976,-0.5976,-0.5766,-0.5684,-0.5739,-0.5755,-0.5793,-0.5793,-0.5793,-0.5674,-0.5458,-0.5198,-0.4888,-0.4631,-0.4276,-0.3877,-0.3744,-0.3615,-0.3394,-0.3126,-0.2815,-0.2551,-0.2064,-0.1784,-0.1568,-0.1432,-0.1076,-0.0744,-0.1101,-0.1341,-0.1738,-0.213,-0.2631,-0.285,-0.3016,-0.3241,-0.3413,-0.3524,-0.3583,-0.3357,-0.3079,-0.2802,-0.2802,-0.2802,-0.2912,-0.3077,-0.3302,-0.3469,-0.3583,-0.358,-0.3413,-0.3299,-0.313,-0.3019,-0.2965,-0.3021,-0.3246,-0.3416,-0.3527,-0.3638,-0.3638,-0.3638,-0.3638,-0.3583,-0.3583,-0.3524,-0.3527,-0.3527,-0.3527,-0.3527,-0.3583,-0.3638,-0.3747,-0.3799,-0.391,-0.3962,-0.4018,-0.4018,-0.4128,-0.4184,-0.4346,-0.4677,-0.4901,-0.5069,-0.5234,-0.5391,-0.5504,-0.5673,-0.5727,-0.5727,-1.2776,-1.2386,-1.1648,-1.0993,-1.0457,-1.0048,-0.9872,-0.9654,-0.8862,-0.8158,-0.7709,-0.7316,-0.692,-0.6614,-0.6495,-0.6701,-0.6908,-0.6848,-0.6859,-0.6937,-0.6781,-0.6653,-0.6532,-0.6502,-0.6459,-0.6367,-0.6319,-0.6264,-0.605,-0.5927,-0.5933,-0.5884,-0.5793,-0.5717,-0.5501,-0.5198,-0.4888,-0.4583,-0.4276,-0.3924,-0.3707,-0.3619,-0.3575,-0.3398,-0.3084,-0.2726,-0.2281,-0.1927,-0.1602,-0.1326,-0.107,-0.0705,-0.0526,-0.0812,-0.1206,-0.0841,-0.1065,-0.1567,-0.2124,-0.2348,-0.2631,-0.2856,-0.2968,-0.2912,-0.2742,-0.2519,-0.2296,-0.2184,-0.2296,-0.2408,-0.2575,-0.2856,-0.297,-0.3081,-0.3079,-0.2968,-0.2742,-0.2573,-0.2406,-0.2408,-0.2354,-0.2521,-0.2633,-0.2742,-0.291,-0.3079,-0.3079,-0.3079,-0.3081,-0.3026,-0.3026,-0.3026,-0.3026,-0.3081,-0.3026,-0.3079,-0.3081,-0.3135,-0.3135,-0.3188,-0.3188,-0.3244,-0.3297,-0.3408,-0.3463,-0.3683,-0.3959,-0.4294,-0.4519,-0.4684,-0.4791,-0.5011,-0.5175,-0.523,-0.523,-1.1873,-1.1727,-1.0946,-1.0309,-0.9772,-0.9393,-0.9179,-0.9,-0.83,-0.7695,-0.7271,-0.6954,-0.6687,-0.6507,-0.6399,-0.6558,-0.6936,-0.6765,-0.6828,-0.6912,-0.6907,-0.6829,-0.6787,-0.6745,-0.6751,-0.6751,-0.6575,-0.6483,-0.6398,-0.619,-0.5981,-0.5933,-0.5669,-0.5501,-0.5236,-0.4884,-0.4539,-0.4276,-0.3924,-0.3663,-0.3534,-0.3534,-0.3445,-0.322,-0.2954,-0.2551,-0.2057,-0.1746,-0.1418,-0.1023,-0.0857,-0.0544,-0.0207,-0.0478,-0.0761,-0.05,-0.0616,-0.0896,-0.1399,-0.1736,-0.1961,-0.213,-0.2411,-0.2411,-0.2186,-0.2017,-0.1903,-0.1736,-0.1793,-0.1906,-0.2074,-0.2298,-0.241,-0.2465,-0.2465,-0.2408,-0.2296,-0.2128,-0.1961,-0.1849,-0.1737,-0.1569,-0.168,-0.1793,-0.2017,-0.2354,-0.2465,-0.2465,-0.2521,-0.2523,-0.2521,-0.2519,-0.2464,-0.2519,-0.2519,-0.2464,-0.2465,-0.2521,-0.2521,-0.2521,-0.2519,-0.2573,-0.2629,-0.2685,-0.2796,-0.2907,-0.3128,-0.3519,-0.3968,-0.4187,-0.4349,-0.4515,-0.4677,-0.4736,-0.4846,-1.0883,-1.0394,-1.005,-0.9406,-0.8649,-0.8191,-0.794,-0.7908,-0.743,-0.7125,-0.689,-0.645,-0.6439,-0.6402,-0.6316,-0.6406,-0.6841,-0.6712,-0.6902,-0.7072,-0.7083,-0.6985,-0.6943,-0.6943,-0.6943,-0.6907,-0.6702,-0.6623,-0.6538,-0.6142,-0.597,-0.5798,-0.5453,-0.5149,-0.4845,-0.4539,-0.414,-0.3832,-0.3615,-0.3517,-0.3429,-0.3344,-0.3214,-0.2946,-0.2637,-0.2284,-0.1835,-0.1569,-0.1214,-0.0774,-0.0653,-0.0482,-0.0151,-0.0,-0.0,-0.0327,-0.0331,-0.0551,-0.0826,-0.1108,-0.1286,-0.1513,-0.1734,-0.1899,-0.1626,-0.174,-0.1628,-0.1289,-0.1289,-0.1402,-0.157,-0.1738,-0.1905,-0.1961,-0.1961,-0.1905,-0.185,-0.1682,-0.1514,-0.1402,-0.1234,-0.1121,-0.1065,-0.1289,-0.1569,-0.1905,-0.1961,-0.1962,-0.1961,-0.1961,-0.1959,-0.1902,-0.1902,-0.1902,-0.1902,-0.1903,-0.1961,-0.2017,-0.1961,-0.1959,-0.1902,-0.1958,-0.2015,-0.2071,-0.2183,-0.2238,-0.2294,-0.2685,-0.313,-0.363,-0.3907,-0.407,-0.4294,-0.446,-0.4574,-1.0154,-0.9694,-0.926,-0.8792,-0.8347,-0.7994,-0.7744,-0.7597,-0.7381,-0.7154,-0.6915,-0.6651,-0.6542,-0.6459,-0.625,-0.6375,-0.6737,-0.6584,-0.6871,-0.7073,-0.707,-0.7021,-0.6979,-0.695,-0.6914,-0.6865,-0.6702,-0.6538,-0.6459,-0.6056,-0.5663,-0.5404,-0.5106,-0.4888,-0.4543,-0.41,-0.3704,-0.348,-0.3293,-0.3187,-0.312,-0.3093,-0.2917,-0.2582,-0.2399,-0.2008,-0.1612,-0.1478,-0.1032,-0.0632,-0.0412,-0.0,-0.0,-0.0,-0.0,-0.0105,-0.0106,-0.0106,-0.0106,-0.0429,-0.0652,-0.0543,-0.0815,-0.0986,-0.078,-0.0728,-0.0673,-0.0617,-0.0729,-0.0841,-0.0953,-0.1233,-0.1513,-0.1513,-0.1457,-0.1401,-0.1289,-0.1122,-0.1066,-0.0841,-0.0897,-0.0841,-0.0841,-0.0841,-0.1177,-0.1457,-0.1457,-0.1457,-0.1457,-0.1456,-0.1456,-0.1399,-0.14,-0.1456,-0.1456,-0.1457,-0.1513,-0.1457,-0.1456,-0.1456,-0.14,-0.1513,-0.1569,-0.1569,-0.1569,-0.1624,-0.1737,-0.1905,-0.2294,-0.2961,-0.335,-0.3574,-0.3796,-0.4076,-0.4187,-0.9738,-0.9328,-0.885,-0.8488,-0.8244,-0.7937,-0.7715,-0.7578,-0.747,-0.7283,-0.7047,-0.6915,-0.6781,-0.656,-0.6323,-0.6436,-0.6721,-0.6627,-0.6834,-0.7004,-0.7076,-0.6985,-0.6907,-0.6823,-0.6745,-0.6745,-0.6575,-0.6361,-0.6239,-0.5879,-0.5399,-0.5009,-0.4618,-0.4364,-0.4144,-0.3704,-0.3306,-0.3081,-0.2984,-0.2797,-0.2721,-0.2664,-0.25,-0.2218,-0.2059,-0.1786,-0.1523,-0.1346,-0.1077,-0.0629,-0.0,-0.0,-0.0,-0.0,-0.0,0.0149,0.0252,0.0353,0.0457,0.0309,0.0052,0.0209,0.0426,0.0324,0.0384,0.039,0.0336,0.0336,0.0056,-0.0168,-0.0224,-0.0504,-0.0728,-0.0729,-0.0785,-0.0729,-0.0617,-0.0449,-0.0449,-0.0336,-0.0393,-0.0336,-0.028,-0.028,-0.0505,-0.0784,-0.0953,-0.0953,-0.0953,-0.0953,-0.0953,-0.0953,-0.1009,-0.1009,-0.101,-0.1009,-0.0953,-0.0953,-0.0952,-0.0953,-0.0953,-0.1066,-0.1066,-0.1009,-0.1009,-0.101,-0.1121,-0.1233,-0.1734,-0.2402,-0.2738,-0.3128,-0.3297,-0.3574,-0.363,-0.975,-0.9274,-0.8866,-0.8505,-0.8215,-0.7918,-0.7744,-0.7647,-0.7539,-0.7421,-0.7196,-0.7116,-0.6954,-0.6742,-0.6429,-0.6536,-0.6767,-0.6578,-0.6716,-0.7066,-0.6972,-0.6901,-0.6781,-0.6653,-0.6441,-0.6441,-0.627,-0.6056,-0.5933,-0.5486,-0.5009,-0.4482,-0.3957,-0.3656,-0.3653,-0.3255,-0.2901,-0.2729,-0.2684,-0.2486,-0.2307,-0.2186,-0.2047,-0.1801,-0.1753,-0.1566,-0.1256,-0.1213,-0.0989,-0.0674,-0.0135,-0.0,-0.0,-0.0,0.0241,0.0594,0.0648,0.07,0.0703,0.0705,0.0804,0.1013,0.1188,0.138,0.1558,0.1426,0.1177,0.112,0.0952,0.0729,0.0561,0.0393,0.0224,0.0112,0.0112,0.0112,0.028,0.0224,0.028,0.028,0.0336,0.0393,0.0393,0.0336,0.0112,-0.0112,-0.0336,-0.0393,-0.0393,-0.0449,-0.0449,-0.0561,-0.0561,-0.0561,-0.0561,-0.0505,-0.0449,-0.0,-0.0449,-0.0505,-0.0505,-0.0561,-0.0505,-0.0,-0.0505,-0.0617,-0.0561,-0.0505,-0.1119,-0.1734,-0.2291,-0.2681,-0.2903,-0.3016,-0.3074,-0.9803,-0.9396,-0.8953,-0.8617,-0.8358,-0.8101,-0.7928,-0.7792,-0.7705,-0.7598,-0.7421,-0.7342,-0.7134,-0.6833,-0.6554,-0.6498,-0.6586,-0.6593,-0.6688,-0.6801,-0.6741,-0.6677,-0.6526,-0.6313,-0.6099,-0.597,-0.5798,-0.5572,-0.5313,-0.4918,-0.4434,-0.3865,-0.3208,-0.2768,-0.2768,-0.2591,-0.2324,-0.2194,-0.2097,-0.1934,-0.1868,-0.1832,-0.1671,-0.1354,-0.1405,-0.1254,-0.0897,-0.0899,-0.0764,-0.0539,-0.0,0.0408,0.046,0.0461,0.0556,0.075,0.0844,0.1122,0.1261,0.1403,0.1515,0.1654,0.1766,0.1924,0.1964,0.1977,0.1839,0.1736,0.1624,0.1399,0.1231,0.129,0.1234,0.1234,0.1234,0.1234,0.129,0.1066,0.0954,0.0954,0.101,0.0954,0.0954,0.1009,0.084,0.0672,0.0448,0.0224,0.0168,0.0112,0.0056,-0.0112,-0.0168,-0.0168,-0.0,-0.0,-0.0,-0.0,-0.0,-0.0168,-0.0168,-0.0,-0.0,-0.0,-0.0,-0.0168,-0.028,-0.0393,-0.0617,-0.1064,-0.1621,-0.2068,-0.2237,-0.2348,-0.2406,-0.997,-0.954,-0.9101,-0.8811,-0.8561,-0.8311,-0.8101,-0.7976,-0.785,-0.7705,-0.7539,-0.7401,-0.7164,-0.6833,-0.6546,-0.6395,-0.6432,-0.6314,-0.6423,-0.6514,-0.6441,-0.6372,-0.6198,-0.5884,-0.5626,-0.5453,-0.5231,-0.5005,-0.47,-0.4256,-0.3734,-0.3123,-0.2368,-0.2146,-0.2101,-0.2014,-0.1969,-0.1837,-0.1652,-0.1536,-0.1466,-0.139,-0.1185,-0.1036,-0.1005,-0.0943,-0.0539,-0.036,-0.0225,-0.009,0.027,0.0809,0.0854,0.0944,0.0989,0.1078,0.1258,0.1528,0.1801,0.1982,0.2107,0.2326,0.2248,0.2235,0.2413,0.2557,0.2498,0.2406,0.2181,0.2014,0.1903,0.202,0.202,0.202,0.1964,0.1962,0.1906,0.1681,0.1625,0.1625,0.1569,0.157,0.157,0.1626,0.1569,0.1401,0.1233,0.0953,0.0729,0.0617,0.0505,0.0336,0.0056,-0.0,-0.0,-0.0,-0.0,-0.0,-0.0,-0.0,-0.0,-0.0,-0.0,-0.0,-0.0,-0.0,-0.0,-0.0336,-0.0449,-0.0617,-0.0952,-0.1287,-0.1568,-0.168,-0.1792,-1.0135,-0.971,-0.9378,-0.9058,-0.8773,-0.8477,-0.8272,-0.8121,-0.7976,-0.7811,-0.7588,-0.7324,-0.7026,-0.6742,-0.6437,-0.6284,-0.6275,-0.6093,-0.6183,-0.6252,-0.6065,-0.5949,-0.5752,-0.5437,-0.5096,-0.4879,-0.4657,-0.4303,-0.3997,-0.3514,-0.2946,-0.2375,-0.1746,-0.1478,-0.1433,-0.1433,-0.1479,-0.1345,-0.1252,-0.1189,-0.1131,-0.0836,-0.0616,-0.0479,-0.0441,-0.0358,-0.0,0.0315,0.045,0.0584,0.0674,0.1033,0.1256,0.1435,0.1524,0.1658,0.1748,0.2016,0.2284,0.2415,0.264,0.2871,0.2888,0.2928,0.3029,0.3159,0.3135,0.3007,0.2792,0.2685,0.2577,0.2521,0.2464,0.2408,0.2408,0.2352,0.2352,0.2294,0.2294,0.2238,0.2127,0.2127,0.2128,0.2184,0.224,0.2071,0.1847,0.1625,0.1345,0.101,0.0898,0.0673,0.0449,0.0112,-0.0,-0.0,-0.0,-0.0,-0.0,-0.0,-0.0,-0.0,-0.0,-0.0,-0.0,-0.0,-0.0,-0.0,-0.0168,-0.0336,-0.0504,-0.0672,-0.0952,-0.1121,-0.1233,-1.0496,-1.0021,-0.9646,-0.9366,-0.9139,-0.8916,-0.8639,-0.8308,-0.8176,-0.7937,-0.7588,-0.7264,-0.6936,-0.656,-0.6237,-0.6042,-0.592,-0.5819,-0.5709,-0.5651,-0.5591,-0.5383,-0.5111,-0.4829,-0.4457,-0.4121,-0.3807,-0.352,-0.3064,-0.2627,-0.191,-0.1208,-0.0891,-0.067,-0.0538,-0.0539,-0.0674,-0.0808,-0.0718,-0.0756,-0.0662,-0.0401,-0.0089,0.0133,0.0133,0.0269,0.0537,0.0808,0.0989,0.1121,0.1302,0.157,0.1705,0.1794,0.1884,0.2103,0.2328,0.2551,0.2729,0.2815,0.2946,0.3242,0.3342,0.3423,0.3486,0.3562,0.3644,0.3468,0.34,0.3299,0.319,0.3135,0.3077,0.3077,0.3021,0.3021,0.3021,0.2965,0.2965,0.2852,0.274,0.2683,0.274,0.2798,0.2854,0.2685,0.2462,0.2184,0.185,0.1514,0.1234,0.101,0.0729,0.0393,0.0112,-0.0,-0.0,-0.0,-0.0,-0.0,-0.0,-0.0,-0.0,-0.0,-0.0,-0.0,-0.0,-0.0,-0.0,-0.0,-0.0168,-0.0224,-0.0336,-0.0561,-0.0729,-1.0763,-1.0323,-0.9931,-0.9605,-0.9339,-0.9151,-0.8878,-0.8551,-0.8319,-0.8004,-0.7579,-0.7205,-0.6855,-0.646,-0.6122,-0.5826,-0.5596,-0.5463,-0.5369,-0.5222,-0.5027,-0.4775,-0.4484,-0.4131,-0.3776,-0.3392,-0.3097,-0.2852,-0.235,-0.1625,-0.0939,-0.048,-0.0044,0.0221,0.0402,0.0493,0.0314,0.0135,-0.0045,-0.0135,-0.009,0.009,0.0446,0.0706,0.071,0.0846,0.0971,0.1241,0.1435,0.1523,0.1703,0.1927,0.2061,0.2196,0.2375,0.2593,0.2682,0.2907,0.304,0.3129,0.3306,0.3462,0.3576,0.3588,0.3706,0.3808,0.3878,0.3803,0.3923,0.3971,0.3916,0.3805,0.3749,0.3747,0.3747,0.3747,0.3691,0.3635,0.3577,0.3522,0.3408,0.3352,0.3352,0.3466,0.3413,0.3188,0.2854,0.2517,0.2128,0.1738,0.1402,0.1122,0.0954,0.0673,0.0393,-0.0,-0.0,-0.0,-0.0,-0.0,-0.0,-0.0,-0.0,-0.0,-0.0,-0.0,-0.0,-0.0,0.0168,0.0168,0.0168,0.0056,-0.0056,-0.0224,-0.028,-1.101,-1.0608,-1.0173,-0.9764,-0.9434,-0.9227,-0.8966,-0.8733,-0.825,-0.796,-0.7492,-0.7132,-0.6657,-0.6172,-0.5838,-0.5578,-0.5328,-0.5119,-0.4946,-0.4819,-0.4413,-0.4127,-0.3771,-0.3513,-0.3129,-0.2727,-0.2366,-0.2011,-0.1703,-0.1001,-0.0246,0.0126,0.0544,0.0847,0.1082,0.1188,0.1057,0.0925,0.0713,0.0584,0.0539,0.067,0.0839,0.1029,0.1213,0.1405,0.1465,0.161,0.183,0.1834,0.1969,0.2235,0.246,0.2684,0.2907,0.3037,0.3081,0.3214,0.3394,0.3442,0.353,0.3578,0.3629,0.3708,0.3819,0.3886,0.3907,0.4009,0.4088,0.4155,0.4116,0.4128,0.4135,0.4079,0.4079,0.4079,0.4021,0.4021,0.4021,0.391,0.3907,0.3852,0.3796,0.3855,0.3633,0.3524,0.3188,0.274,0.2294,0.185,0.1514,0.1234,0.1122,0.0897,0.0561,-0.0,-0.0,-0.0,-0.0,-0.0,-0.0,-0.0,-0.0,0.0449,0.0673,0.0729,-0.0,0.0673,0.0673,0.0561,0.0561,0.0393,0.028,0.0168,-0.0056,-1.1445,-1.094,-1.026,-0.9828,-0.9504,-0.8978,-0.8572,-0.8219,-0.7518,-0.7235,-0.7141,-0.6758,-0.6246,-0.5675,-0.5435,-0.518,-0.4934,-0.4673,-0.4473,-0.4195,-0.3835,-0.3372,-0.3034,-0.2835,-0.2471,-0.1915,-0.1446,-0.1083,-0.0578,0.0039,0.0549,0.1034,0.1277,0.1374,0.1479,0.1551,0.1578,0.1494,0.1492,0.133,0.1194,0.1198,0.1321,0.145,0.1616,0.1701,0.1808,0.1945,0.2223,0.2397,0.2591,0.2818,0.2993,0.3173,0.3353,0.3442,0.348,0.3612,0.37,0.3748,0.3792,0.3796,0.3799,0.3814,0.3855,0.3866,0.3978,0.4103,0.4234,0.4304,0.4365,0.4381,0.4405,0.4349,0.4353,0.4353,0.4353,0.4353,0.4353,0.4353,0.4298,0.4298,0.4242,0.4132,0.391,0.3577,0.3183,0.2738,0.235,0.1906,0.1458,0.1234,0.1234,0.101,0.0729,-0.0,-0.0,-0.0,-0.0,-0.0,0.0617,0.0673,0.0673,0.0841,0.0954,0.1121,0.129,0.1459,0.1403,0.1177,0.1065,0.0952,0.0785,0.0673,0.0336,-1.1732,-1.1205,-1.0434,-0.9768,-0.9242,-0.8777,-0.8283,-0.7704,-0.7143,-0.6749,-0.6523,-0.6253,-0.584,-0.5245,-0.4985,-0.4698,-0.4473,-0.4118,-0.3758,-0.3431,-0.3175,-0.2695,-0.2384,-0.2007,-0.1514,-0.0951,-0.0513,-0.0073,0.0444,0.0918,0.1319,0.1583,0.1632,0.1761,0.175,0.1887,0.1992,0.1956,0.2131,0.2107,0.1883,0.1801,0.1701,0.1778,0.1913,0.2078,0.2302,0.2483,0.2794,0.3043,0.3258,0.3394,0.3571,0.3663,0.3796,0.384,0.3928,0.3921,0.4012,0.41,0.41,0.4056,0.4056,0.4072,0.4072,0.413,0.4073,0.4203,0.4303,0.4337,0.4343,0.4385,0.4457,0.4433,0.445,0.4408,0.4408,0.4408,0.4408,0.4408,0.4408,0.4408,0.4353,0.4245,0.4024,0.3685,0.3294,0.2683,0.2238,0.185,0.1458,0.1234,0.1234,0.1122,0.0841,0.0673,-0.0,-0.0,0.0617,0.0729,0.0897,0.101,0.1122,0.129,0.1457,0.1625,0.1794,0.1962,0.202,0.1849,0.1681,0.1568,0.1401,0.1233,0.0953,-1.1906,-1.1285,-1.0376,-0.9561,-0.8836,-0.8489,-0.7935,-0.7247,-0.6842,-0.6297,-0.5757,-0.5642,-0.5405,-0.5051,-0.4657,-0.4309,-0.3939,-0.3513,-0.3064,-0.2685,-0.2528,-0.1889,-0.1305,-0.0812,-0.0402,0.0034,0.0445,0.0718,0.1064,0.1478,0.1715,0.179,0.196,0.2169,0.2314,0.2474,0.2556,0.2587,0.2688,0.2791,0.2558,0.2244,0.2143,0.2223,0.2366,0.2594,0.2829,0.3159,0.3465,0.3659,0.3854,0.3965,0.4056,0.41,0.4188,0.4276,0.428,0.432,0.4364,0.4412,0.4408,0.4408,0.4403,0.436,0.4364,0.4361,0.4315,0.4322,0.4434,0.4381,0.4397,0.4431,0.446,0.4504,0.447,0.4508,0.4508,0.4512,0.4457,0.4457,0.4463,0.4463,0.4356,0.4249,0.4024,0.3741,0.3239,0.2683,0.2127,0.1793,0.1402,0.129,0.129,0.1122,0.0897,0.0897,0.0785,0.0841,0.0898,0.1066,0.1178,0.1401,0.1625,0.185,0.2018,0.2127,0.2238,0.235,0.2406,0.2464,0.2352,0.2238,0.2014,0.1847,0.1569,-1.1874,-1.0527,-0.9457,-0.8727,-0.8262,-0.7624,-0.7089,-0.6659,-0.5992,-0.5452,-0.5159,-0.4791,-0.4548,-0.4366,-0.4083,-0.3737,-0.3348,-0.2906,-0.2419,-0.2026,-0.1599,-0.0933,-0.0364,0.0062,0.0675,0.1085,0.1366,0.1542,0.1678,0.1947,0.2156,0.2256,0.246,0.2618,0.2712,0.2888,0.3093,0.3136,0.3293,0.3432,0.3431,0.3122,0.2718,0.2759,0.2907,0.3082,0.3342,0.3653,0.3949,0.4161,0.429,0.4423,0.4427,0.4461,0.45,0.4586,0.4595,0.4669,0.4751,0.4836,0.484,0.4854,0.4849,0.4801,0.4845,0.4884,0.4816,0.4701,0.4684,0.4518,0.4489,0.4496,0.4524,0.4467,0.4435,0.4446,0.4484,0.4491,0.444,0.445,0.4463,0.4408,0.4245,0.4082,0.3913,0.3577,0.3132,0.2575,0.2127,0.1737,0.14,0.1401,0.1401,0.101,0.0673,0.1009,0.1065,0.1121,0.1234,0.1457,0.1681,0.1847,0.2073,0.2352,0.2573,0.2683,0.2738,0.2852,0.3021,0.3135,0.3021,0.2852,0.2683,0.2404,0.2127]},{"header":{"parameterUnit":"m.s-1","parameterCategory":1,"la1":31.0,"la2":29.5877,"lo1":-88.7671,"lo2":-86.6584,"dy":0.0162,"dx":0.0185,"nx":115,"ny":88,"refTime":"2023-06-30T18:00:00:Z","depth":0,"parameterNumber":3,"parameterNumberName":"V-component_of_WINDS"},"data":[0.0,0.0,0.0,0.0,0.0,0.0,0.0,0.0,0.0,0.0,0.0,0.0,0.0,0.0,0.0,0.0,0.0,0.0,0.0,0.0,0.0,0.0,0.0,0.0,0.0,0.0,0.0,0.0,0.0,0.0,0.0,0.0,0.0,0.0,0.0,0.0,0.0,0.0,0.0,0.0,0.0,0.0,0.0,0.0,0.0,0.0,0.0,0.0,0.0,0.0,0.0,0.0,0.0,0.0,0.0,0.0,0.0,0.0,0.0,0.0,0.0,0.0,0.0,0.0,0.0,0.0,0.0,0.0,0.0,0.0,0.0,0.0,0.0,0.0,0.0,0.0,0.0,0.0,0.0,0.0,0.0,0.0,0.0,0.0,0.0,0.0,0.0,0.0,0.0,0.0,0.0,0.0,0.0,0.0,0.0,0.0,0.0,0.0,0.0,0.0,0.0,0.0,0.0,0.0,0.0,0.0,0.0,0.0,0.0,0.0,0.0,0.0,0.0,0.0,0.0,0.0,0.0,0.0,0.0,0.0,0.0,0.0,0.0,0.0,0.0,0.0,0.0,0.0,0.0,0.0,0.0,0.0,0.0,0.0,0.0,0.0,0.0,0.0,0.0,0.0,0.0,0.0,0.0,0.0,0.0,0.0,0.0,0.0,0.0,0.0,0.0,0.0,0.0,0.0,0.0,0.0,0.0,0.0,0.0,0.0,0.0,0.0,0.0,0.0,0.0,0.0,0.0,0.0,0.0,0.0,0.0,0.0,0.0,0.0,0.0,0.0,0.0,0.0,0.0,0.0,0.0,0.0,0.0,0.0,0.0,0.0,0.0,0.0,0.0,0.0,0.0,0.0,0.0,0.0,0.0,0.0,0.0,0.0,0.0,0.0,0.0,0.0,0.0,0.0,0.0,0.0,0.0,0.0,0.0,0.0,0.0,0.0,0.0,0.0,0.0,0.0,0.0,0.0,0.0,0.0,0.0,0.0,0.0,0.0,0.0,0.0,0.0,0.0,0.0,0.0,0.0,0.0,0.0,0.0,0.0,0.0,0.0,0.0,0.0,0.0,0.0,0.0,0.0,0.0,0.0,0.0,0.0,0.0,0.0,0.0,0.0,0.0,0.0,0.0,0.0,0.0,0.0,0.0,0.0,0.0,0.0,0.0,0.0,0.0,0.0,0.0,0.0,0.0,0.0,0.0,0.0,0.0,0.0,0.0,0.0,0.0,0.0,0.0,0.0,0.0,0.0,0.0,0.0,0.0,0.0,0.0,0.0,0.0,0.0,0.0,0.0,0.0,0.0,0.0,0.0,0.0,0.0,0.0,0.0,0.0,0.0,0.0,0.0,0.0,0.0,0.0,0.0,0.0,0.0,0.0,0.0,0.0,0.0,0.0,0.0,0.0,0.0,0.0,0.0,0.0,0.0,0.0,0.0,0.0,0.0,0.0,0.0,0.0,0.0,0.0,0.0,0.0,0.0,0.0,0.0,0.0,0.0,0.0,0.0,0.0,0.0,0.0,0.0,0.0,0.0,0.0,0.0,0.0,0.0,0.0,0.0,0.0,0.0,0.0,0.0,0.0,0.0,0.0,0.0,0.0,0.0,0.0,0.0,0.0,0.0,0.0,0.0,0.0,0.0,0.0,0.0,0.0,0.0,0.0,0.0,0.0,0.0,0.0,0.0,0.0,0.0,0.0,0.0,0.0,0.0,0.0,0.0,0.0,0.0,0.0,0.0,0.0,0.0,0.0,0.0,0.0,0.0,0.0,0.0,0.0,0.0,0.0,0.0,0.0,0.0,0.0,0.0,0.0,0.0,0.0,0.0,0.0,0.0,0.0,0.0,0.0,0.0,0.0,0.0,0.0,0.0,0.0,0.0,0.0,0.0,0.0,0.0,0.0,0.0,0.0,0.0,0.0,0.0,0.0,0.0,0.0,0.0,0.0,0.0,0.0,0.0,0.0,0.0,0.0,0.0,0.0,0.0,0.0,0.0,0.0,0.0,0.0,0.0,0.0,0.0,0.0,0.0,0.0,0.0,0.0,0.0,0.0,0.0,0.0,0.0,0.0,0.0,0.0,0.0,0.0,0.0,0.0,0.0,0.0,0.0,0.0,0.0,0.0,0.0,0.0,0.0,0.0,0.0,0.0,0.0,0.0,0.0,0.0,0.0,0.0,0.0,0.0,0.0,0.0,0.0,0.0,0.0,0.0,0.0,0.0,0.0,0.0,0.0,0.0,0.0,0.0,0.0,0.0,0.0,0.0,0.0,0.0,0.0,0.0,0.0,0.0,0.0,0.0,0.0,0.0,0.0,0.0,0.0,0.0,0.0,0.0,0.0,0.0,0.0,0.0,0.0,0.0,0.0,0.0,0.0,0.0,0.0,0.0,0.0,0.0,0.0,0.0,0.0,0.0,0.0,0.0,0.0,0.0,0.0,0.0,0.0,0.0,0.0,0.0,0.0,0.0,0.0,0.0,0.0,0.0,0.0,0.0,0.0,0.0,0.0,0.0,0.0,0.0,0.0,0.0,0.0,0.0,0.0,0.0,0.0,0.0,0.0,0.0,0.0,0.0,0.0,0.0,0.0,0.0,0.0,0.0,0.0,0.0,0.0,0.0,0.0,0.0,0.0,0.0,0.0,0.0,0.0,0.0,0.0,0.0,0.0,0.0,0.0,0.0,0.0,0.0,0.0,0.0,0.0,0.0,0.0,0.0,0.0,0.0,0.0,0.0,0.0,0.0,0.0,0.0,0.0,0.0,0.0,0.0,0.0,0.0,0.0,0.0,0.0,0.0,0.0,0.0,0.0,0.0,0.0,0.0,0.0,0.0,0.0,0.0,0.0,0.0,0.0,0.0,0.0,0.0,0.0,0.0,0.0,0.0,0.0,0.0,0.0,0.0,0.0,0.0,0.0,0.0,0.0,0.0,0.0,0.0,0.0,0.0,0.0,0.0,0.0,0.0,0.0,0.0,0.0,0.0,0.0,0.0,0.0,0.0,0.0,0.0,0.0,0.0,0.0,0.0,0.0,0.0,0.0,0.0,0.0,0.0,0.0,0.0,0.0,0.0,0.0,0.0,0.0,0.0,0.0,0.0,0.0,0.0,0.0,0.0,0.0,0.0,0.0,0.0,0.0,0.0,0.0,0.0,0.0,0.0,0.0,0.0,0.0,0.0,0.0,0.0,0.0,0.0,0.0,0.0,0.0,0.0,0.0,0.0,0.0,0.0,0.0,0.0,0.0,0.0,0.0,0.0,0.0,0.0,0.0,0.0,0.0,0.0,0.0,0.0,0.0,0.0,0.0,0.0,0.0,0.0,0.0,0.0,0.0,0.0,0.0,0.0,0.0,0.0,0.0,0.0,0.0,0.0,0.0,0.0,0.0,0.0,0.0,0.0,0.0,0.0,0.0,0.0,0.0,0.0,0.0,0.0,0.0,0.0,0.0,0.0,0.0,0.0,0.0,0.0,0.0,0.0,0.0,0.0,0.0,0.0,0.0,0.0,0.0,0.0,0.0,0.0,0.0,0.0,0.0,0.0,0.0,0.0,0.0,0.0,0.0,0.0,0.0,0.0,0.0,0.0,0.0,0.0,0.0,0.0,0.0,0.0,0.0,0.0,0.0,0.0,0.0,0.0,0.0,0.0,0.0,0.0,0.0,0.0,0.0,0.0,0.0,0.0,0.0,0.0,0.0,0.0,0.0,0.0,0.0,0.0,0.0,0.0,0.0,0.0,0.0,0.0,0.0,0.0,0.0,0.0,0.0,0.0,0.0,0.0,0.0,0.0,0.0,0.0,0.0,0.0,0.0,0.0,0.0,0.0,0.0,0.0,0.0,0.0,0.0,0.0,0.0,0.0,0.0,0.0,0.0,0.0,0.0,0.0,0.0,0.0,0.0,0.0,0.0,0.0,0.0,0.0,0.0,0.0,0.0,0.0,0.0,0.0,0.0,0.0,0.0,0.0,0.0,0.0,0.0,0.0,0.0,0.0,0.0,0.0,0.0,0.0,0.0,0.0,0.0,0.0,0.0,0.0,0.0,0.0,0.0,0.0,0.0,0.0,0.0,0.0,0.0,0.0,0.0,0.0,0.0,0.0,0.0,0.0,0.0,0.0,0.0,0.0,0.0,0.0,0.0,0.0,0.0,0.0,0.0,0.0,0.0,0.0,0.0,0.0,0.0,0.0,0.0,0.0,0.0,0.0,0.0,0.0,0.0,0.0,0.0,0.0,0.0,0.0,0.0,0.0,0.0,0.0,0.0,0.0,0.0,0.0,0.0,0.0,-2.5034,0.0,0.0,0.0,0.0,0.0,0.0,0.0,0.0,0.0,0.0,0.0,0.0,0.0,0.0,0.0,0.0,0.0,0.0,0.0,0.0,0.0,0.0,0.0,0.0,0.0,0.0,0.0,0.0,0.0,0.0,0.0,0.0,0.0,0.0,0.0,0.0,0.0,0.0,0.0,0.0,0.0,0.0,0.0,0.0,0.0,0.0,0.0,0.0,0.0,0.0,0.0,0.0,0.0,0.0,0.0,0.0,0.0,0.0,0.0,0.0,0.0,0.0,0.0,0.0,0.0,0.0,0.0,0.0,0.0,0.0,0.0,0.0,0.0,0.0,0.0,0.0,0.0,0.0,0.0,0.0,0.0,0.0,0.0,0.0,0.0,0.0,0.0,0.0,0.0,0.0,0.0,0.0,0.0,0.0,0.0,0.0,0.0,0.0,0.0,0.0,0.0,0.0,0.0,0.0,0.0,0.0,0.0,0.0,0.0,0.0,-2.6332,-2.6732,-2.6771,-2.6506,-2.5945,0.0,0.0,0.0,0.0,0.0,0.0,0.0,0.0,0.0,0.0,0.0,0.0,0.0,0.0,0.0,0.0,0.0,0.0,0.0,0.0,0.0,0.0,0.0,0.0,0.0,0.0,0.0,0.0,0.0,0.0,0.0,0.0,0.0,0.0,0.0,0.0,0.0,0.0,0.0,0.0,0.0,0.0,0.0,0.0,0.0,0.0,0.0,0.0,0.0,0.0,0.0,0.0,0.0,0.0,0.0,0.0,0.0,0.0,0.0,0.0,0.0,0.0,0.0,0.0,0.0,0.0,0.0,0.0,0.0,0.0,0.0,0.0,0.0,0.0,0.0,0.0,0.0,0.0,0.0,0.0,0.0,0.0,0.0,0.0,0.0,0.0,0.0,0.0,0.0,0.0,0.0,0.0,0.0,0.0,0.0,0.0,0.0,0.0,0.0,0.0,0.0,0.0,0.0,0.0,0.0,0.0,0.0,0.0,0.0,0.0,0.0,0.0,-2.7722,-2.7386,-2.657,0.0,0.0,0.0,0.0,0.0,0.0,0.0,0.0,0.0,0.0,0.0,0.0,0.0,0.0,0.0,0.0,0.0,0.0,0.0,0.0,0.0,0.0,0.0,0.0,0.0,0.0,0.0,0.0,0.0,0.0,0.0,0.0,0.0,0.0,0.0,0.0,0.0,0.0,0.0,0.0,0.0,0.0,0.0,0.0,0.0,0.0,0.0,0.0,0.0,0.0,0.0,0.0,0.0,0.0,0.0,0.0,0.0,0.0,0.0,0.0,0.0,0.0,0.0,0.0,0.0,0.0,0.0,0.0,0.0,0.0,0.0,0.0,0.0,0.0,0.0,0.0,0.0,0.0,0.0,0.0,0.0,0.0,0.0,0.0,0.0,0.0,0.0,0.0,0.0,0.0,0.0,0.0,0.0,0.0,0.0,0.0,0.0,0.0,0.0,0.0,0.0,0.0,0.0,0.0,0.0,0.0,0.0,0.0,0.0,0.0,-2.6896,-2.6916,-2.7044,0.0,-2.6457,0.0,0.0,0.0,0.0,0.0,0.0,0.0,0.0,0.0,0.0,0.0,0.0,0.0,0.0,0.0,0.0,0.0,0.0,0.0,0.0,0.0,0.0,0.0,0.0,0.0,0.0,0.0,0.0,0.0,0.0,0.0,0.0,0.0,0.0,0.0,0.0,0.0,0.0,0.0,0.0,0.0,0.0,0.0,0.0,0.0,0.0,0.0,0.0,0.0,0.0,0.0,0.0,0.0,0.0,0.0,0.0,0.0,0.0,0.0,0.0,0.0,0.0,0.0,0.0,0.0,0.0,0.0,0.0,0.0,0.0,0.0,0.0,0.0,0.0,0.0,0.0,0.0,0.0,0.0,0.0,0.0,0.0,0.0,0.0,0.0,0.0,0.0,0.0,0.0,0.0,0.0,0.0,0.0,0.0,0.0,0.0,0.0,0.0,0.0,0.0,0.0,0.0,0.0,0.0,0.0,0.0,0.0,0.0,0.0,0.0,-2.6343,-2.6698,-2.6984,-2.6996,0.0,0.0,0.0,0.0,0.0,0.0,0.0,0.0,0.0,0.0,0.0,0.0,0.0,0.0,0.0,0.0,0.0,0.0,0.0,0.0,0.0,0.0,0.0,0.0,0.0,0.0,0.0,0.0,0.0,0.0,0.0,0.0,0.0,0.0,0.0,0.0,0.0,0.0,0.0,0.0,0.0,0.0,0.0,0.0,0.0,0.0,0.0,0.0,0.0,0.0,0.0,0.0,0.0,0.0,0.0,0.0,0.0,0.0,0.0,0.0,0.0,0.0,0.0,0.0,0.0,0.0,0.0,0.0,0.0,0.0,0.0,0.0,0.0,0.0,0.0,0.0,0.0,0.0,0.0,0.0,0.0,0.0,0.0,0.0,0.0,0.0,0.0,0.0,0.0,0.0,0.0,0.0,0.0,0.0,0.0,0.0,0.0,0.0,0.0,0.0,0.0,0.0,0.0,0.0,0.0,0.0,0.0,0.0,0.0,0.0,-2.466,-2.5149,-2.5844,-2.656,-2.6783,-2.647,0.0,0.0,0.0,0.0,0.0,0.0,0.0,0.0,0.0,0.0,0.0,0.0,0.0,0.0,0.0,0.0,0.0,0.0,0.0,0.0,0.0,0.0,0.0,0.0,0.0,0.0,0.0,0.0,0.0,0.0,0.0,0.0,0.0,0.0,0.0,0.0,0.0,0.0,0.0,0.0,0.0,0.0,0.0,0.0,0.0,0.0,0.0,0.0,0.0,0.0,0.0,0.0,0.0,0.0,0.0,0.0,0.0,0.0,0.0,0.0,0.0,0.0,0.0,0.0,0.0,0.0,0.0,0.0,0.0,0.0,0.0,0.0,0.0,0.0,0.0,0.0,0.0,0.0,0.0,0.0,0.0,0.0,0.0,0.0,0.0,0.0,0.0,0.0,0.0,0.0,0.0,0.0,0.0,0.0,0.0,0.0,0.0,0.0,0.0,0.0,0.0,0.0,0.0,0.0,0.0,0.0,0.0,0.0,-2.1917,-2.2419,-2.3141,-2.3952,-2.5529,-2.5982,0.0,0.0,0.0,0.0,0.0,0.0,0.0,0.0,0.0,0.0,0.0,0.0,0.0,0.0,0.0,0.0,0.0,0.0,0.0,0.0,0.0,0.0,0.0,0.0,0.0,0.0,0.0,0.0,0.0,0.0,0.0,0.0,0.0,0.0,0.0,0.0,0.0,0.0,0.0,0.0,0.0,0.0,0.0,0.0,0.0,0.0,0.0,0.0,0.0,0.0,0.0,0.0,0.0,0.0,0.0,0.0,0.0,0.0,0.0,0.0,0.0,0.0,0.0,0.0,0.0,0.0,0.0,0.0,0.0,0.0,0.0,0.0,0.0,0.0,0.0,0.0,0.0,0.0,0.0,0.0,0.0,0.0,0.0,0.0,0.0,0.0,0.0,0.0,0.0,0.0,0.0,0.0,0.0,0.0,0.0,0.0,0.0,0.0,0.0,0.0,0.0,0.0,0.0,0.0,0.0,0.0,0.0,0.0,0.0,-1.8392,-1.8744,-1.9661,-2.1051,-2.3084,-2.4065,0.0,0.0,0.0,0.0,0.0,0.0,0.0,0.0,0.0,0.0,0.0,0.0,0.0,0.0,0.0,0.0,0.0,0.0,0.0,0.0,0.0,0.0,0.0,0.0,0.0,0.0,0.0,0.0,0.0,0.0,0.0,0.0,0.0,0.0,0.0,0.0,0.0,0.0,0.0,0.0,0.0,0.0,0.0,0.0,0.0,0.0,0.0,0.0,0.0,0.0,0.0,0.0,0.0,0.0,0.0,0.0,0.0,0.0,0.0,0.0,0.0,0.0,0.0,0.0,0.0,0.0,0.0,0.0,0.0,0.0,0.0,0.0,0.0,0.0,0.0,0.0,0.0,0.0,0.0,0.0,0.0,0.0,0.0,0.0,0.0,0.0,0.0,0.0,0.0,0.0,0.0,0.0,0.0,0.0,0.0,0.0,0.0,0.0,0.0,0.0,0.0,0.0,0.0,0.0,0.0,0.0,0.0,0.0,0.0,-1.4441,0.0,-1.6225,-1.8261,-2.072,-2.2246,0.0,0.0,0.0,0.0,0.0,0.0,0.0,0.0,0.0,0.0,0.0,0.0,0.0,0.0,0.0,0.0,0.0,0.0,0.0,0.0,0.0,0.0,0.0,0.0,0.0,0.0,0.0,0.0,0.0,0.0,0.0,0.0,0.0,0.0,0.0,0.0,0.0,0.0,0.0,0.0,0.0,0.0,0.0,0.0,0.0,0.0,0.0,0.0,0.0,0.0,0.0,0.0,0.0,0.0,0.0,0.0,0.0,0.0,0.0,0.0,0.0,0.0,0.0,0.0,0.0,0.0,0.0,0.0,0.0,0.0,0.0,0.0,0.0,0.0,0.0,0.0,0.0,0.0,0.0,0.0,0.0,0.0,0.0,0.0,0.0,0.0,0.0,0.0,0.0,0.0,0.0,0.0,0.0,0.0,0.0,0.0,0.0,0.0,0.0,0.0,0.0,0.0,0.0,0.0,0.0,0.0,0.0,0.0,-1.3282,-1.0272,-1.0982,-1.2908,-1.5724,-1.8493,-2.0515,0.0,0.0,0.0,0.0,0.0,0.0,0.0,0.0,0.0,0.0,0.0,0.0,0.0,0.0,0.0,0.0,0.0,0.0,0.0,0.0,0.0,0.0,0.0,0.0,0.0,0.0,0.0,0.0,0.0,0.0,0.0,0.0,0.0,0.0,0.0,0.0,0.0,0.0,0.0,0.0,0.0,0.0,0.0,0.0,0.0,0.0,0.0,0.0,0.0,0.0,0.0,0.0,0.0,0.0,0.0,0.0,0.0,0.0,0.0,0.0,0.0,0.0,0.0,0.0,0.0,0.0,0.0,0.0,0.0,0.0,0.0,0.0,0.0,0.0,0.0,0.0,0.0,0.0,0.0,0.0,0.0,0.0,0.0,0.0,0.0,0.0,0.0,0.0,0.0,0.0,0.0,0.0,0.0,0.0,0.0,0.0,0.0,0.0,0.0,0.0,0.0,0.0,0.0,0.0,0.0,0.0,0.0,0.0,0.0,-0.6473,-0.79,-1.0166,-1.3244,-1.666,-1.9242,0.0,0.0,0.0,0.0,0.0,0.0,0.0,0.0,0.0,0.0,0.0,0.0,0.0,0.0,0.0,0.0,0.0,0.0,0.0,0.0,0.0,0.0,0.0,0.0,0.0,0.0,0.0,0.0,0.0,0.0,0.0,0.0,0.0,0.0,0.0,0.0,0.0,0.0,0.0,0.0,0.0,0.0,0.0,0.0,0.0,0.0,0.0,0.0,0.0,0.0,0.0,0.0,0.0,0.0,0.0,0.0,0.0,0.0,0.0,0.0,0.0,0.0,0.0,0.0,0.0,0.0,0.0,0.0,0.0,0.0,0.0,0.0,0.0,0.0,0.0,0.0,0.0,0.0,0.0,0.0,0.0,0.0,0.0,0.0,0.0,0.0,0.0,0.0,0.0,0.0,0.0,0.0,0.0,0.0,0.0,0.0,0.0,0.0,0.0,0.0,0.0,0.0,0.0,0.0,0.0,0.0,0.0,0.0,0.0,-0.2571,-0.4862,-0.7861,-1.1596,-1.5248,-1.8365,-2.0841,0.0,0.0,0.0,0.0,0.0,0.0,0.0,0.0,0.0,0.0,0.0,0.0,0.0,0.0,0.0,0.0,0.0,0.0,0.0,0.0,0.0,0.0,0.0,0.0,0.0,0.0,0.0,0.0,0.0,0.0,0.0,0.0,0.0,0.0,0.0,0.0,0.0,0.0,0.0,0.0,0.0,0.0,0.0,0.0,0.0,0.0,0.0,0.0,0.0,0.0,0.0,0.0,0.0,0.0,0.0,0.0,0.0,0.0,0.0,0.0,0.0,0.0,0.0,0.0,0.0,0.0,0.0,0.0,0.0,0.0,0.0,0.0,0.0,0.0,0.0,0.0,0.0,0.0,0.0,0.0,0.0,0.0,0.0,0.0,0.0,0.0,0.0,0.0,0.0,0.0,0.0,0.0,0.0,0.0,0.0,0.0,0.0,0.0,0.0,0.0,0.0,0.0,0.0,0.0,0.0,0.0,0.0,0.0,0.1174,-0.2002,-0.594,-1.066,-1.4314,-1.7754,0.0,0.0,0.0,0.0,0.0,0.0,0.0,0.0,0.0,0.0,0.0,0.0,0.0,0.0,0.0,0.0,0.0,0.0,0.0,0.0,0.0,0.0,0.0,0.0,0.0,0.0,0.0,0.0,0.0,0.0,0.0,0.0,0.0,0.0,0.0,0.0,0.0,0.0,0.0,0.0,0.0,0.0,0.0,0.0,0.0,0.0,0.0,0.0,0.0,0.0,0.0,0.0,0.0,0.0,0.0,0.0,0.0,0.0,0.0,0.0,0.0,0.0,0.0,0.0,0.0,0.0,0.0,0.0,0.0,0.0,0.0,0.0,0.0,0.0,0.0,0.0,0.0,0.0,0.0,0.0,0.0,0.0,0.0,0.0,0.0,0.0,0.0,0.0,0.0,0.0,0.0,0.0,0.0,0.0,0.0,0.0,0.0,0.0,0.0,0.0,0.0,0.0,0.0,0.0,0.0,0.0,0.0,0.0,0.0,0.2011,-0.0602,-0.4325,-0.9224,-1.3446,-1.7244,0.0,0.0,0.0,0.0,0.0,0.0,0.0,0.0,0.0,0.0,0.0,0.0,0.0,0.0,0.0,0.0,0.0,0.0,0.0,0.0,0.0,0.0,0.0,0.0,0.0,0.0,0.0,0.0,0.0,0.0,0.0,0.0,0.0,0.0,0.0,0.0,0.0,0.0,0.0,0.0,0.0,0.0,0.0,0.0,0.0,0.0,0.0,0.0,0.0,0.0,0.0,0.0,0.0,0.0,0.0,0.0,0.0,0.0,0.0,0.0,0.0,0.0,0.0,0.0,0.0,0.0,0.0,0.0,0.0,0.0,0.0,0.0,0.0,0.0,0.0,0.0,0.0,0.0,0.0,0.0,0.0,0.0,0.0,0.0,0.0,0.0,0.0,0.0,0.0,0.0,0.0,0.0,0.0,0.0,0.0,0.0,0.0,0.0,0.0,0.0,0.0,0.0,0.0,0.0,0.0,0.0,0.0,0.0,0.2474,0.2635,0.0088,-0.3369,-0.7796,-1.2501,-1.6632,0.0,0.0,0.0,0.0,0.0,0.0,0.0,0.0,0.0,0.0,0.0,0.0,0.0,0.0,0.0,0.0,0.0,0.0,0.0,0.0,0.0,0.0,0.0,0.0,0.0,0.0,0.0,0.0,0.0,0.0,0.0,0.0,0.0,0.0,0.0,0.0,0.0,0.0,0.0,0.0,0.0,0.0,0.0,0.0,0.0,0.0,0.0,0.0,0.0,0.0,0.0,0.0,0.0,0.0,0.0,0.0,0.0,0.0,0.0,0.0,0.0,0.0,0.0,0.0,0.0,0.0,0.0,0.0,0.0,0.0,0.0,0.0,0.0,0.0,0.0,0.0,0.0,0.0,0.0,0.0,0.0,0.0,0.0,0.0,0.0,0.0,0.0,0.0,0.0,0.0,0.0,0.0,0.0,0.0,0.0,0.0,0.0,0.0,0.0,0.0,0.0,0.0,0.0,0.0,0.0,0.0,0.0,0.0,0.2767,0.2838,0.0351,-0.285,-0.6557,-1.156,-1.6054,0.0,0.0,0.0,0.0,0.0,0.0,0.0,0.0,0.0,0.0,0.0,0.0,0.0,0.0,0.0,0.0,0.0,0.0,0.0,0.0,0.0,0.0,0.0,0.0,0.0,0.0,0.0,0.0,0.0,0.0,0.0,0.0,0.0,0.0,0.0,0.0,0.0,0.0,0.0,0.0,0.0,0.0,0.0,0.0,0.0,0.0,0.0,0.0,0.0,0.0,0.0,0.0,0.0,0.0,0.0,0.0,0.0,0.0,0.0,0.0,0.0,0.0,0.0,0.0,0.0,0.0,0.0,0.0,0.0,0.0,0.0,0.0,0.0,0.0,0.0,0.0,0.0,0.0,0.0,0.0,0.0,0.0,0.0,0.0,0.0,0.0,0.0,0.0,0.0,0.0,0.0,0.0,0.0,0.0,0.0,0.0,0.0,0.0,0.0,0.0,0.0,0.0,0.0,0.0,0.0,0.0,0.0,0.0,0.2958,0.2877,0.0597,-0.2426,-0.6049,-1.1011,-1.5543,0.0,0.0,0.0,0.0,0.0,0.0,0.0,0.0,0.0,0.0,0.0,0.0,0.0,0.0,0.0,0.0,0.0,0.0,0.0,0.0,0.0,0.0,0.0,0.0,0.0,0.0,0.0,0.0,0.0,0.0,0.0,0.0,0.0,0.0,0.0,0.0,0.0,0.0,0.0,0.0,0.0,0.0,0.0,0.0,0.0,0.0,0.0,0.0,-3.0581,0.0,0.0,0.0,0.0,0.0,0.0,0.0,0.0,0.0,0.0,0.0,0.0,0.0,0.0,0.0,0.0,0.0,0.0,0.0,0.0,0.0,0.0,0.0,0.0,0.0,0.0,0.0,0.0,0.0,0.0,0.0,0.0,0.0,0.0,0.0,0.0,0.0,0.0,0.0,0.0,0.0,0.0,0.0,0.0,0.0,0.0,0.0,0.0,0.0,0.0,0.0,0.0,0.0,0.0,0.0,0.0,0.0,0.0,0.0,0.2908,0.2672,0.0502,-0.2469,-0.606,-1.0555,-1.4858,0.0,0.0,0.0,0.0,0.0,0.0,0.0,0.0,0.0,0.0,0.0,0.0,0.0,0.0,0.0,0.0,0.0,0.0,0.0,0.0,0.0,0.0,0.0,0.0,0.0,0.0,0.0,0.0,0.0,0.0,0.0,0.0,0.0,0.0,0.0,0.0,0.0,0.0,0.0,0.0,0.0,0.0,0.0,0.0,0.0,0.0,0.0,0.0,0.0,0.0,0.0,0.0,0.0,0.0,0.0,0.0,0.0,0.0,0.0,0.0,0.0,0.0,0.0,0.0,0.0,0.0,0.0,0.0,0.0,0.0,0.0,0.0,0.0,0.0,0.0,0.0,0.0,0.0,0.0,0.0,0.0,0.0,0.0,0.0,0.0,0.0,0.0,0.0,0.0,0.0,0.0,0.0,0.0,0.0,0.0,0.0,0.0,0.0,0.0,0.0,0.0,0.0,0.0,0.0,0.0,0.0,0.0,0.2189,0.2725,0.2413,0.0247,-0.2683,-0.6298,-1.0187,-1.4212,-1.8448,0.0,0.0,0.0,0.0,0.0,0.0,0.0,0.0,0.0,0.0,0.0,0.0,0.0,0.0,0.0,0.0,0.0,0.0,0.0,0.0,0.0,0.0,0.0,0.0,0.0,0.0,0.0,0.0,0.0,0.0,0.0,0.0,0.0,0.0,0.0,0.0,0.0,0.0,-2.7278,-2.6867,0.0,0.0,0.0,0.0,0.0,0.0,0.0,0.0,-3.1815,0.0,0.0,0.0,0.0,0.0,0.0,0.0,0.0,0.0,0.0,0.0,0.0,0.0,0.0,0.0,0.0,0.0,0.0,0.0,0.0,0.0,0.0,0.0,0.0,0.0,0.0,0.0,0.0,0.0,0.0,0.0,0.0,0.0,0.0,0.0,0.0,0.0,0.0,0.0,0.0,0.0,0.0,0.0,0.0,0.0,0.0,0.0,0.0,0.0,0.0,0.0,0.0,0.0,0.0,0.0,0.0,0.1016,0.2155,0.2443,0.1733,-0.008,-0.2786,-0.6417,-0.9749,-1.3717,-1.8446,0.0,0.0,0.0,0.0,0.0,0.0,0.0,0.0,0.0,0.0,0.0,0.0,0.0,0.0,0.0,0.0,0.0,0.0,0.0,0.0,0.0,0.0,0.0,0.0,0.0,0.0,0.0,0.0,0.0,0.0,0.0,0.0,0.0,0.0,0.0,0.0,0.0,0.0,0.0,-2.5586,-2.504,0.0,0.0,0.0,0.0,0.0,0.0,0.0,0.0,-3.2378,0.0,0.0,0.0,0.0,0.0,0.0,0.0,0.0,0.0,0.0,0.0,0.0,0.0,0.0,0.0,0.0,0.0,0.0,0.0,0.0,0.0,0.0,0.0,0.0,0.0,0.0,0.0,0.0,0.0,0.0,0.0,0.0,0.0,0.0,0.0,0.0,0.0,0.0,0.0,0.0,0.0,0.0,0.0,0.0,0.0,0.0,0.0,0.0,0.0,0.0,0.0,0.0,0.0,0.0,0.0,0.0653,0.1717,0.1838,0.1175,-0.08,-0.3583,-0.7033,-1.0415,-1.4231,0.0,0.0,0.0,0.0,0.0,0.0,0.0,0.0,0.0,0.0,0.0,0.0,0.0,0.0,0.0,0.0,0.0,0.0,0.0,0.0,0.0,0.0,0.0,0.0,0.0,0.0,0.0,0.0,0.0,0.0,0.0,0.0,0.0,0.0,0.0,0.0,0.0,0.0,0.0,0.0,-2.4227,-2.3529,-2.412,0.0,0.0,0.0,0.0,0.0,0.0,-2.9709,-3.1046,0.0,0.0,0.0,0.0,0.0,0.0,0.0,0.0,0.0,0.0,0.0,0.0,0.0,0.0,0.0,0.0,0.0,0.0,0.0,0.0,0.0,0.0,0.0,0.0,0.0,0.0,0.0,0.0,0.0,0.0,0.0,0.0,0.0,0.0,0.0,0.0,0.0,0.0,0.0,0.0,0.0,0.0,0.0,0.0,0.0,0.0,0.0,0.0,0.0,0.0,0.0,0.0,0.0,0.0,0.0,0.0145,0.105,0.1154,0.0548,-0.167,-0.4442,-0.7716,-1.1054,-1.4733,0.0,0.0,0.0,0.0,0.0,0.0,0.0,0.0,0.0,0.0,0.0,0.0,0.0,0.0,0.0,0.0,0.0,0.0,0.0,0.0,0.0,0.0,0.0,0.0,0.0,0.0,0.0,0.0,0.0,0.0,0.0,0.0,0.0,0.0,0.0,0.0,0.0,0.0,0.0,0.0,0.0,-2.1907,-2.2291,-2.2594,0.0,0.0,0.0,0.0,-2.7126,-2.816,0.0,0.0,0.0,0.0,0.0,0.0,0.0,0.0,0.0,0.0,0.0,0.0,0.0,0.0,0.0,0.0,0.0,0.0,0.0,0.0,0.0,0.0,0.0,0.0,0.0,0.0,0.0,0.0,0.0,0.0,0.0,0.0,0.0,0.0,0.0,0.0,0.0,0.0,0.0,0.0,0.0,0.0,0.0,0.0,0.0,0.0,0.0,0.0,0.0,0.0,0.0,0.0,0.0,0.0,0.0,0.0,-0.058,0.0152,0.0156,-0.0469,-0.2501,-0.5123,-0.8256,-1.1016,-1.4458,0.0,0.0,0.0,0.0,0.0,0.0,0.0,0.0,0.0,0.0,0.0,0.0,0.0,0.0,0.0,0.0,0.0,0.0,0.0,0.0,0.0,0.0,0.0,0.0,0.0,0.0,0.0,0.0,0.0,0.0,0.0,0.0,0.0,0.0,0.0,0.0,0.0,0.0,0.0,0.0,0.0,-1.9942,-1.949,-2.0265,-2.1436,0.0,0.0,-2.4416,-2.5227,-2.6771,0.0,0.0,0.0,0.0,0.0,0.0,0.0,0.0,0.0,0.0,0.0,0.0,0.0,0.0,0.0,0.0,0.0,0.0,0.0,0.0,0.0,0.0,0.0,0.0,0.0,0.0,0.0,0.0,0.0,0.0,0.0,0.0,0.0,0.0,0.0,0.0,0.0,0.0,0.0,0.0,0.0,0.0,0.0,0.0,0.0,0.0,0.0,0.0,0.0,0.0,0.0,0.0,0.0,0.0,0.0,-0.5154,-0.2216,-0.1307,-0.1175,-0.1718,-0.3812,-0.6271,-0.9096,-1.1787,-1.5059,0.0,0.0,0.0,0.0,0.0,0.0,0.0,0.0,0.0,0.0,0.0,0.0,0.0,0.0,0.0,0.0,0.0,0.0,0.0,0.0,0.0,0.0,0.0,0.0,0.0,0.0,0.0,0.0,0.0,0.0,0.0,0.0,0.0,0.0,0.0,0.0,0.0,0.0,0.0,0.0,0.0,0.0,-1.8037,-1.866,0.0,0.0,0.0,-2.3146,-2.4008,0.0,0.0,0.0,0.0,0.0,0.0,0.0,0.0,0.0,0.0,0.0,0.0,0.0,0.0,0.0,0.0,0.0,0.0,0.0,0.0,0.0,0.0,0.0,0.0,0.0,0.0,0.0,0.0,0.0,0.0,0.0,0.0,0.0,0.0,0.0,0.0,0.0,0.0,0.0,0.0,0.0,0.0,0.0,0.0,0.0,0.0,0.0,0.0,0.0,0.0,0.0,0.0,0.0,0.0,0.0,0.0,0.0,-0.4117,-0.316,-0.289,-0.335,-0.5437,-0.7718,-1.0094,-1.2806,0.0,0.0,0.0,0.0,0.0,0.0,0.0,0.0,0.0,0.0,0.0,0.0,0.0,0.0,0.0,0.0,0.0,0.0,0.0,0.0,0.0,0.0,0.0,0.0,0.0,0.0,0.0,-2.8189,0.0,0.0,0.0,0.0,0.0,0.0,0.0,0.0,0.0,0.0,0.0,0.0,0.0,0.0,-1.7562,-1.7115,-1.7382,-1.8295,0.0,0.0,-2.2227,-2.3202,-2.4553,-2.6191,0.0,0.0,0.0,0.0,0.0,0.0,0.0,0.0,0.0,0.0,0.0,0.0,0.0,0.0,0.0,0.0,0.0,0.0,0.0,0.0,0.0,0.0,0.0,0.0,0.0,0.0,0.0,0.0,0.0,0.0,0.0,0.0,0.0,0.0,0.0,0.0,0.0,0.0,0.0,0.0,0.0,0.0,0.0,0.0,0.0,0.0,0.0,0.0,0.0,0.0,0.0,0.0,0.0,0.0,-0.8374,-0.6187,-0.5222,-0.4982,-0.5437,-0.7279,-0.9256,-1.1434,-1.3792,-1.6183,0.0,0.0,0.0,0.0,0.0,0.0,0.0,0.0,0.0,0.0,0.0,0.0,0.0,0.0,0.0,0.0,0.0,0.0,0.0,0.0,0.0,0.0,0.0,0.0,0.0,0.0,0.0,0.0,0.0,0.0,0.0,0.0,0.0,0.0,0.0,0.0,0.0,0.0,0.0,0.0,0.0,-1.6988,-1.6317,-1.6669,-1.7483,0.0,-2.0348,-2.1526,-2.296,-2.4211,-2.5775,-2.7475,0.0,0.0,0.0,0.0,0.0,0.0,0.0,0.0,0.0,0.0,0.0,0.0,0.0,0.0,0.0,0.0,0.0,0.0,0.0,0.0,0.0,0.0,0.0,0.0,0.0,0.0,0.0,0.0,0.0,0.0,0.0,0.0,0.0,0.0,0.0,0.0,0.0,0.0,0.0,0.0,0.0,0.0,0.0,0.0,0.0,0.0,0.0,0.0,0.0,0.0,0.0,0.0,0.0,-1.0578,-0.8496,-0.7614,-0.7351,-0.7719,-0.9173,-1.0852,-1.2593,-1.4579,-1.6622,0.0,0.0,0.0,0.0,0.0,0.0,0.0,0.0,0.0,0.0,0.0,0.0,0.0,0.0,0.0,0.0,0.0,0.0,0.0,0.0,0.0,0.0,0.0,0.0,0.0,0.0,0.0,0.0,-2.8034,-2.7864,-2.839,0.0,0.0,0.0,0.0,0.0,0.0,0.0,0.0,0.0,0.0,-1.6557,-1.6028,-1.6393,0.0,0.0,-1.9985,-2.1168,-2.252,-2.3714,-2.5052,-2.6509,-2.7484,0.0,0.0,0.0,0.0,0.0,0.0,0.0,0.0,0.0,0.0,0.0,0.0,0.0,0.0,0.0,0.0,0.0,0.0,0.0,0.0,0.0,0.0,0.0,0.0,0.0,0.0,0.0,0.0,0.0,0.0,0.0,0.0,0.0,0.0,0.0,0.0,0.0,0.0,0.0,0.0,0.0,0.0,0.0,0.0,0.0,0.0,0.0,0.0,0.0,0.0,0.0,0.0,-1.2692,-1.0873,-1.0066,-0.9734,-0.9881,-1.1156,-1.2493,-1.3914,-1.5569,-1.7298,0.0,0.0,0.0,0.0,0.0,0.0,0.0,0.0,0.0,0.0,0.0,0.0,0.0,0.0,0.0,0.0,0.0,0.0,0.0,0.0,0.0,0.0,0.0,0.0,0.0,0.0,0.0,0.0,-2.8521,-2.8323,-2.9088,0.0,0.0,0.0,0.0,0.0,0.0,0.0,0.0,0.0,0.0,-1.6592,-1.6223,-1.6581,-1.7419,-1.8796,-2.0076,-2.1257,-2.2344,-2.3484,-2.4584,-2.5724,0.0,0.0,0.0,0.0,0.0,0.0,0.0,0.0,0.0,0.0,0.0,0.0,0.0,0.0,0.0,0.0,0.0,0.0,0.0,0.0,0.0,0.0,0.0,0.0,0.0,0.0,0.0,0.0,0.0,0.0,-2.1468,0.0,0.0,0.0,0.0,0.0,0.0,0.0,0.0,0.0,0.0,0.0,0.0,0.0,0.0,0.0,0.0,0.0,0.0,0.0,0.0,0.0,0.0,-1.4571,-1.3324,-1.2531,-1.2111,-1.2184,-1.306,-1.4109,-1.5349,-1.6832,-1.8364,-1.9867,0.0,0.0,0.0,0.0,0.0,0.0,0.0,0.0,0.0,0.0,0.0,0.0,0.0,0.0,0.0,0.0,0.0,0.0,0.0,0.0,0.0,0.0,0.0,0.0,0.0,0.0,-2.9195,-2.8788,-2.9117,0.0,0.0,0.0,0.0,0.0,0.0,0.0,0.0,0.0,-1.9951,-1.8153,-1.7059,-1.7023,-1.7333,-1.8156,-1.9355,-2.0538,-2.1722,-2.2618,-2.359,-2.454,0.0,0.0,0.0,0.0,0.0,0.0,0.0,0.0,0.0,0.0,0.0,0.0,0.0,0.0,0.0,0.0,0.0,0.0,0.0,0.0,0.0,0.0,0.0,0.0,0.0,0.0,0.0,-2.1718,-2.1912,0.0,0.0,0.0,0.0,0.0,0.0,0.0,0.0,0.0,0.0,0.0,-2.2706,-2.339,0.0,0.0,0.0,0.0,0.0,0.0,0.0,0.0,0.0,0.0,0.0,0.0,-1.6565,-1.5387,-1.4727,-1.4409,-1.4416,-1.4811,-1.5564,-1.6588,-1.7655,-1.9293,-2.1615,0.0,0.0,0.0,0.0,0.0,0.0,0.0,0.0,0.0,0.0,0.0,0.0,0.0,0.0,0.0,0.0,0.0,0.0,0.0,0.0,0.0,0.0,0.0,0.0,0.0,-2.9689,0.0,0.0,0.0,0.0,0.0,0.0,0.0,0.0,0.0,0.0,0.0,-2.1214,-1.9592,-1.837,-1.7614,-1.7762,-1.8265,-1.9088,0.0,0.0,0.0,0.0,0.0,0.0,0.0,0.0,0.0,0.0,0.0,0.0,0.0,0.0,-3.4073,-3.5277,-3.5503,-3.5359,-3.4782,0.0,0.0,0.0,0.0,0.0,0.0,0.0,0.0,0.0,0.0,0.0,0.0,0.0,0.0,-2.3029,0.0,-2.3024,0.0,0.0,0.0,0.0,0.0,0.0,0.0,0.0,-2.3275,-2.3668,-2.4511,-2.5078,-2.5457,0.0,-2.7002,-2.6896,0.0,0.0,0.0,0.0,0.0,0.0,0.0,0.0,-1.8237,-1.721,-1.6538,-1.6252,-1.6225,-1.639,-1.6839,-1.7709,-1.9105,-2.0797,-2.2863,-2.4081,-2.5089,0.0,0.0,0.0,0.0,0.0,0.0,0.0,0.0,0.0,0.0,0.0,0.0,0.0,0.0,0.0,0.0,0.0,0.0,0.0,0.0,0.0,0.0,0.0,-2.8453,0.0,0.0,0.0,0.0,0.0,0.0,0.0,0.0,0.0,-2.4672,-2.2924,-2.1234,-1.9791,-1.9011,-1.8648,-1.8788,0.0,0.0,0.0,0.0,0.0,0.0,0.0,-2.4615,-2.52,-2.603,-2.694,-2.7834,-2.9175,-3.0726,-3.2332,0.0,0.0,-3.4695,-3.5009,-3.4889,-3.439,-3.4274,-3.4206,-3.3879,-3.2987,-3.2277,0.0,0.0,0.0,0.0,0.0,0.0,0.0,0.0,-2.4085,-2.399,0.0,-2.441,0.0,0.0,0.0,0.0,0.0,-2.4632,0.0,0.0,-2.4737,-2.5351,-2.6422,-2.6989,-2.7383,-2.7634,-2.8153,-2.804,-2.725,-2.6288,0.0,0.0,0.0,0.0,0.0,0.0,-1.9541,-1.888,-1.8147,-1.7701,-1.7667,-1.7696,-1.8059,-1.8761,-2.1027,-2.261,-2.3445,-2.4673,-2.5635,-2.6279,-2.6954,0.0,0.0,0.0,0.0,0.0,0.0,0.0,0.0,0.0,0.0,0.0,0.0,0.0,0.0,0.0,0.0,0.0,0.0,0.0,0.0,-2.8215,0.0,0.0,0.0,0.0,0.0,0.0,0.0,0.0,0.0,0.0,-2.4619,-2.3213,-2.1845,-2.0613,0.0,0.0,0.0,0.0,-2.0898,-2.1606,-2.2344,-2.2979,-2.3503,-2.4348,-2.52,-2.5852,0.0,0.0,-2.8566,-2.9774,-3.0691,-3.124,-3.1874,-3.2778,-3.4128,-3.4182,-3.3928,-3.3396,-3.3479,-3.3339,-3.2846,-3.2533,-3.216,-2.3722,0.0,0.0,0.0,0.0,-2.5804,-2.5814,-2.5865,-2.5565,-2.5373,-2.5205,-2.499,0.0,0.0,0.0,0.0,0.0,0.0,-2.605,-2.602,-2.6003,-2.6497,-2.7335,-2.79,-2.826,-2.8441,-2.8892,-2.9034,-2.8844,-2.794,-2.6813,-2.5638,0.0,0.0,0.0,0.0,-2.0846,-2.0417,-1.9616,-1.9235,-1.9301,-1.896,-1.9141,-1.9895,-2.1457,-2.2678,-2.3406,-2.4834,-2.5924,-2.6624,-2.7115,0.0,0.0,0.0,0.0,0.0,0.0,0.0,0.0,0.0,0.0,0.0,0.0,0.0,0.0,0.0,0.0,0.0,0.0,0.0,-2.7965,-2.7141,-2.6844,0.0,0.0,0.0,0.0,0.0,0.0,0.0,0.0,0.0,-2.5487,-2.3752,-2.2388,0.0,0.0,-2.1409,-2.1507,-2.1891,-2.2344,-2.2696,-2.3144,0.0,-2.4444,-2.5105,-2.5863,-2.6517,-2.736,-2.8259,-2.8895,-2.9398,-3.0027,-3.0811,-3.1251,-3.1733,-3.2264,-3.2769,-3.2941,-3.2712,-3.2846,-3.2846,-3.2561,-3.2286,-3.195,-2.3977,-2.4415,-2.5073,-2.5851,-2.6656,-2.6663,-2.6736,-2.6919,-2.6542,-2.6238,-2.6005,-2.5664,-2.5827,-2.6327,-2.6661,0.0,0.0,0.0,-2.7233,-2.7284,-2.6891,-2.7145,-2.7982,-2.8132,-2.8326,-2.8619,-2.8995,-2.9108,-2.9057,-2.857,-2.7728,-2.6708,0.0,0.0,-2.3232,-2.2517,-2.1944,-2.136,-2.0665,-2.0316,-2.0282,-2.0012,-2.0158,-2.09,-2.1783,-2.2646,-2.3522,-2.4802,-2.5929,-2.6807,-2.7348,-2.8081,0.0,0.0,0.0,0.0,0.0,0.0,0.0,0.0,0.0,0.0,0.0,-3.4813,-3.4486,0.0,0.0,0.0,-3.0434,-2.856,-2.6687,-2.6482,0.0,0.0,0.0,0.0,0.0,0.0,0.0,-2.8933,-2.8258,-2.7589,-2.6703,-2.5382,-2.4157,-2.3134,-2.2911,-2.2824,-2.2921,0.0,-2.315,-2.3312,-2.3588,-2.3981,-2.4554,-2.5295,-2.6015,-2.6895,-2.7693,-2.8273,-2.858,-2.8797,-2.9214,-2.977,-3.0318,-3.0764,-3.0979,-3.1827,-3.2428,-3.2223,-3.2417,-3.2561,-3.2417,-3.2214,-3.2023,-2.379,-2.437,-2.5177,-2.5886,-2.6457,-2.6853,-2.7333,-2.7729,-2.7029,-2.6721,-2.6625,-2.6379,-2.6602,-2.7175,-2.8183,0.0,-2.8356,-2.8172,-2.8119,-2.8208,-2.7337,-2.744,-2.8328,-2.7987,-2.7958,-2.8335,-2.8563,-2.8623,-2.8425,-2.8495,-2.8368,-2.7867,-2.6311,-2.4879,-2.3772,-2.3314,-2.2727,-2.1959,-2.1468,-2.1074,-2.0843,-2.0845,-2.1097,-2.1628,-2.2034,-2.267,-2.3642,-2.4788,-2.5864,-2.6886,-2.7601,-2.8165,-2.8528,0.0,0.0,0.0,0.0,0.0,0.0,0.0,0.0,0.0,0.0,0.0,0.0,0.0,0.0,-3.1247,-2.8807,0.0,-2.6581,-2.6246,0.0,0.0,0.0,-2.9302,-3.0241,-3.0383,-3.0137,-2.9312,0.0,0.0,-2.798,-2.751,-2.6603,-2.4893,-2.4405,-2.4245,-2.4224,-2.377,-2.3618,-2.3878,-2.385,-2.3966,-2.453,-2.5295,-2.6223,-2.7146,-2.7594,-2.789,-2.7977,-2.8258,-2.8451,-2.86,-2.9198,-2.9973,-3.0336,-3.1267,-3.2006,-3.1906,-3.2205,-3.2489,-3.2489,-3.2489,-3.2318,-2.3145,-2.3682,-2.4646,-2.5816,-2.698,-2.7157,-2.7288,-2.7429,-2.7251,-2.6914,-2.6527,-2.6596,-2.7108,-2.8026,-2.8702,-2.8994,-2.9052,-2.8657,-2.8207,-2.7768,-2.7235,-2.7111,-2.7331,-2.7671,-2.8085,-2.8368,-2.8641,-2.8895,-2.9028,-2.8502,-2.8199,-2.8061,-2.688,-2.5883,-2.5122,-2.3953,-2.3228,-2.3041,-2.2042,-2.1524,-2.143,-2.1407,-2.1413,-2.133,-2.24,-2.3163,-2.3494,-2.5207,-2.6488,-2.7175,-2.7829,-2.8282,-2.8562,-2.9022,0.0,0.0,0.0,0.0,0.0,0.0,0.0,0.0,0.0,-3.3938,-3.3413,0.0,-3.1722,0.0,-2.891,-2.7518,-2.6807,-2.7284,0.0,0.0,-2.9704,-3.0365,-3.0975,-3.1213,-3.1048,-3.039,-2.9961,-2.9412,-2.8528,-2.8171,-2.7538,-2.6395,-2.571,-2.5175,-2.4584,-2.4443,-2.4357,-2.4415,-2.4533,-2.4893,-2.537,-2.637,-2.715,-2.7804,-2.8097,-2.8268,-2.8375,-2.8605,-2.8821,-2.8964,-2.9398,-2.983,-3.0194,-3.0745,-3.1254,-3.165,-3.2388,-3.3058,-3.3129,-3.2974,-3.2636,-2.2506,-2.3098,-2.4127,-2.509,-2.607,-2.6689,-2.6809,-2.6536,-2.6546,-2.6299,-2.5826,-2.6309,-2.6933,-2.7759,-2.8393,-2.8797,-2.8895,-2.8689,-2.8326,-2.788,-2.7381,-2.7131,-2.7111,-2.7315,-2.7521,-2.7864,-2.8081,-2.8296,-2.8494,-2.8084,-2.7869,-2.7817,-2.6842,-2.6146,-2.5674,-2.4587,-2.3676,-2.3111,-2.24,-2.2076,-2.2156,-2.1971,-2.1957,-2.2017,-2.2661,-2.3274,-2.3864,-2.5244,-2.6385,-2.7269,-2.7858,-2.8309,-2.8562,-2.8791,-2.936,0.0,0.0,0.0,0.0,0.0,0.0,0.0,0.0,0.0,0.0,0.0,-3.1033,-2.998,-2.8763,-2.803,-2.794,-2.8299,-2.8876,-2.9757,-3.0512,-3.1075,-3.15,-3.1789,-3.1669,-3.0842,-3.0494,-2.9951,-2.9177,-2.8807,-2.831,-2.7541,-2.6916,-2.6188,-2.5449,-2.5113,-2.4876,-2.4661,-2.4648,-2.4777,-2.5254,-2.5917,-2.6559,-2.6904,-2.7109,-2.7233,-2.7288,-2.7491,-2.7852,-2.8303,-2.896,-2.9618,-3.0264,-3.0996,-3.1561,-3.2025,-3.2694,-3.3073,-3.2915,-3.3075,-3.2939,-2.182,-2.259,-2.3472,-2.4063,-2.4412,-2.5699,-2.5902,-2.5456,-2.5532,-2.5369,-2.5174,-2.6003,-2.6661,-2.7129,-2.7894,-2.8353,-2.8505,-2.8541,-2.8404,-2.8068,-2.7388,-2.7065,-2.7057,-2.6683,-2.6696,-2.6982,-2.7083,-2.7235,-2.732,-2.732,-2.7285,-2.7119,-2.6456,-2.5933,-2.5596,-2.4986,-2.4012,-2.2734,-2.256,-2.2632,-2.2934,-2.2614,-2.2644,-2.3021,-2.2948,-2.3428,-2.4489,-2.5246,-2.616,-2.7251,-2.7886,-2.8282,-2.8484,-2.8743,-2.9284,0.0,-3.0943,0.0,0.0,0.0,0.0,0.0,0.0,0.0,0.0,-3.1333,-3.034,-2.9135,-2.8636,-2.8645,-2.932,-2.9272,-2.959,-3.0665,-3.1118,-3.1513,-3.1778,-3.2095,-3.1993,-3.1037,-3.0757,-3.0458,-2.9814,-2.9429,-2.8996,-2.8216,-2.7687,-2.7047,-2.6322,-2.5728,-2.5264,-2.4743,-2.4469,-2.4534,-2.4756,-2.5102,-2.5486,-2.5675,-2.5892,-2.5772,-2.6028,-2.6215,-2.6644,-2.7377,-2.8318,-2.9226,-3.0276,-3.1131,-3.1806,-3.2134,-3.2482,-3.2687,-3.2605,-3.2948,-3.305,-2.124,-2.1893,-2.2919,-2.3366,-2.3441,-2.4293,-2.4773,-2.4988,-2.5037,-2.5371,-2.5857,-2.639,-2.7069,-2.7734,-2.8297,-2.8691,-2.8921,-2.8591,-2.7958,-2.7151,-2.6648,-2.6059,-2.5485,-2.56,-2.5671,-2.5734,-2.5878,-2.5941,-2.5974,-2.5974,-2.5974,-2.5941,-2.5649,-2.5304,-2.4769,0.0,0.0,0.0,-2.2857,-2.3038,-2.3216,-2.3317,-2.3345,-2.3253,-2.4045,0.0,-2.4748,-2.5832,-2.6737,-2.7355,-2.7922,0.0,0.0,0.0,0.0,0.0,0.0,0.0,0.0,0.0,0.0,0.0,-3.2438,-3.2162,-3.1806,-3.0697,-2.9633,-2.8713,-2.9251,-2.9606,-2.933,-3.0119,-3.0862,-3.1424,-3.1322,-3.1445,-3.1982,-3.1924,-3.159,-3.1263,-3.1114,-3.0691,-2.9939,-2.9777,-2.9236,-2.8002,-2.7608,-2.7128,-2.622,-2.5707,-2.5345,-2.5197,-2.4983,-2.5025,-2.5205,-2.5558,-2.588,-2.6233,-2.6356,-2.6377,-2.658,-2.6775,-2.7161,-2.7712,-2.806,-2.8466,-2.9088,-2.9348,-2.9856,-3.06,-3.1234,-3.1856,-3.2706,-3.2952,-3.2864,-2.0722,0.0,-2.2237,-2.2639,0.0,-2.3144,-2.3339,-2.3395,-2.3837,-2.4255,-2.462,-2.5131,-2.5688,-2.6272,-2.6712,-2.7011,-2.7255,-2.7095,-2.6767,-2.6249,-2.6027,-2.569,-2.5269,-2.5411,-2.5521,-2.5506,-2.5661,-2.5708,-2.5708,-2.577,-2.5816,-2.5816,-2.5424,-2.5047,-2.4717,-2.3969,-2.3287,-2.26,-2.2464,-2.2592,-2.3131,-2.3299,-2.3575,-2.402,-2.4666,0.0,0.0,0.0,0.0,0.0,0.0,0.0,0.0,0.0,0.0,-3.042,-3.0812,-3.149,-3.2511,-3.2827,-3.282,-3.2523,-3.2091,-3.1691,-3.124,-3.0377,-2.9733,-2.9359,-2.9689,-3.0011,-3.0217,-3.0672,-3.1127,-3.1619,-3.1797,-3.1946,-3.2138,-3.2266,-3.2118,-3.1561,-3.1454,-3.0998,-2.9874,-2.9685,-2.9181,-2.8158,-2.7751,-2.7412,-2.6864,-2.6159,-2.5576,-2.5269,-2.5068,-2.5069,-2.5223,-2.5593,-2.59,-2.6075,-2.6191,-2.6365,-2.6479,-2.6693,-2.7046,-2.7626,-2.7894,-2.8219,-2.8878,-2.906,-2.9241,-2.9809,-3.0197,-3.0604,-3.1278,-3.208,-3.2509,-2.0167,-2.1021,-2.1531,-2.1894,-2.2216,-2.2388,-2.224,-2.2053,0.0,0.0,0.0,-2.3849,-2.4341,-2.4722,-2.5091,-2.5291,-2.5423,-2.5548,-2.5543,-2.5425,-2.5422,-2.536,-2.5302,-2.5241,-2.5302,-2.5302,-2.5455,-2.55,-2.55,-2.5652,-2.5757,-2.5712,-2.5179,-2.4856,-2.463,-2.3381,-2.2551,-2.2278,-2.1914,-2.2079,-2.2879,-2.2983,-2.3482,-2.4516,-2.4764,-2.5104,-2.5667,-2.6201,-2.6736,-2.7257,-2.7701,-2.8073,-2.838,-2.8554,-2.8982,-2.9805,-3.0378,-3.1037,-3.1761,-3.2366,-3.2677,-3.2523,-3.2002,-3.1428,-3.0814,-3.0326,-3.0097,-3.0069,-2.9926,-3.013,-3.0929,-3.0929,-3.1025,-3.146,-3.1845,-3.2031,-3.1928,-3.2243,-3.2138,-3.1559,-3.1337,-3.0969,-2.9798,-2.9508,-2.9102,-2.8382,-2.7954,-2.7482,-2.7197,-2.6489,-2.5813,-2.5316,-2.5181,-2.5032,-2.5093,-2.537,-2.5642,-2.553,-2.5731,-2.5891,-2.5944,-2.6088,-2.6486,-2.7021,-2.7384,-2.7783,-2.8542,-2.8729,-2.9017,-2.9343,-2.9493,-2.9567,-2.9808,-3.0908,-3.1777,-1.9734,-2.0427,-2.0913,-2.1368,-2.1805,-2.2082,-2.2246,-2.2471,-2.2908,-2.3387,-2.39,-2.4341,-2.4737,-2.514,-2.5283,-2.5426,-2.5565,-2.5583,-2.5285,-2.4732,-2.4762,-2.4492,-2.404,-2.3921,-2.4023,-2.4212,-2.4341,-2.4326,-2.4368,-2.4625,-2.4709,-2.4709,-2.4668,-2.4312,-2.3566,-2.2186,-2.1489,-2.1541,-2.1866,-2.2156,-2.2463,-2.2599,-2.2912,-2.3423,-2.3823,-2.4115,-2.4446,-2.5518,-2.6186,-2.6486,-2.7494,-2.8164,-2.838,-2.8551,-2.9082,-2.9897,-3.0002,-3.0341,-3.1002,-3.1672,-3.2166,-3.2435,-3.2266,-3.1768,-3.1038,-3.0634,-3.0349,-3.006,-3.0234,-3.0355,-3.0286,-3.0576,-3.0735,-3.0705,-3.0644,-3.0577,-3.0647,-3.0677,-3.0661,-3.05,-3.0226,-3.0162,-2.9759,-2.9669,-2.9253,-2.838,-2.7969,-2.7501,-2.6336,-2.6092,-2.5958,-2.5589,-2.5605,-2.5546,-2.5205,-2.5341,-2.5377,-2.4969,-2.5034,-2.5206,-2.5319,-2.5369,-2.5546,-2.5726,-2.5986,-2.6258,-2.6922,-2.71,-2.7635,-2.8541,-2.8828,-2.9122,-2.9576,-3.0137,-3.0271,-1.9345,-2.0085,-2.0545,-2.0986,-2.1383,-2.1262,-2.1453,-2.1785,-2.181,-2.2409,-2.3288,-2.3743,-2.4036,-2.4266,-2.4372,-2.4462,-2.4522,-2.4627,-2.4447,-2.4191,-2.4292,-2.4197,-2.3982,-2.3964,-2.4105,-2.4276,-2.4359,-2.4451,-2.4558,-2.4735,-2.4831,-2.4839,-2.4547,-2.3806,-2.2728,-2.2032,-2.1579,-2.1334,-2.1307,-2.1579,-2.2185,-2.235,-2.2788,-2.3533,-2.3786,-2.4129,-2.4428,-2.5116,-2.5629,-2.591,-2.6579,-2.7036,-2.7186,-2.7398,-2.7679,-2.8085,-2.8931,-2.9503,-2.9737,-3.0758,-3.1397,-3.1471,-3.1314,-3.1196,-3.1093,-3.098,-3.0781,-3.0426,-3.0484,-3.0518,-3.0509,-3.0641,-3.0812,-3.0911,-3.0878,-3.0783,-3.0767,-3.0709,-3.0608,-3.0572,-3.0469,-3.0228,-2.9771,-2.9608,-2.9261,-2.8399,-2.782,-2.6911,-2.5796,-2.5806,-2.5701,-2.5133,-2.5142,-2.5249,-2.5164,-2.5319,-2.5336,-2.5173,-2.5287,-2.5396,-2.5506,-2.5538,-2.5631,-2.574,-2.574,-2.5876,-2.6273,-2.6396,-2.6746,-2.7149,-2.7468,-2.7804,-2.8369,-2.8828,-2.9261,-1.8655,-1.9359,-1.9837,-2.0269,-2.0757,-2.0543,-2.0702,-2.1092,-2.0997,-2.1484,-2.2411,-2.2731,-2.2977,-2.3106,-2.3176,-2.3293,-2.3398,-2.3405,-2.3519,-2.3682,-2.3697,-2.3744,-2.38,-2.4024,-2.412,-2.4138,-2.417,-2.4312,-2.4544,-2.4691,-2.482,-2.4836,-2.4225,-2.3323,-2.2261,-2.2084,-2.1795,-2.1356,-2.1071,-2.1246,-2.1888,-2.2135,-2.2621,-2.3437,-2.3706,-2.3964,-2.4259,-2.4743,-2.5121,-2.5392,-2.5804,-2.6087,-2.625,-2.6443,-2.653,-2.668,-2.7791,-2.8635,-2.8952,-2.986,-3.0568,-3.0764,-3.0621,-3.0665,-3.0973,-3.1237,-3.1261,-3.0948,-3.0773,-3.07,-3.0828,-3.0782,-3.083,-3.1101,-3.1059,-3.0914,-3.0879,-3.0879,-3.0831,-3.0701,-3.0701,-3.0352,-2.9862,-2.956,-2.9135,-2.829,-2.7269,-2.632,-2.5773,-2.5561,-2.5182,-2.4885,-2.4872,-2.5129,-2.5216,-2.5297,-2.53,-2.5318,-2.5409,-2.5423,-2.5499,-2.5649,-2.5724,-2.5632,-2.5649,-2.5739,-2.5903,-2.601,-2.6178,-2.6539,-2.6696,-2.6762,-2.7272,-2.7721,-2.8429,-1.7267,-1.7971,-1.8407,-1.8993,-1.9809,-2.0136,-2.0514,-2.0854,-2.1114,-2.1429,-2.1679,-2.1683,-2.1754,-2.1874,-2.1969,-2.2325,-2.2817,-2.2449,-2.2629,-2.3136,-2.2748,-2.2676,-2.2942,-2.337,-2.338,-2.3138,-2.3151,-2.3359,-2.36,-2.3791,-2.393,-2.3934,-2.3227,-2.2801,-2.2586,-2.2044,-2.1744,-2.1768,-2.1895,-2.1853,-2.165,-2.1893,-2.2219,-2.2596,-2.2892,-2.3085,-2.3342,-2.4162,-2.4688,-2.4849,-2.5649,-2.6227,-2.6407,-2.6536,-2.6643,-2.6725,-2.6968,-2.7672,-2.896,-2.9241,-2.9829,-3.1045,-3.0956,-3.0812,-3.0754,-3.1235,-3.1595,-3.1491,-3.121,-3.1078,-3.1066,-3.0775,-3.0622,-3.0662,-3.0527,-3.0315,-3.0321,-3.0168,-3.008,-3.0064,-3.0089,-2.9823,-2.972,-2.9537,-2.9007,-2.7936,-2.6741,-2.583,-2.5509,-2.5149,-2.4896,-2.4837,-2.5326,-2.5606,-2.5271,-2.5236,-2.5124,-2.4775,-2.4647,-2.4823,-2.4968,-2.4922,-2.4782,-2.5165,-2.4906,-2.5108,-2.5508,-2.5768,-2.6025,-2.6392,-2.6655,-2.695,-2.6985,-2.7158,-2.7668,-1.7228,-1.7858,-1.8273,-1.9002,-1.9869,-1.9978,-2.0194,-2.0502,-2.0395,-2.046,-2.0662,-2.0758,-2.1197,-2.1901,-2.1955,-2.2185,-2.2422,-2.2355,-2.2523,-2.2831,-2.2807,-2.29,-2.308,-2.3333,-2.3439,-2.3446,-2.3434,-2.3536,-2.3786,-2.3967,-2.3849,-2.3527,-2.3223,-2.2919,-2.2513,-2.2257,-2.2175,-2.2343,-2.2409,-2.2463,-2.2483,-2.2419,-2.2535,-2.2747,-2.2985,-2.3206,-2.3407,-2.388,-2.4176,-2.4299,-2.4754,-2.5061,-2.5202,-2.5319,-2.5393,-2.5501,-2.6056,-2.6839,-2.7867,-2.8368,-2.8845,-2.9403,-2.9752,-3.0027,-3.0319,-3.0478,-3.07,-3.115,-3.155,-3.1714,-3.1473,-3.132,-3.1116,-3.0918,-3.0771,-3.064,-3.051,-3.0063,-2.9865,-3.0185,-2.9863,-2.9739,-2.9933,-2.9524,-2.8732,-2.7726,-2.663,-2.5923,-2.548,-2.5187,-2.5139,-2.5194,-2.5592,-2.5507,-2.5072,-2.4994,-2.4977,-2.4925,-2.495,-2.5029,-2.5052,-2.5052,-2.5084,-2.5052,-2.5013,-2.5076,-2.5417,-2.5536,-2.5719,-2.6158,-2.6534,-2.6734,-2.6775,-2.7102,-2.7593,-1.7061,-1.7622,-1.8261,-1.9,-1.9768,-1.9749,-1.9899,-2.0085,-1.9921,-1.9904,-2.0131,-2.0289,-2.0899,-2.1728,-2.1747,-2.1824,-2.2075,-2.2139,-2.2283,-2.2536,-2.2671,-2.2763,-2.2882,-2.2997,-2.3145,-2.3259,-2.3274,-2.3386,-2.3608,-2.3793,-2.3549,-2.3105,-2.3158,-2.2988,-2.2566,-2.2569,-2.2659,-2.2799,-2.2876,-2.301,-2.3122,-2.2849,-2.28,-2.3067,-2.3348,-2.3513,-2.3664,-2.3816,-2.3958,-2.4036,-2.4172,-2.4266,-2.4357,-2.4513,-2.4645,-2.4738,-2.5329,-2.6042,-2.682,-2.739,-2.7771,-2.7904,-2.8367,-2.8915,-2.9439,-2.96,-2.9944,-3.0577,-3.1464,-3.1782,-3.1394,-3.1244,-3.1093,-3.0796,-3.0734,-3.0585,-3.0347,-2.9811,-2.9649,-2.9982,-2.9543,-2.9403,-2.9722,-2.9075,-2.8127,-2.7446,-2.6742,-2.6138,-2.5713,-2.5621,-2.568,-2.5791,-2.5791,-2.5637,-2.5162,-2.5155,-2.5169,-2.5323,-2.5492,-2.5567,-2.5589,-2.5605,-2.5605,-2.5589,-2.5497,-2.553,-2.5718,-2.5724,-2.5691,-2.5831,-2.6194,-2.6531,-2.6521,-2.7004,-2.7215,-1.6442,-1.718,-1.811,-1.8761,-1.908,-1.9398,-1.9626,-1.9831,-1.999,-2.0204,-2.041,-2.053,-2.081,-2.1166,-2.1047,-2.1182,-2.1708,-2.1436,-2.1697,-2.2297,-2.1954,-2.1765,-2.185,-2.194,-2.2032,-2.2182,-2.2258,-2.2341,-2.2513,-2.2641,-2.2664,-2.2664,-2.2832,-2.2816,-2.2816,-2.2952,-2.3052,-2.3102,-2.3301,-2.345,-2.3392,-2.289,-2.2908,-2.34,-2.3753,-2.3803,-2.3881,-2.4077,-2.4191,-2.4208,-2.4321,-2.4407,-2.4512,-2.4676,-2.4846,-2.4972,-2.5018,-2.5416,-2.611,-2.6298,-2.6616,-2.7175,-2.7355,-2.7568,-2.833,-2.8892,-2.9421,-3.007,-3.0735,-3.0964,-3.0485,-3.0365,-3.0197,-3.0103,-2.9845,-2.9729,-2.9627,-2.9416,-2.9206,-2.9234,-2.9161,-2.9029,-2.8791,-2.796,-2.7602,-2.7212,-2.666,-2.6201,-2.6096,-2.6137,-2.6243,-2.6279,-2.6295,-2.6222,-2.5788,-2.5691,-2.5775,-2.5885,-2.5921,-2.5994,-2.6082,-2.617,-2.6154,-2.6154,-2.6118,-2.6101,-2.6154,-2.617,-2.6134,-2.6203,-2.6203,-2.6405,-2.6524,-2.6338,-2.6538,-1.6782,-1.7693,-1.8383,-1.8912,-1.9265,-1.9566,-1.9854,-2.008,-2.0308,-2.053,-2.073,-2.0991,-2.123,-2.1419,-2.1402,-2.147,-2.1537,-2.1485,-2.1657,-2.1993,-2.1837,-2.1903,-2.2036,-2.2077,-2.2135,-2.222,-2.2248,-2.236,-2.2552,-2.2729,-2.2825,-2.2919,-2.302,-2.3095,-2.3193,-2.3295,-2.3412,-2.3491,-2.3624,-2.3518,-2.3153,-2.2941,-2.2795,-2.2539,-2.3051,-2.3345,-2.3382,-2.3989,-2.4356,-2.4394,-2.4478,-2.4594,-2.4711,-2.487,-2.5038,-2.5118,-2.5118,-2.5251,-2.5564,-2.6022,-2.6388,-2.6641,-2.7074,-2.7301,-2.7674,-2.8222,-2.87,-2.8966,-2.9503,-2.974,-2.9766,-3.0051,-3.0411,-3.0234,-3.0149,-2.9923,-2.9697,-2.9259,-2.9021,-2.93,-2.935,-2.921,-2.8864,-2.8366,-2.7906,-2.772,-2.7147,-2.6742,-2.6657,-2.6691,-2.6775,-2.6758,-2.6758,-2.6742,-2.6657,-2.6399,-2.6314,-2.6349,-2.6418,-2.6453,-2.6521,-2.6521,-2.6521,-2.6556,-2.6556,-2.6538,-2.6538,-2.6504,-2.6504,-2.6538,-2.6556,-2.659,-2.6607,-2.6624,-2.6657,-1.7366,-1.8226,-1.8784,-1.9213,-1.953,-1.9839,-2.0154,-2.0426,-2.0663,-2.0893,-2.1087,-2.1386,-2.1587,-2.1708,-2.1857,-2.1827,-2.1678,-2.1754,-2.1827,-2.1932,-2.1974,-2.2077,-2.2254,-2.2254,-2.2338,-2.246,-2.2552,-2.2685,-2.2842,-2.2995,-2.3119,-2.3223,-2.3336,-2.3389,-2.3504,-2.3598,-2.3707,-2.3795,-2.3899,-2.3655,-2.3069,-2.2804,-2.2367,-2.1835,-2.212,-2.2518,-2.2763,-2.3642,-2.412,-2.4174,-2.4492,-2.4783,-2.4936,-2.5044,-2.5164,-2.5209,-2.5239,-2.5239,-2.5278,-2.5711,-2.5982,-2.5971,-2.6371,-2.674,-2.6945,-2.7363,-2.7656,-2.7961,-2.8518,-2.8922,-2.9055,-2.9734,-3.0206,-2.9962,-2.9863,-2.971,-2.9402,-2.8898,-2.8741,-2.8833,-2.8824,-2.8795,-2.8729,-2.828,-2.7956,-2.7908,-2.7476,-2.7201,-2.7166,-2.7166,-2.7198,-2.7198,-2.7213,-2.7244,-2.7198,-2.7019,-2.6788,-2.6788,-2.6738,-2.6805,-2.6804,-2.6821,-2.6804,-2.6855,-2.6889,-2.6891,-2.6858,-2.6858,-2.6873,-2.6872,-2.6956,-2.6989,-2.7053,-2.7117,-2.7034,-1.8226,-1.8655,-1.9191,-1.9545,-1.9839,-2.0224,-2.0462,-2.0663,-2.1039,-2.1293,-2.1448,-2.1691,-2.184,-2.1945,-2.2111,-2.2185,-2.2094,-2.202,-2.2003,-2.2168,-2.2197,-2.2254,-2.2422,-2.2405,-2.2487,-2.2615,-2.2893,-2.3028,-2.3102,-2.3289,-2.3412,-2.3504,-2.3616,-2.3682,-2.3692,-2.3876,-2.3996,-2.4036,-2.4191,-2.3877,-2.3203,-2.2548,-2.1845,-2.118,-2.113,-2.1424,-2.2025,-2.2959,-2.3454,-2.3525,-2.4318,-2.4961,-2.5118,-2.5198,-2.5241,-2.5282,-2.5311,-2.5292,-2.5282,-2.5299,-2.5354,-2.534,-2.5302,-2.5695,-2.6186,-2.6384,-2.6673,-2.7248,-2.7934,-2.837,-2.8409,-2.889,-2.9252,-2.8936,-2.8956,-2.8826,-2.8523,-2.8317,-2.8126,-2.8006,-2.7971,-2.7689,-2.7647,-2.7717,-2.77,-2.7661,-2.7579,-2.7509,-2.7539,-2.7569,-2.7617,-2.753,-2.742,-2.7327,-2.7479,-2.7601,-2.7365,-2.7174,-2.7113,-2.7082,-2.6939,-2.6935,-2.6662,-2.6692,-2.6628,-2.6632,-2.6554,-2.6571,-2.6826,-2.6909,-2.7143,-2.7296,-2.7444,-2.747,-2.7347,-1.8655,-1.9058,-1.9464,-1.9874,-2.0224,-2.0545,-2.0811,-2.1119,-2.1417,-2.1601,-2.1781,-2.1991,-2.2094,-2.2123,-2.2225,-2.2271,-2.2254,-2.2265,-2.2293,-2.2321,-2.2338,-2.2422,-2.2515,-2.2596,-2.2738,-2.2952,-2.3223,-2.3371,-2.3458,-2.3571,-2.3646,-2.3771,-2.3831,-2.3894,-2.3976,-2.4094,-2.419,-2.4284,-2.4374,-2.3861,-2.2716,-2.2407,-2.1689,-2.0508,-2.0389,-2.053,-2.0763,-2.201,-2.269,-2.2728,-2.3638,-2.4484,-2.5094,-2.5271,-2.5273,-2.5293,-2.5293,-2.5293,-2.5293,-2.5264,-2.5273,-2.5271,-2.5261,-2.5335,-2.5593,-2.6041,-2.6344,-2.6664,-2.7301,-2.7762,-2.7754,-2.7802,-2.8259,-2.899,-2.9034,-2.886,-2.8669,-2.8492,-2.8362,-2.8237,-2.8128,-2.8073,-2.8045,-2.7974,-2.7893,-2.7837,-2.7872,-2.7872,-2.7908,-2.7802,-2.7713,-2.7359,-2.728,-2.7067,-2.6952,-2.6881,-2.6792,-2.677,-2.6845,-2.6894,-2.6852,-2.6757,-2.6546,-2.644,-2.6395,-2.6332,-2.6258,-2.63,-2.6567,-2.6782,-2.6891,-2.7229,-2.7681,-2.7621,-2.724,-1.8898,-1.9281,-1.9426,-1.9718,-2.0058,-2.0114,-2.0478,-2.098,-2.1253,-2.1608,-2.1969,-2.2152,-2.2225,-2.2254,-2.231,-2.2338,-2.2338,-2.2449,-2.2515,-2.2542,-2.2515,-2.2579,-2.2685,-2.2893,-2.3052,-2.3295,-2.3526,-2.3642,-2.3707,-2.3813,-2.3896,-2.3996,-2.4036,-2.4114,-2.4209,-2.4284,-2.4375,-2.4464,-2.4528,-2.3855,-2.2674,-2.2413,-2.1673,-2.0326,-2.0089,-2.0136,-2.0212,-2.1098,-2.1741,-2.2178,-2.3179,-2.4164,-2.4782,-2.511,-2.5293,-2.5303,-2.5313,-2.5303,-2.5313,-2.5303,-2.5303,-2.5302,-2.5302,-2.5282,-2.5346,-2.5761,-2.5925,-2.5984,-2.6618,-2.7067,-2.7049,-2.7294,-2.7738,-2.8428,-2.8665,-2.8852,-2.8847,-2.8791,-2.8669,-2.8576,-2.85,-2.8366,-2.8106,-2.8008,-2.7821,-2.7615,-2.7507,-2.7489,-2.7507,-2.7453,-2.7122,-2.6882,-2.6774,-2.6505,-2.6164,-2.6092,-2.6081,-2.6222,-2.6379,-2.6453,-2.6462,-2.6346,-2.6193,-2.6185,-2.616,-2.616,-2.6098,-2.6011,-2.6135,-2.6338,-2.654,-2.6736,-2.6977,-2.6931,-2.6662,-1.8977,-1.9236,-1.9,-1.9111,-1.9405,-1.9162,-1.9648,-2.0488,-2.0771,-2.1384,-2.2051,-2.2254,-2.231,-2.231,-2.2394,-2.2405,-2.2432,-2.2569,-2.2712,-2.2773,-2.2773,-2.2825,-2.2952,-2.3241,-2.3435,-2.3616,-2.375,-2.3855,-2.3917,-2.4036,-2.4151,-2.4209,-2.4247,-2.4339,-2.4411,-2.4479,-2.453,-2.4615,-2.4676,-2.3978,-2.264,-2.2495,-2.1817,-2.0318,-2.0221,-2.019,-2.0227,-2.0391,-2.0727,-2.1493,-2.2988,-2.388,-2.4159,-2.4832,-2.5303,-2.5313,-2.5313,-2.5313,-2.5313,-2.5313,-2.5303,-2.5303,-2.5303,-2.5303,-2.533,-2.5378,-2.5433,-2.5378,-2.596,-2.6331,-2.6435,-2.6784,-2.7191,-2.7384,-2.7824,-2.8331,-2.8929,-2.8835,-2.8562,-2.8585,-2.8644,-2.8396,-2.7629,-2.7551,-2.7182,-2.6759,-2.6572,-2.6627,-2.6609,-2.6718,-2.6413,-2.6281,-2.6241,-2.5909,-2.5524,-2.5419,-2.5383,-2.5389,-2.5615,-2.5768,-2.5847,-2.5762,-2.5587,-2.5618,-2.5739,-2.5816,-2.5726,-2.5476,-2.5589,-2.5881,-2.6013,-2.6103,-2.6188,-2.6278,-2.6116,-1.8185,-1.8089,-1.8241,-1.8516,-1.8825,-1.8978,-1.9634,-2.0582,-2.0816,-2.1334,-2.2119,-2.2299,-2.2237,-2.2377,-2.2381,-2.2542,-2.2581,-2.273,-2.2893,-2.3028,-2.3223,-2.3301,-2.3394,-2.3553,-2.3707,-2.3813,-2.3955,-2.4074,-2.4132,-2.4191,-2.4266,-2.4338,-2.4409,-2.4478,-2.4545,-2.4559,-2.4645,-2.4742,-2.4817,-2.4412,-2.3436,-2.2787,-2.2121,-2.1235,-2.0542,-2.0252,-2.0249,-2.0277,-2.0644,-2.1453,-2.2478,-2.3438,-2.4015,-2.4784,-2.5255,-2.5313,-2.5313,-2.5313,-2.5313,-2.5313,-2.5313,-2.5313,-2.5313,-2.5303,-2.5293,-2.5293,-2.5293,-2.5292,-2.5512,-2.5606,-2.5642,-2.5769,-2.6053,-2.6553,-2.7035,-2.7455,-2.7662,-2.7548,-2.7451,-2.7431,-2.7442,-2.7308,-2.7103,-2.6954,-2.6804,-2.6544,-2.6434,-2.6415,-2.6289,-2.6287,-2.6142,-2.5811,-2.5643,-2.5254,-2.4961,-2.4815,-2.4704,-2.4589,-2.4732,-2.4928,-2.4975,-2.4932,-2.4678,-2.4478,-2.4802,-2.4929,-2.4696,-2.4439,-2.4832,-2.5385,-2.5415,-2.5477,-2.5841,-2.6004,-2.5586,-1.7656,-1.7587,-1.7668,-1.7852,-1.8057,-1.8147,-1.8779,-1.9684,-2.0004,-2.0538,-2.1201,-2.1373,-2.14,-2.1496,-2.1593,-2.191,-2.2304,-2.2489,-2.2834,-2.3324,-2.3576,-2.3685,-2.3728,-2.3795,-2.3878,-2.4016,-2.4095,-2.4172,-2.4284,-2.4339,-2.4409,-2.4495,-2.4578,-2.4623,-2.4673,-2.4719,-2.4749,-2.4846,-2.4884,-2.4555,-2.3764,-2.2985,-2.2229,-2.1483,-2.0674,-2.0219,-2.0285,-2.0292,-2.0554,-2.1065,-2.1784,-2.2639,-2.3514,-2.4351,-2.4928,-2.5236,-2.5313,-2.5313,-2.5313,-2.5313,-2.5313,-2.5341,-2.5313,-2.5313,-2.5341,-2.5322,-2.5313,-2.5303,-2.5293,-2.5302,-2.5292,-2.5261,-2.5447,-2.5798,-2.6132,-2.6537,-2.7102,-2.7206,-2.7062,-2.7026,-2.6972,-2.6767,-2.6525,-2.6377,-2.6191,-2.5931,-2.5708,-2.5726,-2.5726,-2.5838,-2.5838,-2.5467,-2.5225,-2.4947,-2.48,-2.4671,-2.4598,-2.445,-2.4376,-2.4467,-2.4446,-2.4423,-2.4312,-2.4184,-2.413,-2.4094,-2.4094,-2.4112,-2.435,-2.4716,-2.4769,-2.4897,-2.5207,-2.5479,-2.5098,-1.7236,-1.7364,-1.7091,-1.7115,-1.7236,-1.7024,-1.7652,-1.8425,-1.8835,-1.9362,-2.0035,-2.0111,-2.0398,-2.0243,-2.0753,-2.1022,-2.1756,-2.193,-2.2629,-2.3279,-2.3762,-2.3978,-2.3979,-2.3998,-2.4095,-2.419,-2.4229,-2.4192,-2.417,-2.4256,-2.4284,-2.4161,-2.4302,-2.4478,-2.4327,-2.4554,-2.4747,-2.4728,-2.4921,-2.4695,-2.3998,-2.316,-2.2334,-2.1751,-2.0721,-2.0277,-2.0292,-2.0292,-2.0339,-2.0319,-2.1081,-2.1985,-2.2831,-2.3648,-2.4466,-2.513,-2.5313,-2.5313,-2.5313,-2.5313,-2.5313,-2.5351,-2.5322,-2.5322,-2.5351,-2.5322,-2.5313,-2.5313,-2.5313,-2.5303,-2.5303,-2.5302,-2.531,-2.5382,-2.5321,-2.5907,-2.6764,-2.7112,-2.705,-2.6987,-2.6933,-2.6559,-2.6129,-2.5756,-2.5552,-2.5389,-2.5217,-2.5255,-2.5255,-2.5292,-2.5236,-2.5011,-2.4842,-2.4732,-2.4663,-2.4596,-2.4549,-2.4481,-2.4375,-2.4395,-2.4358,-2.4339,-2.4264,-2.4209,-2.419,-2.419,-2.419,-2.4227,-2.4264,-2.4301,-2.4503,-2.4411,-2.4374,-2.4649,-2.452,-1.625,-1.595,-1.6113,-1.6281,-1.6514,-1.6617,-1.7319,-1.84,-1.861,-1.9135,-1.9833,-2.0093,-2.0223,-2.0373,-2.0488,-2.0912,-2.1245,-2.1487,-2.206,-2.3035,-2.3856,-2.4174,-2.4192,-2.4118,-2.4248,-2.4321,-2.4338,-2.4074,-2.3712,-2.3609,-2.3349,-2.2943,-2.3116,-2.2962,-2.3158,-2.3706,-2.3941,-2.4068,-2.4613,-2.4829,-2.4371,-2.3258,-2.2479,-2.2115,-2.0971,-2.0331,-2.0289,-2.0296,-2.0284,-2.0484,-2.1066,-2.1897,-2.2763,-2.3629,-2.4466,-2.5101,-2.5313,-2.5313,-2.5313,-2.5313,-2.5313,-2.5322,-2.5313,-2.5313,-2.5313,-2.5313,-2.5313,-2.5313,-2.5313,-2.5313,-2.5313,-2.5303,-2.5293,-2.5273,-2.5282,-2.5384,-2.5666,-2.5716,-2.5735,-2.5658,-2.563,-2.5418,-2.5248,-2.522,-2.5069,-2.4861,-2.4861,-2.4861,-2.4861,-2.4861,-2.4861,-2.4861,-2.4847,-2.4814,-2.4804,-2.4746,-2.4673,-2.4594,-2.4495,-2.4426,-2.4374,-2.4339,-2.4339,-2.4321,-2.4284,-2.4284,-2.4266,-2.4266,-2.4303,-2.4284,-2.4266,-2.4284,-2.4284,-2.4284,-2.4284,-1.571,-1.5595,-1.5799,-1.6026,-1.6219,-1.6517,-1.7065,-1.7756,-1.807,-1.8504,-1.8981,-1.919,-1.9389,-1.9586,-1.9756,-2.0081,-2.0741,-2.1272,-2.1765,-2.2391,-2.2904,-2.3171,-2.3254,-2.3419,-2.3622,-2.4236,-2.4066,-2.3702,-2.3427,-2.3022,-2.2722,-2.2394,-2.2369,-2.2552,-2.2451,-2.2868,-2.307,-2.3146,-2.3563,-2.3885,-2.3686,-2.2772,-2.1847,-2.1606,-2.0765,-2.0289,-2.0296,-2.0287,-2.0301,-2.052,-2.1111,-2.1937,-2.2761,-2.3619,-2.4456,-2.5139,-2.5313,-2.5313,-2.5313,-2.5313,-2.5332,-2.5332,-2.5322,-2.5322,-2.5351,-2.5351,-2.5351,-2.5351,-2.5361,-2.5361,-2.5351,-2.5313,-2.5313,-2.5303,-2.5293,-2.5312,-2.5273,-2.5209,-2.5153,-2.5141,-2.522,-2.5158,-2.505,-2.5006,-2.4987,-2.4975,-2.4994,-2.4975,-2.4987,-2.4987,-2.4987,-2.4987,-2.5006,-2.4994,-2.4968,-2.4921,-2.4842,-2.4753,-2.4676,-2.4594,-2.4561,-2.4512,-2.4461,-2.4426,-2.4393,-2.4356,-2.4356,-2.4356,-2.4356,-2.4356,-2.4338,-2.4358,-2.4339,-2.4339,-2.4339,-1.5448,-1.561,-1.5799,-1.5998,-1.6151,-1.6463,-1.6789,-1.7142,-1.7455,-1.7884,-1.8044,-1.8163,-1.8592,-1.8633,-1.8858,-1.9363,-2.0102,-2.0987,-2.1513,-2.1616,-2.2064,-2.2285,-2.2324,-2.2528,-2.2966,-2.4095,-2.3555,-2.3205,-2.2849,-2.248,-2.1953,-2.1972,-2.1972,-2.1764,-2.1891,-2.2149,-2.2218,-2.2287,-2.259,-2.279,-2.2677,-2.197,-2.1224,-2.0603,-2.0423,-2.0284,-2.0306,-2.0334,-2.0379,-2.056,-2.1346,-2.2177,-2.2979,-2.3672,-2.4464,-2.5236,-2.5332,-2.5322,-2.5322,-2.5322,-2.5351,-2.5389,-2.5322,-2.5322,-2.537,-2.5389,-2.5398,-2.5388,-2.5378,-2.5378,-2.5398,-2.5361,-2.5313,-2.5303,-2.5303,-2.5313,-2.5303,-2.5253,-2.5241,-2.522,-2.5217,-2.5176,-2.5145,-2.5134,-2.5115,-2.5126,-2.5126,-2.5126,-2.5107,-2.5107,-2.5115,-2.5103,-2.5103,-2.5111,-2.5087,-2.505,-2.4961,-2.4912,-2.4827,-2.4779,-2.4749,-2.4719,-2.4673,-2.4561,-2.4512,-2.4476,-2.4495,-2.4512,-2.4512,-2.4459,-2.4461,-2.4497,-2.4462,-2.4393,-2.4429,-1.5418,-1.5536,-1.5799,-1.5998,-1.6222,-1.6436,-1.6747,-1.7126,-1.7479,-1.7772,-1.8095,-1.8328,-1.8563,-1.8751,-1.8896,-1.918,-1.9678,-2.0393,-2.081,-2.0971,-2.1496,-2.188,-2.192,-2.1956,-2.2399,-2.2665,-2.2475,-2.2122,-2.1796,-2.135,-2.1042,-2.0507,-2.0401,-2.0389,-2.0634,-2.0879,-2.135,-2.1481,-2.1919,-2.2251,-2.2155,-2.1703,-2.1041,-2.0361,-2.0296,-2.0306,-2.0314,-2.0386,-2.0712,-2.1449,-2.2289,-2.3137,-2.3799,-2.4133,-2.4656,-2.5183,-2.5387,-2.5388,-2.536,-2.537,-2.5361,-2.5322,-2.5293,-2.5322,-2.537,-2.5398,-2.5406,-2.5404,-2.5393,-2.5404,-2.5398,-2.537,-2.5351,-2.5322,-2.5313,-2.5341,-2.5361,-2.5361,-2.5341,-2.5293,-2.5273,-2.5282,-2.5252,-2.5222,-2.5222,-2.5203,-2.5222,-2.5203,-2.5203,-2.5192,-2.5192,-2.5201,-2.519,-2.5198,-2.5176,-2.5134,-2.5087,-2.5057,-2.5006,-2.4961,-2.4934,-2.4953,-2.4898,-2.4775,-2.4719,-2.4707,-2.4707,-2.4707,-2.4692,-2.4692,-2.4676,-2.4626,-2.4629,-2.4596,-2.4613,-1.5448,-1.5683,-1.5842,-1.6055,-1.6262,-1.649,-1.6799,-1.7207,-1.7595,-1.7949,-1.8246,-1.8524,-1.8733,-1.8914,-1.9053,-1.9186,-1.941,-1.969,-2.0008,-2.0229,-2.0569,-2.0854,-2.1001,-2.1041,-2.1036,-2.1061,-2.101,-2.1174,-2.1103,-2.0658,-2.0263,-1.9976,-1.9763,-1.9751,-1.9807,-2.0208,-2.0464,-2.0675,-2.1009,-2.1284,-2.1337,-2.0947,-2.0606,-2.0427,-2.0292,-2.0308,-2.036,-2.0413,-2.0866,-2.1702,-2.2571,-2.346,-2.4161,-2.4743,-2.5059,-2.5391,-2.5445,-2.5421,-2.5404,-2.5395,-2.5378,-2.536,-2.5351,-2.536,-2.5397,-2.5415,-2.5468,-2.5453,-2.5445,-2.5448,-2.5451,-2.5434,-2.5388,-2.5351,-2.5351,-2.5379,-2.5388,-2.5387,-2.5387,-2.5359,-2.536,-2.5351,-2.5332,-2.5332,-2.5303,-2.5293,-2.5313,-2.5293,-2.5293,-2.5293,-2.5284,-2.5303,-2.5303,-2.5293,-2.5302,-2.5262,-2.5212,-2.5198,-2.5164,-2.5122,-2.5099,-2.5099,-2.5087,-2.5031,-2.4987,-2.494,-2.4898,-2.4893,-2.4884,-2.4889,-2.4823,-2.479,-2.4779,-2.4798,-2.4798,-1.5374,-1.556,-1.5674,-1.582,-1.5967,-1.6145,-1.6474,-1.6917,-1.726,-1.7546,-1.7969,-1.8162,-1.8305,-1.8566,-1.8806,-1.9044,-1.9286,-1.9393,-1.9487,-1.9563,-1.968,-1.9699,-1.9692,-1.9694,-1.9895,-2.0101,-2.0014,-2.017,-2.0564,-2.0226,-1.9857,-1.977,-1.9726,-1.9713,-1.9763,-1.9913,-1.9861,-1.9911,-1.9988,-2.0049,-2.0135,-2.0178,-2.0238,-2.03,-2.0294,-2.0334,-2.0379,-2.0459,-2.0958,-2.1749,-2.2621,-2.3478,-2.4352,-2.5164,-2.5561,-2.555,-2.5518,-2.5483,-2.5441,-2.5426,-2.5418,-2.5432,-2.5423,-2.5423,-2.5421,-2.5472,-2.5529,-2.5531,-2.5524,-2.5515,-2.548,-2.5456,-2.5432,-2.5423,-2.5423,-2.5432,-2.544,-2.5437,-2.5461,-2.5453,-2.5437,-2.5421,-2.5412,-2.5415,-2.5387,-2.5387,-2.5397,-2.5406,-2.5406,-2.5406,-2.5406,-2.5415,-2.5434,-2.5425,-2.5416,-2.5407,-2.537,-2.5322,-2.5303,-2.5264,-2.5253,-2.5243,-2.5214,-2.5203,-2.5182,-2.5126,-2.5091,-2.5063,-2.5044,-2.5019,-2.4968,-2.4942,-2.4934,-2.4926,-2.4926,-1.4906,-1.4792,-1.5088,-1.497,-1.4757,-1.5048,-1.5334,-1.5709,-1.6052,-1.6195,-1.6676,-1.676,-1.6972,-1.7252,-1.7917,-1.8595,-1.9069,-1.9246,-1.9298,-1.9416,-1.9493,-1.9546,-1.962,-1.9684,-1.9679,-1.9699,-1.9699,-1.9782,-1.9989,-1.9851,-1.9745,-1.9713,-1.9713,-1.9713,-1.9788,-1.9849,-1.9919,-1.9977,-2.0058,-2.0117,-2.0178,-2.0203,-2.0246,-2.0284,-2.0308,-2.0353,-2.0408,-2.0502,-2.092,-2.174,-2.2611,-2.3471,-2.4364,-2.521,-2.559,-2.5664,-2.5634,-2.5568,-2.5505,-2.5486,-2.5478,-2.5495,-2.548,-2.5492,-2.5503,-2.5538,-2.5589,-2.5589,-2.5589,-2.5557,-2.5518,-2.551,-2.5488,-2.5492,-2.5472,-2.5495,-2.549,-2.5492,-2.5506,-2.5531,-2.5525,-2.5517,-2.5515,-2.5499,-2.5484,-2.5484,-2.5484,-2.5484,-2.5492,-2.5492,-2.548,-2.5499,-2.5499,-2.5499,-2.5499,-2.5492,-2.5484,-2.5448,-2.5421,-2.5404,-2.5376,-2.5367,-2.5367,-2.535,-2.534,-2.5293,-2.5234,-2.5212,-2.5198,-2.5164,-2.5091,-2.5087,-2.5069,-2.5057,-2.5057,-1.4252,-1.4695,-1.4643,-1.4655,-1.466,-1.4897,-1.5201,-1.5524,-1.5744,-1.601,-1.6253,-1.6433,-1.6604,-1.6791,-1.7256,-1.7804,-1.8477,-1.8687,-1.8974,-1.932,-1.9416,-1.946,-1.9522,-1.9573,-1.9587,-1.9597,-1.9592,-1.9569,-1.9636,-1.9694,-1.9712,-1.9707,-1.9713,-1.9776,-1.9837,-1.9919,-1.9977,-2.0049,-2.0117,-2.0188,-2.0249,-2.0265,-2.0273,-2.0304,-2.0334,-2.0365,-2.042,-2.0476,-2.0935,-2.1678,-2.2279,-2.3075,-2.4096,-2.4791,-2.5108,-2.5689,-2.5681,-2.5616,-2.5556,-2.5556,-2.5568,-2.5564,-2.5551,-2.5557,-2.5556,-2.5579,-2.56,-2.561,-2.56,-2.559,-2.5574,-2.5564,-2.557,-2.5557,-2.5538,-2.5551,-2.5556,-2.5554,-2.5571,-2.559,-2.5615,-2.5599,-2.5587,-2.5556,-2.5538,-2.5538,-2.5538,-2.5538,-2.5557,-2.5564,-2.5564,-2.5564,-2.5564,-2.5557,-2.5564,-2.5538,-2.5557,-2.5531,-2.5531,-2.5505,-2.5505,-2.5498,-2.5471,-2.5456,-2.5449,-2.5398,-2.5357,-2.5322,-2.5303,-2.5273,-2.5233,-2.519,-2.5157,-2.5145,-2.5145,-1.3539,-1.4353,-1.4201,-1.4189,-1.4352,-1.4533,-1.4761,-1.5054,-1.5207,-1.5434,-1.5682,-1.5803,-1.6045,-1.6413,-1.6561,-1.7085,-1.807,-1.8093,-1.8632,-1.9121,-1.9372,-1.942,-1.9435,-1.945,-1.9468,-1.9468,-1.9508,-1.9518,-1.9546,-1.9633,-1.9718,-1.9712,-1.977,-1.9837,-1.9889,-1.9958,-2.0059,-2.0117,-2.0188,-2.0257,-2.03,-2.03,-2.0315,-2.0332,-2.0373,-2.0408,-2.0424,-2.0472,-2.0929,-2.1304,-2.1819,-2.265,-2.3769,-2.4331,-2.491,-2.5483,-2.5676,-2.5668,-2.5626,-2.5625,-2.5628,-2.5634,-2.5629,-2.5629,-2.563,-2.5624,-2.5613,-2.5625,-2.564,-2.5652,-2.5639,-2.562,-2.5609,-2.5604,-2.5604,-2.559,-2.56,-2.5615,-2.5628,-2.5636,-2.5644,-2.5655,-2.5629,-2.564,-2.5624,-2.5615,-2.5604,-2.5604,-2.5599,-2.5618,-2.5599,-2.5579,-2.5585,-2.5579,-2.5579,-2.5585,-2.5604,-2.5599,-2.5599,-2.5599,-2.5579,-2.5554,-2.5549,-2.5543,-2.5531,-2.5518,-2.5473,-2.5441,-2.5415,-2.536,-2.5313,-2.5284,-2.5234,-2.5243,-2.5222,-1.2743,-1.3244,-1.3459,-1.3371,-1.313,-1.3237,-1.348,-1.3837,-1.3901,-1.4059,-1.4284,-1.4317,-1.4898,-1.536,-1.5732,-1.6474,-1.7939,-1.8071,-1.8584,-1.9042,-1.9329,-1.9323,-1.9338,-1.9338,-1.9338,-1.9372,-1.9464,-1.9512,-1.9541,-1.9628,-1.9681,-1.9732,-1.983,-1.9911,-1.9988,-2.0059,-2.0125,-2.0186,-2.0246,-2.0204,-2.0219,-2.0253,-2.0294,-2.0315,-2.0377,-2.0439,-2.0465,-2.0506,-2.0589,-2.0864,-2.1377,-2.2104,-2.3085,-2.3691,-2.4355,-2.5017,-2.5271,-2.5248,-2.524,-2.5386,-2.5612,-2.5658,-2.5605,-2.5554,-2.5671,-2.5683,-2.5691,-2.5671,-2.5671,-2.5684,-2.5675,-2.5664,-2.5632,-2.5628,-2.5628,-2.5632,-2.5656,-2.5668,-2.5678,-2.5684,-2.5693,-2.5679,-2.5681,-2.5671,-2.5655,-2.5632,-2.5628,-2.5648,-2.5628,-2.5628,-2.5609,-2.5593,-2.5593,-2.5593,-2.5593,-2.5613,-2.5628,-2.5624,-2.5628,-2.5609,-2.5593,-2.5589,-2.5604,-2.56,-2.5591,-2.5586,-2.5581,-2.5543,-2.5492,-2.5426,-2.5385,-2.5339,-2.5322,-2.5293,-2.5293,-1.2208,-1.2576,-1.2923,-1.3035,-1.2977,-1.3174,-1.3346,-1.3497,-1.3594,-1.3671,-1.3793,-1.3944,-1.419,-1.4506,-1.4724,-1.5582,-1.6994,-1.7264,-1.8136,-1.8916,-1.9292,-1.9289,-1.9305,-1.9357,-1.939,-1.9387,-1.9464,-1.9541,-1.9587,-1.9655,-1.9751,-1.9823,-1.9922,-1.9977,-2.0078,-2.0153,-2.023,-2.025,-2.0222,-2.012,-1.9696,-2.0095,-2.0122,-1.9616,-2.0269,-2.039,-2.0483,-2.0494,-2.054,-2.0674,-2.0972,-2.1621,-2.2285,-2.2812,-2.3437,-2.416,-2.4316,-2.4297,-2.4375,-2.4606,-2.4894,-2.4896,-2.4908,-2.5098,-2.5535,-2.5673,-2.5694,-2.5696,-2.5693,-2.5689,-2.5685,-2.5673,-2.5658,-2.5658,-2.5662,-2.5665,-2.5671,-2.5698,-2.5701,-2.5689,-2.5687,-2.5689,-2.5689,-2.5689,-2.5676,-2.5662,-2.5662,-2.5662,-2.5662,-2.5642,-2.5642,-2.5626,-2.5645,-2.5642,-2.5642,-2.5662,-2.5658,-2.5662,-2.5642,-2.5642,-2.5645,-2.5658,-2.5655,-2.5655,-2.5655,-2.5632,-2.5644,-2.5632,-2.5581,-2.5493,-2.5444,-2.5434,-2.5401,-2.5378,-2.536,-1.1918,-1.2266,-1.2639,-1.2885,-1.3066,-1.3209,-1.3362,-1.3463,-1.3546,-1.3625,-1.3682,-1.3793,-1.3903,-1.3987,-1.4118,-1.507,-1.6327,-1.6933,-1.7921,-1.8733,-1.9311,-1.9323,-1.9372,-1.9402,-1.945,-1.945,-1.9508,-1.9578,-1.9638,-1.9688,-1.9804,-1.9907,-2.0001,-2.0098,-2.0144,-2.023,-2.0299,-2.0314,-2.027,-1.9902,-1.936,-1.9901,-2.0001,-1.9464,-2.0011,-2.041,-2.049,-2.0542,-2.0558,-2.0576,-2.0742,-2.1094,-2.1582,-2.2031,-2.2383,-2.2831,-2.3143,-2.3122,-2.3277,-2.3572,-2.4004,-2.4003,-2.4391,-2.4744,-2.5153,-2.5505,-2.5701,-2.5701,-2.5703,-2.5703,-2.5702,-2.5679,-2.5673,-2.5693,-2.5691,-2.5693,-2.5696,-2.5699,-2.5699,-2.5701,-2.57,-2.5701,-2.5702,-2.5702,-2.5698,-2.5672,-2.5685,-2.5685,-2.5685,-2.5685,-2.5685,-2.5685,-2.5683,-2.5683,-2.5703,-2.5683,-2.5685,-2.5685,-2.5666,-2.5685,-2.5685,-2.5701,-2.5701,-2.5683,-2.5683,-2.5703,-2.5679,-2.5673,-2.5605,-2.5532,-2.5517,-2.5473,-2.5471,-2.5434,-2.5426,-1.1933,-1.2307,-1.2604,-1.285,-1.3084,-1.3243,-1.3346,-1.3379,-1.3462,-1.3528,-1.3605,-1.3669,-1.3796,-1.39,-1.4026,-1.4942,-1.6138,-1.67,-1.761,-1.8773,-1.9286,-1.9353,-1.9416,-1.946,-1.9532,-1.9532,-1.9587,-1.9655,-1.9712,-1.9781,-1.9907,-2.0012,-2.0122,-2.0219,-2.02,-2.0268,-2.0321,-2.0385,-2.039,-1.9884,-1.9493,-1.9959,-1.9895,-1.9605,-2.0041,-2.0467,-2.0528,-2.057,-2.0582,-2.0594,-2.0605,-2.0977,-2.1543,-2.168,-2.2069,-2.2687,-2.2842,-2.2919,-2.3017,-2.3075,-2.3033,-2.3201,-2.3662,-2.4297,-2.4599,-2.5116,-2.5676,-2.5659,-2.5666,-2.5693,-2.5697,-2.57,-2.5702,-2.5703,-2.5703,-2.5703,-2.5702,-2.5702,-2.5702,-2.5702,-2.5701,-2.57,-2.57,-2.5701,-2.5703,-2.5703,-2.5701,-2.57,-2.57,-2.5699,-2.5699,-2.5697,-2.5697,-2.5697,-2.5697,-2.5698,-2.5699,-2.5703,-2.5699,-2.5698,-2.5698,-2.5697,-2.5698,-2.5703,-2.5698,-2.5696,-2.5697,-2.5698,-2.564,-2.5605,-2.5542,-2.5504,-2.548,-2.5486,-2.5499,-1.1839,-1.219,-1.2494,-1.2776,-1.2993,-1.3155,-1.326,-1.3295,-1.3346,-1.3429,-1.3528,-1.3593,-1.3704,-1.3856,-1.4055,-1.4681,-1.5706,-1.6631,-1.7537,-1.8434,-1.9037,-1.939,-1.9504,-1.9574,-1.9641,-1.9681,-1.9732,-1.9757,-1.9828,-1.9909,-2.0003,-2.012,-2.0255,-2.034,-2.034,-2.0363,-2.0395,-2.0449,-2.0381,-2.0083,-1.9402,-1.9936,-2.0106,-1.9367,-2.0088,-2.0509,-2.0547,-2.0586,-2.0591,-2.0598,-2.0605,-2.0797,-2.1089,-2.1128,-2.1223,-2.1491,-2.1487,-2.1416,-2.1389,-2.1399,-2.1666,-2.2263,-2.3077,-2.3789,-2.4276,-2.5118,-2.55,-2.5625,-2.5632,-2.5626,-2.5634,-2.569,-2.5693,-2.5693,-2.5693,-2.5693,-2.569,-2.5701,-2.5705,-2.5705,-2.5703,-2.5705,-2.5705,-2.5683,-2.567,-2.5675,-2.568,-2.5702,-2.5703,-2.5703,-2.5703,-2.5703,-2.5703,-2.5703,-2.5703,-2.5703,-2.5703,-2.5703,-2.5703,-2.5703,-2.5703,-2.5703,-2.5703,-2.5703,-2.5703,-2.5703,-2.5702,-2.57,-2.5696,-2.5661,-2.5593,-2.5561,-2.5566,-2.5556,-2.5571,-1.1725,-1.2102,-1.2412,-1.2642,-1.2813,-1.3046,-1.3155,-1.3208,-1.3261,-1.3346,-1.3462,-1.3561,-1.3688,-1.3856,-1.4037,-1.4534,-1.5432,-1.6028,-1.7178,-1.8019,-1.8707,-1.9184,-1.9508,-1.9707,-1.9782,-1.983,-1.987,-1.9888,-1.9962,-2.0021,-2.0145,-2.0288,-2.039,-2.0415,-2.0419,-2.0448,-2.0452,-2.0484,-2.0422,-2.0078,-1.9731,-1.9873,-2.0102,-1.9777,-2.0014,-2.0564,-2.0598,-2.0602,-2.0604,-2.0605,-2.0604,-2.059,-2.0588,-2.0584,-2.0582,-2.0577,-2.0567,-2.0568,-2.0585,-2.0588,-2.0929,-2.124,-2.2328,-2.3213,-2.3961,-2.4849,-2.5365,-2.5571,-2.5571,-2.5585,-2.5613,-2.5663,-2.5663,-2.5663,-2.5667,-2.5648,-2.5652,-2.5648,-2.5652,-2.5652,-2.5655,-2.5675,-2.5675,-2.5671,-2.5655,-2.5665,-2.5673,-2.5685,-2.5693,-2.5696,-2.5698,-2.5701,-2.5703,-2.5703,-2.5703,-2.5703,-2.5703,-2.5703,-2.5703,-2.5703,-2.5703,-2.5703,-2.5703,-2.5703,-2.5703,-2.5703,-2.5703,-2.5701,-2.5699,-2.5696,-2.5646,-2.5632,-2.5636,-2.5629,-2.5621,-1.1608,-1.1991,-1.2277,-1.2467,-1.2646,-1.2869,-1.3048,-1.3188,-1.3208,-1.3261,-1.3412,-1.3559,-1.3715,-1.39,-1.4044,-1.454,-1.5243,-1.5569,-1.6538,-1.7656,-1.8257,-1.8869,-1.942,-1.9774,-1.9885,-1.9939,-1.9972,-2.0031,-2.0095,-2.0185,-2.0315,-2.0448,-2.0472,-2.0494,-2.0497,-2.0497,-2.0513,-2.0522,-2.047,-2.016,-1.9909,-2.0158,-2.0147,-1.9975,-2.019,-2.0524,-2.0605,-2.0603,-2.0601,-2.0597,-2.0594,-2.056,-2.0528,-2.0516,-2.051,-2.0499,-2.0492,-2.0467,-2.0439,-2.0404,-2.0396,-2.0759,-2.194,-2.2624,-2.3399,-2.4406,-2.5078,-2.5409,-2.5492,-2.5543,-2.5593,-2.5599,-2.5585,-2.559,-2.559,-2.5595,-2.5595,-2.5581,-2.5581,-2.5586,-2.5595,-2.5595,-2.5615,-2.561,-2.5605,-2.56,-2.5617,-2.5652,-2.5668,-2.5703,-2.5707,-2.5694,-2.5699,-2.5703,-2.5703,-2.5703,-2.5703,-2.5703,-2.5703,-2.5703,-2.5703,-2.5703,-2.5703,-2.5703,-2.5703,-2.5703,-2.5703,-2.5703,-2.5703,-2.5681,-2.5679,-2.5675,-2.5666,-2.5679,-2.5673,-1.1256,-1.1681,-1.2018,-1.2262,-1.2407,-1.2616,-1.2808,-1.2979,-1.3085,-1.3209,-1.3412,-1.3591,-1.3761,-1.3987,-1.4091,-1.4409,-1.4839,-1.536,-1.5901,-1.6769,-1.7733,-1.847,-1.9073,-1.9549,-1.9898,-2.003,-2.0052,-1.9965,-2.0199,-2.0299,-2.0301,-2.0492,-2.041,-2.0458,-2.054,-2.0579,-2.0575,-2.057,-2.0554,-2.0377,-2.0223,-2.0445,-2.0293,-2.0253,-2.0332,-2.0565,-2.0501,-2.057,-2.0582,-2.0536,-2.0545,-2.0526,-2.0515,-2.0508,-2.05,-2.0439,-2.0434,-2.0408,-2.0385,-2.0353,-2.0315,-2.0467,-2.1401,-2.2238,-2.2979,-2.3837,-2.4753,-2.5074,-2.5398,-2.549,-2.5524,-2.5531,-2.5518,-2.5518,-2.5525,-2.5525,-2.5525,-2.5531,-2.5531,-2.5525,-2.5537,-2.5523,-2.5537,-2.555,-2.5544,-2.5543,-2.5565,-2.561,-2.5656,-2.5678,-2.5693,-2.5703,-2.5693,-2.57,-2.5703,-2.5703,-2.5703,-2.5703,-2.5703,-2.5703,-2.5703,-2.5703,-2.5703,-2.5703,-2.5703,-2.5703,-2.5703,-2.5703,-2.5703,-2.5703,-2.5683,-2.5702,-2.5701,-2.5697,-2.5693,-1.1001,-1.1415,-1.1783,-1.2075,-1.2282,-1.2423,-1.262,-1.2797,-1.2995,-1.3191,-1.3395,-1.3622,-1.3824,-1.4012,-1.4163,-1.433,-1.4484,-1.4909,-1.5482,-1.6313,-1.7109,-1.7667,-1.8326,-1.8829,-1.8984,-1.9234,-1.9284,-1.9085,-1.9488,-1.9561,-1.9548,-1.9994,-2.0058,-2.0292,-2.0465,-2.0541,-2.0544,-2.0566,-2.0566,-2.0585,-2.0605,-2.0566,-2.0425,-2.0222,-2.032,-2.0393,-2.0211,-2.0294,-2.0516,-2.049,-2.0496,-2.0476,-2.0463,-2.0468,-2.0448,-2.0383,-2.0371,-2.036,-2.034,-2.0327,-2.0299,-2.0412,-2.0808,-2.144,-2.245,-2.3383,-2.4144,-2.4709,-2.5125,-2.5434,-2.5443,-2.5459,-2.5468,-2.5448,-2.5448,-2.5448,-2.5456,-2.5464,-2.5453,-2.5461,-2.5456,-2.5464,-2.5464,-2.5468,-2.5495,-2.5505,-2.5544,-2.556,-2.5615,-2.5664,-2.5684,-2.5698,-2.5705,-2.5694,-2.57,-2.5703,-2.5703,-2.5703,-2.5703,-2.5703,-2.5703,-2.5703,-2.5703,-2.5703,-2.5703,-2.5703,-2.5703,-2.5703,-2.5703,-2.5703,-2.5703,-2.5703,-2.5703,-2.5702,-2.5702,-1.0726,-1.1178,-1.1549,-1.1897,-1.2185,-1.2245,-1.2341,-1.253,-1.2644,-1.2989,-1.3242,-1.3484,-1.3573,-1.3543,-1.3838,-1.4071,-1.4251,-1.4556,-1.511,-1.5887,-1.6328,-1.6866,-1.7369,-1.7662,-1.821,-1.7978,-1.797,-1.8367,-1.8104,-1.8332,-1.8787,-1.9179,-1.9191,-1.9396,-1.9814,-2.0141,-2.0168,-2.0174,-2.0417,-2.0578,-2.0579,-2.0477,-2.0217,-1.9641,-1.9826,-2.0088,-1.9711,-1.9896,-2.0406,-2.0445,-2.0452,-2.0405,-2.0399,-2.039,-2.036,-2.0321,-2.0314,-2.0294,-2.0284,-2.0296,-2.0281,-2.0292,-2.0323,-2.0765,-2.1658,-2.2618,-2.3347,-2.4281,-2.4762,-2.5167,-2.5272,-2.535,-2.5388,-2.5397,-2.5397,-2.5397,-2.5387,-2.5387,-2.5387,-2.5404,-2.5385,-2.5393,-2.5401,-2.5412,-2.5445,-2.548,-2.5505,-2.5537,-2.5581,-2.5656,-2.5678,-2.5693,-2.5698,-2.5687,-2.5697,-2.5703,-2.5703,-2.5703,-2.5703,-2.5703,-2.5703,-2.5703,-2.5703,-2.5699,-2.5694,-2.5693,-2.5703,-2.5694,-2.5694,-2.5697,-2.5697,-2.57,-2.5702,-2.5703,-2.5703,-1.026,-1.0798,-1.1445,-1.1869,-1.2056,-1.1648,-1.1637,-1.1793,-1.1466,-1.1807,-1.2431,-1.271,-1.2665,-1.2524,-1.3202,-1.3493,-1.3647,-1.4068,-1.4747,-1.5254,-1.567,-1.6036,-1.6779,-1.717,-1.7581,-1.7847,-1.7871,-1.7701,-1.7666,-1.7832,-1.798,-1.8213,-1.8256,-1.8484,-1.879,-1.9176,-1.9507,-1.9533,-2.0081,-2.0288,-2.0238,-2.0316,-2.0152,-1.9516,-1.9445,-1.9437,-1.9212,-1.9316,-1.9896,-2.0249,-2.0363,-2.0372,-2.0328,-2.032,-2.0311,-2.0296,-2.025,-2.0227,-2.0211,-2.0222,-2.0214,-2.0233,-2.0252,-2.0329,-2.0798,-2.165,-2.2562,-2.3571,-2.4322,-2.4726,-2.5072,-2.5168,-2.5303,-2.5313,-2.5332,-2.5332,-2.5332,-2.5332,-2.5332,-2.5332,-2.5341,-2.5341,-2.5351,-2.5369,-2.5404,-2.5453,-2.5466,-2.5517,-2.5576,-2.5652,-2.5681,-2.5693,-2.5693,-2.5703,-2.5693,-2.5703,-2.5703,-2.5703,-2.5703,-2.5703,-2.5696,-2.5694,-2.5694,-2.5689,-2.5705,-2.5679,-2.569,-2.5701,-2.5704,-2.5676,-2.5681,-2.5666,-2.5691,-2.5694,-2.5701,-0.9932,-1.0494,-1.1287,-1.1589,-1.1515,-1.1285,-1.1194,-1.1105,-1.0895,-1.096,-1.1299,-1.1761,-1.1907,-1.1711,-1.2416,-1.2735,-1.2899,-1.3364,-1.3551,-1.402,-1.478,-1.5093,-1.5719,-1.6342,-1.6474,-1.675,-1.6789,-1.6738,-1.6967,-1.6811,-1.6765,-1.7232,-1.7345,-1.749,-1.7766,-1.8341,-1.8565,-1.8608,-1.9454,-1.9633,-1.9558,-1.9605,-1.9437,-1.8901,-1.8593,-1.8595,-1.8746,-1.8861,-1.9567,-2.0063,-2.0287,-2.0284,-2.0254,-2.0257,-2.0233,-2.0225,-2.0208,-2.0169,-2.0171,-2.0153,-2.0153,-2.0162,-2.0162,-2.0239,-2.0239,-2.1004,-2.1453,-2.2402,-2.3218,-2.3688,-2.4322,-2.4553,-2.4957,-2.5139,-2.5236,-2.5322,-2.5322,-2.5322,-2.5322,-2.5322,-2.5322,-2.5322,-2.5332,-2.537,-2.5406,-2.5418,-2.5452,-2.5523,-2.5586,-2.5656,-2.5681,-2.5693,-2.5693,-2.5698,-2.5689,-2.5694,-2.5703,-2.5703,-2.5696,-2.5693,-2.5687,-2.5703,-2.5698,-2.569,-2.5662,-2.5652,-2.566,-2.5648,-2.5663,-2.5636,-2.5648,-2.5636,-2.5665,-2.5673,-2.5685,-0.9598,-1.0205,-1.0886,-1.1047,-1.0814,-1.0866,-1.0723,-1.0495,-1.0485,-1.0275,-1.0072,-1.0781,-1.1206,-1.1412,-1.1747,-1.1921,-1.2213,-1.2666,-1.2642,-1.2907,-1.3476,-1.4112,-1.4551,-1.488,-1.5346,-1.5605,-1.5677,-1.5667,-1.5706,-1.5712,-1.5982,-1.6348,-1.6564,-1.6755,-1.7287,-1.76,-1.7628,-1.7841,-1.826,-1.8403,-1.8496,-1.8615,-1.845,-1.8106,-1.7674,-1.7623,-1.7863,-1.8383,-1.9162,-1.9742,-2.0063,-2.0161,-2.0162,-2.0153,-2.0135,-2.0117,-2.0136,-2.0108,-2.0098,-2.0108,-2.0089,-2.0089,-2.0069,-2.0079,-2.0098,-2.0299,-2.0747,-2.1244,-2.2039,-2.2806,-2.3439,-2.3909,-2.4361,-2.4908,-2.5034,-2.5245,-2.5245,-2.5264,-2.5274,-2.5274,-2.5313,-2.5313,-2.5351,-2.5389,-2.5406,-2.541,-2.5459,-2.5523,-2.5595,-2.564,-2.5684,-2.569,-2.569,-2.5698,-2.5687,-2.5687,-2.5691,-2.5689,-2.5707,-2.5701,-2.5696,-2.5665,-2.5652,-2.5656,-2.5643,-2.5595,-2.5586,-2.5576,-2.5571,-2.5585,-2.5595,-2.5586,-2.5585,-2.5617,-2.5655,-0.907,-0.9731,-0.9793,-0.9908,-1.0022,-0.9758,-0.9624,-0.9643,-0.936,-0.9165,-0.9355,-0.9505,-0.9753,-0.9922,-1.0776,-1.1169,-1.1393,-1.1876,-1.2443,-1.279,-1.2791,-1.3346,-1.3882,-1.4219,-1.4731,-1.5039,-1.5232,-1.5313,-1.5319,-1.5306,-1.5338,-1.556,-1.5529,-1.5642,-1.5784,-1.617,-1.6688,-1.6919,-1.7346,-1.7658,-1.7857,-1.7933,-1.792,-1.742,-1.6702,-1.6631,-1.68,-1.7374,-1.8189,-1.8963,-1.9554,-1.9745,-1.9764,-1.9716,-1.9688,-1.9668,-1.9706,-1.9829,-1.9789,-1.995,-1.9969,-2.0026,-2.0007,-1.9998,-1.9988,-1.9958,-2.0256,-2.0363,-2.1128,-2.1962,-2.2566,-2.2863,-2.3275,-2.4101,-2.4524,-2.4899,-2.5111,-2.5149,-2.5178,-2.5236,-2.5313,-2.5322,-2.537,-2.5416,-2.5423,-2.5453,-2.5511,-2.5574,-2.5595,-2.5644,-2.5645,-2.5665,-2.5665,-2.5703,-2.5694,-2.5683,-2.5681,-2.5679,-2.5693,-2.5662,-2.5648,-2.5617,-2.5619,-2.5595,-2.5554,-2.5523,-2.5517,-2.5525,-2.5525,-2.5531,-2.5525,-2.5525,-2.5523,-2.5551,-2.5595]}]]